<?xml version='1.0' encoding='UTF-8'?>
<gpx version="1.1" creator="https://www.komoot.de" xmlns="http://www.topografix.com/GPX/1/1" xmlns:xsi="http://www.w3.org/2001/XMLSchema-instance" xsi:schemaLocation="http://www.topografix.com/GPX/1/1 http://www.topografix.com/GPX/1/1/gpx.xsd">
  <metadata>
    <name>ADFC Mauerweg Tour Süd</name>
    <author>
      <link href="https://www.komoot.de">
        <text>komoot</text>
        <type>text/html</type>
      </link>
    </author>
  </metadata>
  <trk>
    <name>ADFC Mauerweg Tour Süd</name>
    <trkseg>
      <trkpt lat="52.516244" lon="13.377210">
        <ele>36.295091</ele>
        <time>2024-04-24T10:19:09.449Z</time>
      </trkpt>
      <trkpt lat="52.516346" lon="13.377094">
        <ele>36.295091</ele>
        <time>2024-04-24T10:19:18.077Z</time>
      </trkpt>
      <trkpt lat="52.516340" lon="13.376989">
        <ele>36.295091</ele>
        <time>2024-04-24T10:19:19.530Z</time>
      </trkpt>
      <trkpt lat="52.516276" lon="13.376892">
        <ele>36.295091</ele>
        <time>2024-04-24T10:19:21.465Z</time>
      </trkpt>
      <trkpt lat="52.516265" lon="13.376706">
        <ele>36.295091</ele>
        <time>2024-04-24T10:19:23.621Z</time>
      </trkpt>
      <trkpt lat="52.516156" lon="13.376726">
        <ele>36.295091</ele>
        <time>2024-04-24T10:19:26.093Z</time>
      </trkpt>
      <trkpt lat="52.516089" lon="13.376752">
        <ele>36.295091</ele>
        <time>2024-04-24T10:19:27.556Z</time>
      </trkpt>
      <trkpt lat="52.516030" lon="13.376795">
        <ele>36.295091</ele>
        <time>2024-04-24T10:19:28.950Z</time>
      </trkpt>
      <trkpt lat="52.515951" lon="13.376902">
        <ele>36.295091</ele>
        <time>2024-04-24T10:19:30.847Z</time>
      </trkpt>
      <trkpt lat="52.515828" lon="13.377229">
        <ele>36.241161</ele>
        <time>2024-04-24T10:19:35.832Z</time>
      </trkpt>
      <trkpt lat="52.515750" lon="13.377366">
        <ele>36.152008</ele>
        <time>2024-04-24T10:19:38.004Z</time>
      </trkpt>
      <trkpt lat="52.515641" lon="13.377453">
        <ele>36.057382</ele>
        <time>2024-04-24T10:19:40.496Z</time>
      </trkpt>
      <trkpt lat="52.515526" lon="13.377457">
        <ele>35.967560</ele>
        <time>2024-04-24T10:19:42.928Z</time>
      </trkpt>
      <trkpt lat="52.515460" lon="13.377460">
        <ele>35.916001</ele>
        <time>2024-04-24T10:19:44.242Z</time>
      </trkpt>
      <trkpt lat="52.515395" lon="13.377367">
        <ele>35.848700</ele>
        <time>2024-04-24T10:19:45.807Z</time>
      </trkpt>
      <trkpt lat="52.515334" lon="13.377351">
        <ele>35.800463</ele>
        <time>2024-04-24T10:19:47.133Z</time>
      </trkpt>
      <trkpt lat="52.514530" lon="13.377240">
        <ele>35.170418</ele>
        <time>2024-04-24T10:20:03.607Z</time>
      </trkpt>
      <trkpt lat="52.514467" lon="13.377232">
        <ele>35.121076</ele>
        <time>2024-04-24T10:20:04.994Z</time>
      </trkpt>
      <trkpt lat="52.513190" lon="13.376973">
        <ele>34.247643</ele>
        <time>2024-04-24T10:20:30.740Z</time>
      </trkpt>
      <trkpt lat="52.513144" lon="13.376964">
        <ele>34.217605</ele>
        <time>2024-04-24T10:20:31.701Z</time>
      </trkpt>
      <trkpt lat="52.512956" lon="13.376926">
        <ele>34.094781</ele>
        <time>2024-04-24T10:20:35.862Z</time>
      </trkpt>
      <trkpt lat="52.512866" lon="13.376907">
        <ele>34.035942</ele>
        <time>2024-04-24T10:20:37.732Z</time>
      </trkpt>
      <trkpt lat="52.512745" lon="13.376883">
        <ele>33.956912</ele>
        <time>2024-04-24T10:20:40.324Z</time>
      </trkpt>
      <trkpt lat="52.512699" lon="13.376944">
        <ele>33.918583</ele>
        <time>2024-04-24T10:20:41.623Z</time>
      </trkpt>
      <trkpt lat="52.512588" lon="13.376941">
        <ele>33.846597</ele>
        <time>2024-04-24T10:20:44.097Z</time>
      </trkpt>
      <trkpt lat="52.512554" lon="13.376945">
        <ele>33.824494</ele>
        <time>2024-04-24T10:20:44.806Z</time>
      </trkpt>
      <trkpt lat="52.512462" lon="13.376956">
        <ele>33.764680</ele>
        <time>2024-04-24T10:20:46.761Z</time>
      </trkpt>
      <trkpt lat="52.512359" lon="13.376967">
        <ele>33.727265</ele>
        <time>2024-04-24T10:20:49.039Z</time>
      </trkpt>
      <trkpt lat="52.512266" lon="13.376972">
        <ele>33.734113</ele>
        <time>2024-04-24T10:20:51.069Z</time>
      </trkpt>
      <trkpt lat="52.512243" lon="13.376969">
        <ele>33.735811</ele>
        <time>2024-04-24T10:20:51.552Z</time>
      </trkpt>
      <trkpt lat="52.512144" lon="13.376904">
        <ele>33.743656</ele>
        <time>2024-04-24T10:20:54.454Z</time>
      </trkpt>
      <trkpt lat="52.510932" lon="13.376643">
        <ele>33.833609</ele>
        <time>2024-04-24T10:21:29.349Z</time>
      </trkpt>
      <trkpt lat="52.510755" lon="13.376641">
        <ele>33.846635</ele>
        <time>2024-04-24T10:21:35.424Z</time>
      </trkpt>
      <trkpt lat="52.510717" lon="13.376632">
        <ele>33.849460</ele>
        <time>2024-04-24T10:21:36.727Z</time>
      </trkpt>
      <trkpt lat="52.510698" lon="13.376629">
        <ele>33.850865</ele>
        <time>2024-04-24T10:21:37.243Z</time>
      </trkpt>
      <trkpt lat="52.510668" lon="13.376622">
        <ele>33.853095</ele>
        <time>2024-04-24T10:21:38.088Z</time>
      </trkpt>
      <trkpt lat="52.510381" lon="13.376560">
        <ele>34.138527</ele>
        <time>2024-04-24T10:21:48.371Z</time>
      </trkpt>
      <trkpt lat="52.510341" lon="13.376515">
        <ele>34.195095</ele>
        <time>2024-04-24T10:21:50.128Z</time>
      </trkpt>
      <trkpt lat="52.510228" lon="13.376489">
        <ele>34.328242</ele>
        <time>2024-04-24T10:21:54.289Z</time>
      </trkpt>
      <trkpt lat="52.510134" lon="13.376467">
        <ele>34.439038</ele>
        <time>2024-04-24T10:21:57.768Z</time>
      </trkpt>
      <trkpt lat="52.510092" lon="13.376447">
        <ele>34.490064</ele>
        <time>2024-04-24T10:21:59.245Z</time>
      </trkpt>
      <trkpt lat="52.510002" lon="13.376403">
        <ele>34.599636</ele>
        <time>2024-04-24T10:22:02.345Z</time>
      </trkpt>
      <trkpt lat="52.509702" lon="13.376483">
        <ele>34.954286</ele>
        <time>2024-04-24T10:22:13.573Z</time>
      </trkpt>
      <trkpt lat="52.509647" lon="13.376530">
        <ele>35.026627</ele>
        <time>2024-04-24T10:22:15.856Z</time>
      </trkpt>
      <trkpt lat="52.509639" lon="13.376537">
        <ele>35.037204</ele>
        <time>2024-04-24T10:22:16.224Z</time>
      </trkpt>
      <trkpt lat="52.509598" lon="13.376571">
        <ele>35.090795</ele>
        <time>2024-04-24T10:22:17.881Z</time>
      </trkpt>
      <trkpt lat="52.509419" lon="13.376582">
        <ele>35.299816</ele>
        <time>2024-04-24T10:22:22.707Z</time>
      </trkpt>
      <trkpt lat="52.509358" lon="13.376590">
        <ele>35.371224</ele>
        <time>2024-04-24T10:22:24.580Z</time>
      </trkpt>
      <trkpt lat="52.509288" lon="13.376599">
        <ele>35.453156</ele>
        <time>2024-04-24T10:22:26.347Z</time>
      </trkpt>
      <trkpt lat="52.508935" lon="13.376703">
        <ele>35.871642</ele>
        <time>2024-04-24T10:22:34.589Z</time>
      </trkpt>
      <trkpt lat="52.508770" lon="13.376834">
        <ele>36.062852</ele>
        <time>2024-04-24T10:22:39.761Z</time>
      </trkpt>
      <trkpt lat="52.508577" lon="13.377079">
        <ele>36.297923</ele>
        <time>2024-04-24T10:22:48.814Z</time>
      </trkpt>
      <trkpt lat="52.508073" lon="13.377683">
        <ele>36.899181</ele>
        <time>2024-04-24T10:23:08.802Z</time>
      </trkpt>
      <trkpt lat="52.507946" lon="13.377838">
        <ele>37.051663</ele>
        <time>2024-04-24T10:23:12.663Z</time>
      </trkpt>
      <trkpt lat="52.507841" lon="13.377968">
        <ele>37.178381</ele>
        <time>2024-04-24T10:23:16.087Z</time>
      </trkpt>
      <trkpt lat="52.507710" lon="13.378131">
        <ele>37.336763</ele>
        <time>2024-04-24T10:23:19.954Z</time>
      </trkpt>
      <trkpt lat="52.507516" lon="13.378373">
        <ele>37.571531</ele>
        <time>2024-04-24T10:23:26.470Z</time>
      </trkpt>
      <trkpt lat="52.507398" lon="13.378522">
        <ele>37.696067</ele>
        <time>2024-04-24T10:23:29.891Z</time>
      </trkpt>
      <trkpt lat="52.507063" lon="13.378962">
        <ele>37.808301</ele>
        <time>2024-04-24T10:23:39.576Z</time>
      </trkpt>
      <trkpt lat="52.506978" lon="13.379075">
        <ele>37.836914</ele>
        <time>2024-04-24T10:23:42.345Z</time>
      </trkpt>
      <trkpt lat="52.507015" lon="13.379164">
        <ele>37.854081</ele>
        <time>2024-04-24T10:23:43.810Z</time>
      </trkpt>
      <trkpt lat="52.507049" lon="13.379296">
        <ele>37.876911</ele>
        <time>2024-04-24T10:23:45.704Z</time>
      </trkpt>
      <trkpt lat="52.507085" lon="13.379942">
        <ele>37.980235</ele>
        <time>2024-04-24T10:23:58.307Z</time>
      </trkpt>
      <trkpt lat="52.507133" lon="13.380812">
        <ele>38.119375</ele>
        <time>2024-04-24T10:24:11.000Z</time>
      </trkpt>
      <trkpt lat="52.507139" lon="13.380913">
        <ele>38.135538</ele>
        <time>2024-04-24T10:24:12.121Z</time>
      </trkpt>
      <trkpt lat="52.507162" lon="13.381298">
        <ele>38.041975</ele>
        <time>2024-04-24T10:24:16.538Z</time>
      </trkpt>
      <trkpt lat="52.507165" lon="13.381329">
        <ele>38.026261</ele>
        <time>2024-04-24T10:24:16.892Z</time>
      </trkpt>
      <trkpt lat="52.507173" lon="13.381457">
        <ele>37.961846</ele>
        <time>2024-04-24T10:24:18.368Z</time>
      </trkpt>
      <trkpt lat="52.507220" lon="13.382231">
        <ele>37.572450</ele>
        <time>2024-04-24T10:24:28.033Z</time>
      </trkpt>
      <trkpt lat="52.507229" lon="13.382384">
        <ele>37.495500</ele>
        <time>2024-04-24T10:24:29.727Z</time>
      </trkpt>
      <trkpt lat="52.507233" lon="13.382433">
        <ele>37.470750</ele>
        <time>2024-04-24T10:24:30.259Z</time>
      </trkpt>
      <trkpt lat="52.507281" lon="13.383171">
        <ele>37.099197</ele>
        <time>2024-04-24T10:24:39.260Z</time>
      </trkpt>
      <trkpt lat="52.507321" lon="13.383775">
        <ele>36.795045</ele>
        <time>2024-04-24T10:24:46.984Z</time>
      </trkpt>
      <trkpt lat="52.507425" lon="13.385391">
        <ele>36.870395</ele>
        <time>2024-04-24T10:25:07.817Z</time>
      </trkpt>
      <trkpt lat="52.507432" lon="13.385535">
        <ele>36.890061</ele>
        <time>2024-04-24T10:25:09.942Z</time>
      </trkpt>
      <trkpt lat="52.507441" lon="13.385706">
        <ele>36.913428</ele>
        <time>2024-04-24T10:25:12.572Z</time>
      </trkpt>
      <trkpt lat="52.507462" lon="13.386136">
        <ele>36.972155</ele>
        <time>2024-04-24T10:25:19.518Z</time>
      </trkpt>
      <trkpt lat="52.507470" lon="13.386281">
        <ele>36.991976</ele>
        <time>2024-04-24T10:25:21.803Z</time>
      </trkpt>
      <trkpt lat="52.507512" lon="13.387028">
        <ele>37.101332</ele>
        <time>2024-04-24T10:25:33.482Z</time>
      </trkpt>
      <trkpt lat="52.507542" lon="13.387613">
        <ele>37.231722</ele>
        <time>2024-04-24T10:25:43.791Z</time>
      </trkpt>
      <trkpt lat="52.507548" lon="13.387716">
        <ele>37.254703</ele>
        <time>2024-04-24T10:25:45.943Z</time>
      </trkpt>
      <trkpt lat="52.507591" lon="13.388501">
        <ele>37.429759</ele>
        <time>2024-04-24T10:25:59.950Z</time>
      </trkpt>
      <trkpt lat="52.507609" lon="13.388814">
        <ele>37.499587</ele>
        <time>2024-04-24T10:26:04.022Z</time>
      </trkpt>
      <trkpt lat="52.507639" lon="13.389340">
        <ele>37.616924</ele>
        <time>2024-04-24T10:26:10.783Z</time>
      </trkpt>
      <trkpt lat="52.507660" lon="13.389708">
        <ele>37.699017</ele>
        <time>2024-04-24T10:26:15.425Z</time>
      </trkpt>
      <trkpt lat="52.507689" lon="13.390216">
        <ele>37.762049</ele>
        <time>2024-04-24T10:26:21.524Z</time>
      </trkpt>
      <trkpt lat="52.507696" lon="13.390346">
        <ele>37.771160</ele>
        <time>2024-04-24T10:26:23.062Z</time>
      </trkpt>
      <trkpt lat="52.507703" lon="13.390463">
        <ele>37.779367</ele>
        <time>2024-04-24T10:26:24.452Z</time>
      </trkpt>
      <trkpt lat="52.507801" lon="13.392142">
        <ele>37.897114</ele>
        <time>2024-04-24T10:26:47.979Z</time>
      </trkpt>
      <trkpt lat="52.507809" lon="13.392260">
        <ele>37.905402</ele>
        <time>2024-04-24T10:26:50.171Z</time>
      </trkpt>
      <trkpt lat="52.507819" lon="13.392397">
        <ele>37.915035</ele>
        <time>2024-04-24T10:26:52.336Z</time>
      </trkpt>
      <trkpt lat="52.507832" lon="13.392653">
        <ele>37.932968</ele>
        <time>2024-04-24T10:26:56.325Z</time>
      </trkpt>
      <trkpt lat="52.507838" lon="13.392754">
        <ele>37.940052</ele>
        <time>2024-04-24T10:26:58.103Z</time>
      </trkpt>
      <trkpt lat="52.507842" lon="13.392818">
        <ele>37.944543</ele>
        <time>2024-04-24T10:26:59.338Z</time>
      </trkpt>
      <trkpt lat="52.507854" lon="13.393026">
        <ele>37.993707</ele>
        <time>2024-04-24T10:27:02.543Z</time>
      </trkpt>
      <trkpt lat="52.507892" lon="13.393658">
        <ele>38.148819</ele>
        <time>2024-04-24T10:27:12.849Z</time>
      </trkpt>
      <trkpt lat="52.507917" lon="13.394087">
        <ele>38.254078</ele>
        <time>2024-04-24T10:27:20.530Z</time>
      </trkpt>
      <trkpt lat="52.507924" lon="13.394211">
        <ele>38.284494</ele>
        <time>2024-04-24T10:27:22.626Z</time>
      </trkpt>
      <trkpt lat="52.507932" lon="13.394339">
        <ele>38.315921</ele>
        <time>2024-04-24T10:27:24.368Z</time>
      </trkpt>
      <trkpt lat="52.507965" lon="13.394906">
        <ele>38.455038</ele>
        <time>2024-04-24T10:27:32.148Z</time>
      </trkpt>
      <trkpt lat="52.507976" lon="13.395083">
        <ele>38.498494</ele>
        <time>2024-04-24T10:27:34.450Z</time>
      </trkpt>
      <trkpt lat="52.508002" lon="13.395529">
        <ele>38.607924</ele>
        <time>2024-04-24T10:27:40.427Z</time>
      </trkpt>
      <trkpt lat="52.508018" lon="13.395806">
        <ele>38.643010</ele>
        <time>2024-04-24T10:27:44.121Z</time>
      </trkpt>
      <trkpt lat="52.508052" lon="13.396371">
        <ele>38.265242</ele>
        <time>2024-04-24T10:27:51.663Z</time>
      </trkpt>
      <trkpt lat="52.508066" lon="13.396624">
        <ele>38.096210</ele>
        <time>2024-04-24T10:27:55.173Z</time>
      </trkpt>
      <trkpt lat="52.508093" lon="13.397071">
        <ele>37.797328</ele>
        <time>2024-04-24T10:28:00.325Z</time>
      </trkpt>
      <trkpt lat="52.508100" lon="13.397199">
        <ele>37.711818</ele>
        <time>2024-04-24T10:28:02.019Z</time>
      </trkpt>
      <trkpt lat="52.508127" lon="13.397645">
        <ele>37.413599</ele>
        <time>2024-04-24T10:28:07.048Z</time>
      </trkpt>
      <trkpt lat="52.508201" lon="13.398891">
        <ele>36.674029</ele>
        <time>2024-04-24T10:28:21.305Z</time>
      </trkpt>
      <trkpt lat="52.508174" lon="13.399081">
        <ele>36.645116</ele>
        <time>2024-04-24T10:28:23.597Z</time>
      </trkpt>
      <trkpt lat="52.508254" lon="13.399139">
        <ele>36.623826</ele>
        <time>2024-04-24T10:28:25.186Z</time>
      </trkpt>
      <trkpt lat="52.508442" lon="13.399259">
        <ele>36.574719</ele>
        <time>2024-04-24T10:28:29.127Z</time>
      </trkpt>
      <trkpt lat="52.508491" lon="13.399296">
        <ele>36.561589</ele>
        <time>2024-04-24T10:28:30.448Z</time>
      </trkpt>
      <trkpt lat="52.508645" lon="13.399410">
        <ele>36.520464</ele>
        <time>2024-04-24T10:28:34.574Z</time>
      </trkpt>
      <trkpt lat="52.508840" lon="13.399554">
        <ele>36.468411</ele>
        <time>2024-04-24T10:28:40.353Z</time>
      </trkpt>
      <trkpt lat="52.508894" lon="13.399593">
        <ele>36.454049</ele>
        <time>2024-04-24T10:28:41.835Z</time>
      </trkpt>
      <trkpt lat="52.508992" lon="13.399717">
        <ele>36.423933</ele>
        <time>2024-04-24T10:28:45.442Z</time>
      </trkpt>
      <trkpt lat="52.509023" lon="13.399738">
        <ele>36.415769</ele>
        <time>2024-04-24T10:28:46.224Z</time>
      </trkpt>
      <trkpt lat="52.509091" lon="13.399786">
        <ele>36.397749</ele>
        <time>2024-04-24T10:28:48.098Z</time>
      </trkpt>
      <trkpt lat="52.509170" lon="13.399844">
        <ele>36.376682</ele>
        <time>2024-04-24T10:28:50.297Z</time>
      </trkpt>
      <trkpt lat="52.509201" lon="13.399867">
        <ele>36.368400</ele>
        <time>2024-04-24T10:28:51.040Z</time>
      </trkpt>
      <trkpt lat="52.509444" lon="13.400047">
        <ele>36.303501</ele>
        <time>2024-04-24T10:28:57.606Z</time>
      </trkpt>
      <trkpt lat="52.509532" lon="13.400114">
        <ele>36.279886</ele>
        <time>2024-04-24T10:28:59.719Z</time>
      </trkpt>
      <trkpt lat="52.509485" lon="13.400251">
        <ele>36.261351</ele>
        <time>2024-04-24T10:29:02.025Z</time>
      </trkpt>
      <trkpt lat="52.509219" lon="13.400991">
        <ele>36.230571</ele>
        <time>2024-04-24T10:29:12.355Z</time>
      </trkpt>
      <trkpt lat="52.508761" lon="13.402261">
        <ele>36.177702</ele>
        <time>2024-04-24T10:29:33.105Z</time>
      </trkpt>
      <trkpt lat="52.508663" lon="13.402594">
        <ele>36.164454</ele>
        <time>2024-04-24T10:29:37.759Z</time>
      </trkpt>
      <trkpt lat="52.508504" lon="13.403041">
        <ele>36.253887</ele>
        <time>2024-04-24T10:29:45.293Z</time>
      </trkpt>
      <trkpt lat="52.508239" lon="13.403722">
        <ele>36.506034</ele>
        <time>2024-04-24T10:29:57.633Z</time>
      </trkpt>
      <trkpt lat="52.508202" lon="13.403807">
        <ele>36.538634</ele>
        <time>2024-04-24T10:29:59.357Z</time>
      </trkpt>
      <trkpt lat="52.508172" lon="13.403873">
        <ele>36.564331</ele>
        <time>2024-04-24T10:30:00.356Z</time>
      </trkpt>
      <trkpt lat="52.507922" lon="13.404423">
        <ele>36.778472</ele>
        <time>2024-04-24T10:30:09.955Z</time>
      </trkpt>
      <trkpt lat="52.507865" lon="13.404479">
        <ele>36.812511</ele>
        <time>2024-04-24T10:30:11.733Z</time>
      </trkpt>
      <trkpt lat="52.507903" lon="13.404548">
        <ele>36.841540</ele>
        <time>2024-04-24T10:30:13.056Z</time>
      </trkpt>
      <trkpt lat="52.508220" lon="13.405112">
        <ele>37.079593</ele>
        <time>2024-04-24T10:30:26.728Z</time>
      </trkpt>
      <trkpt lat="52.508327" lon="13.405304">
        <ele>37.106054</ele>
        <time>2024-04-24T10:30:30.563Z</time>
      </trkpt>
      <trkpt lat="52.508268" lon="13.405348">
        <ele>37.116875</ele>
        <time>2024-04-24T10:30:32.623Z</time>
      </trkpt>
      <trkpt lat="52.508055" lon="13.405616">
        <ele>37.161679</ele>
        <time>2024-04-24T10:30:39.227Z</time>
      </trkpt>
      <trkpt lat="52.507897" lon="13.405823">
        <ele>37.195427</ele>
        <time>2024-04-24T10:30:44.456Z</time>
      </trkpt>
      <trkpt lat="52.507447" lon="13.406417">
        <ele>37.291828</ele>
        <time>2024-04-24T10:30:57.163Z</time>
      </trkpt>
      <trkpt lat="52.507278" lon="13.406640">
        <ele>37.328027</ele>
        <time>2024-04-24T10:31:01.921Z</time>
      </trkpt>
      <trkpt lat="52.506955" lon="13.407054">
        <ele>37.362273</ele>
        <time>2024-04-24T10:31:10.219Z</time>
      </trkpt>
      <trkpt lat="52.506812" lon="13.407238">
        <ele>37.332222</ele>
        <time>2024-04-24T10:31:14.348Z</time>
      </trkpt>
      <trkpt lat="52.506755" lon="13.407313">
        <ele>37.320139</ele>
        <time>2024-04-24T10:31:15.888Z</time>
      </trkpt>
      <trkpt lat="52.506311" lon="13.407916">
        <ele>37.224831</ele>
        <time>2024-04-24T10:31:27.991Z</time>
      </trkpt>
      <trkpt lat="52.506268" lon="13.407995">
        <ele>37.214159</ele>
        <time>2024-04-24T10:31:29.693Z</time>
      </trkpt>
      <trkpt lat="52.506291" lon="13.408067">
        <ele>37.205970</ele>
        <time>2024-04-24T10:31:30.876Z</time>
      </trkpt>
      <trkpt lat="52.506569" lon="13.408798">
        <ele>37.119169</ele>
        <time>2024-04-24T10:31:42.636Z</time>
      </trkpt>
      <trkpt lat="52.506713" lon="13.409170">
        <ele>37.086793</ele>
        <time>2024-04-24T10:31:48.698Z</time>
      </trkpt>
      <trkpt lat="52.507034" lon="13.410003">
        <ele>37.159888</ele>
        <time>2024-04-24T10:32:01.875Z</time>
      </trkpt>
      <trkpt lat="52.506885" lon="13.410120">
        <ele>37.180003</ele>
        <time>2024-04-24T10:32:06.129Z</time>
      </trkpt>
      <trkpt lat="52.506681" lon="13.410269">
        <ele>37.207197</ele>
        <time>2024-04-24T10:32:11.358Z</time>
      </trkpt>
      <trkpt lat="52.505774" lon="13.410930">
        <ele>37.353490</ele>
        <time>2024-04-24T10:32:33.926Z</time>
      </trkpt>
      <trkpt lat="52.505127" lon="13.411416">
        <ele>37.520952</ele>
        <time>2024-04-24T10:32:50.895Z</time>
      </trkpt>
      <trkpt lat="52.505074" lon="13.411450">
        <ele>37.534345</ele>
        <time>2024-04-24T10:32:52.316Z</time>
      </trkpt>
      <trkpt lat="52.504974" lon="13.411516">
        <ele>37.559712</ele>
        <time>2024-04-24T10:32:55.223Z</time>
      </trkpt>
      <trkpt lat="52.504909" lon="13.411720">
        <ele>37.592704</ele>
        <time>2024-04-24T10:32:58.447Z</time>
      </trkpt>
      <trkpt lat="52.504863" lon="13.411856">
        <ele>37.614996</ele>
        <time>2024-04-24T10:33:00.632Z</time>
      </trkpt>
      <trkpt lat="52.504403" lon="13.413215">
        <ele>37.655281</ele>
        <time>2024-04-24T10:33:21.992Z</time>
      </trkpt>
      <trkpt lat="52.504069" lon="13.414257">
        <ele>37.552991</ele>
        <time>2024-04-24T10:33:37.370Z</time>
      </trkpt>
      <trkpt lat="52.504240" lon="13.414420">
        <ele>37.524780</ele>
        <time>2024-04-24T10:33:41.704Z</time>
      </trkpt>
      <trkpt lat="52.504394" lon="13.414550">
        <ele>37.500074</ele>
        <time>2024-04-24T10:33:45.755Z</time>
      </trkpt>
      <trkpt lat="52.504602" lon="13.414721">
        <ele>37.468912</ele>
        <time>2024-04-24T10:33:50.823Z</time>
      </trkpt>
      <trkpt lat="52.504851" lon="13.414717">
        <ele>37.549164</ele>
        <time>2024-04-24T10:33:56.017Z</time>
      </trkpt>
      <trkpt lat="52.504787" lon="13.415043">
        <ele>37.616359</ele>
        <time>2024-04-24T10:34:00.625Z</time>
      </trkpt>
      <trkpt lat="52.504769" lon="13.415108">
        <ele>37.630368</ele>
        <time>2024-04-24T10:34:01.549Z</time>
      </trkpt>
      <trkpt lat="52.504694" lon="13.415377">
        <ele>37.688410</ele>
        <time>2024-04-24T10:34:05.791Z</time>
      </trkpt>
      <trkpt lat="52.504636" lon="13.415586">
        <ele>37.733470</ele>
        <time>2024-04-24T10:34:09.070Z</time>
      </trkpt>
      <trkpt lat="52.504545" lon="13.415915">
        <ele>37.804361</ele>
        <time>2024-04-24T10:34:14.028Z</time>
      </trkpt>
      <trkpt lat="52.504429" lon="13.416333">
        <ele>37.894481</ele>
        <time>2024-04-24T10:34:20.999Z</time>
      </trkpt>
      <trkpt lat="52.504417" lon="13.416378">
        <ele>37.904119</ele>
        <time>2024-04-24T10:34:21.739Z</time>
      </trkpt>
      <trkpt lat="52.504336" lon="13.416672">
        <ele>37.967427</ele>
        <time>2024-04-24T10:34:26.987Z</time>
      </trkpt>
      <trkpt lat="52.504288" lon="13.416846">
        <ele>38.004903</ele>
        <time>2024-04-24T10:34:30.847Z</time>
      </trkpt>
      <trkpt lat="52.504240" lon="13.417026">
        <ele>38.043454</ele>
        <time>2024-04-24T10:34:34.497Z</time>
      </trkpt>
      <trkpt lat="52.504179" lon="13.417266">
        <ele>38.125622</ele>
        <time>2024-04-24T10:34:39.419Z</time>
      </trkpt>
      <trkpt lat="52.504139" lon="13.417431">
        <ele>38.183407</ele>
        <time>2024-04-24T10:34:43.581Z</time>
      </trkpt>
      <trkpt lat="52.504313" lon="13.417565">
        <ele>38.286123</ele>
        <time>2024-04-24T10:34:49.045Z</time>
      </trkpt>
      <trkpt lat="52.504682" lon="13.417837">
        <ele>38.502300</ele>
        <time>2024-04-24T10:34:59.678Z</time>
      </trkpt>
      <trkpt lat="52.504832" lon="13.417944">
        <ele>38.589708</ele>
        <time>2024-04-24T10:35:03.954Z</time>
      </trkpt>
      <trkpt lat="52.504989" lon="13.418057">
        <ele>38.681326</ele>
        <time>2024-04-24T10:35:07.808Z</time>
      </trkpt>
      <trkpt lat="52.505047" lon="13.418138">
        <ele>38.722015</ele>
        <time>2024-04-24T10:35:09.564Z</time>
      </trkpt>
      <trkpt lat="52.505072" lon="13.418383">
        <ele>38.802838</ele>
        <time>2024-04-24T10:35:13.484Z</time>
      </trkpt>
      <trkpt lat="52.505077" lon="13.418557">
        <ele>38.859512</ele>
        <time>2024-04-24T10:35:15.892Z</time>
      </trkpt>
      <trkpt lat="52.505119" lon="13.418756">
        <ele>38.928038</ele>
        <time>2024-04-24T10:35:18.872Z</time>
      </trkpt>
      <trkpt lat="52.505154" lon="13.418853">
        <ele>38.964725</ele>
        <time>2024-04-24T10:35:21.034Z</time>
      </trkpt>
      <trkpt lat="52.505259" lon="13.418979">
        <ele>38.981745</ele>
        <time>2024-04-24T10:35:24.119Z</time>
      </trkpt>
      <trkpt lat="52.505292" lon="13.419018">
        <ele>38.959038</ele>
        <time>2024-04-24T10:35:24.978Z</time>
      </trkpt>
      <trkpt lat="52.505748" lon="13.419366">
        <ele>38.678187</ele>
        <time>2024-04-24T10:35:35.624Z</time>
      </trkpt>
      <trkpt lat="52.505724" lon="13.419455">
        <ele>38.645091</ele>
        <time>2024-04-24T10:35:37.093Z</time>
      </trkpt>
      <trkpt lat="52.505641" lon="13.419785">
        <ele>38.523690</ele>
        <time>2024-04-24T10:35:41.514Z</time>
      </trkpt>
      <trkpt lat="52.505599" lon="13.419933">
        <ele>38.468170</ele>
        <time>2024-04-24T10:35:43.593Z</time>
      </trkpt>
      <trkpt lat="52.505468" lon="13.420401">
        <ele>38.293033</ele>
        <time>2024-04-24T10:35:49.961Z</time>
      </trkpt>
      <trkpt lat="52.505406" lon="13.420622">
        <ele>38.210296</ele>
        <time>2024-04-24T10:35:53.020Z</time>
      </trkpt>
      <trkpt lat="52.505235" lon="13.421225">
        <ele>37.998178</ele>
        <time>2024-04-24T10:36:00.992Z</time>
      </trkpt>
      <trkpt lat="52.505150" lon="13.421602">
        <ele>37.958735</ele>
        <time>2024-04-24T10:36:06.066Z</time>
      </trkpt>
      <trkpt lat="52.505117" lon="13.421887">
        <ele>37.930272</ele>
        <time>2024-04-24T10:36:10.073Z</time>
      </trkpt>
      <trkpt lat="52.505109" lon="13.421987">
        <ele>37.920377</ele>
        <time>2024-04-24T10:36:11.437Z</time>
      </trkpt>
      <trkpt lat="52.505097" lon="13.422116">
        <ele>37.907574</ele>
        <time>2024-04-24T10:36:13.233Z</time>
      </trkpt>
      <trkpt lat="52.505069" lon="13.422509">
        <ele>37.868754</ele>
        <time>2024-04-24T10:36:18.430Z</time>
      </trkpt>
      <trkpt lat="52.505067" lon="13.423284">
        <ele>37.792718</ele>
        <time>2024-04-24T10:36:28.778Z</time>
      </trkpt>
      <trkpt lat="52.505101" lon="13.423896">
        <ele>37.732426</ele>
        <time>2024-04-24T10:36:37.518Z</time>
      </trkpt>
      <trkpt lat="52.505167" lon="13.424426">
        <ele>37.701634</ele>
        <time>2024-04-24T10:36:45.561Z</time>
      </trkpt>
      <trkpt lat="52.505285" lon="13.425036">
        <ele>37.679254</ele>
        <time>2024-04-24T10:36:54.223Z</time>
      </trkpt>
      <trkpt lat="52.505515" lon="13.425822">
        <ele>37.648761</ele>
        <time>2024-04-24T10:37:06.102Z</time>
      </trkpt>
      <trkpt lat="52.505814" lon="13.426525">
        <ele>37.618774</ele>
        <time>2024-04-24T10:37:17.557Z</time>
      </trkpt>
      <trkpt lat="52.505862" lon="13.426614">
        <ele>37.614616</ele>
        <time>2024-04-24T10:37:19.066Z</time>
      </trkpt>
      <trkpt lat="52.506259" lon="13.427277">
        <ele>37.219625</ele>
        <time>2024-04-24T10:37:30.843Z</time>
      </trkpt>
      <trkpt lat="52.506445" lon="13.427512">
        <ele>37.035052</ele>
        <time>2024-04-24T10:37:35.737Z</time>
      </trkpt>
      <trkpt lat="52.506639" lon="13.427722">
        <ele>36.852302</ele>
        <time>2024-04-24T10:37:40.506Z</time>
      </trkpt>
      <trkpt lat="52.506984" lon="13.427996">
        <ele>36.550872</ele>
        <time>2024-04-24T10:37:48.241Z</time>
      </trkpt>
      <trkpt lat="52.507217" lon="13.428168">
        <ele>36.349938</ele>
        <time>2024-04-24T10:37:53.330Z</time>
      </trkpt>
      <trkpt lat="52.507249" lon="13.428191">
        <ele>36.322463</ele>
        <time>2024-04-24T10:37:54.079Z</time>
      </trkpt>
      <trkpt lat="52.507353" lon="13.428259">
        <ele>36.234414</ele>
        <time>2024-04-24T10:37:56.341Z</time>
      </trkpt>
      <trkpt lat="52.507481" lon="13.428279">
        <ele>36.127334</ele>
        <time>2024-04-24T10:37:58.697Z</time>
      </trkpt>
      <trkpt lat="52.507948" lon="13.428301">
        <ele>35.724931</ele>
        <time>2024-04-24T10:38:07.388Z</time>
      </trkpt>
      <trkpt lat="52.508137" lon="13.428361">
        <ele>35.559131</ele>
        <time>2024-04-24T10:38:10.915Z</time>
      </trkpt>
      <trkpt lat="52.508688" lon="13.428805">
        <ele>35.030536</ele>
        <time>2024-04-24T10:38:23.483Z</time>
      </trkpt>
      <trkpt lat="52.508933" lon="13.429018">
        <ele>34.791790</ele>
        <time>2024-04-24T10:38:29.362Z</time>
      </trkpt>
      <trkpt lat="52.509494" lon="13.429519">
        <ele>34.778679</ele>
        <time>2024-04-24T10:38:44.146Z</time>
      </trkpt>
      <trkpt lat="52.509697" lon="13.429708">
        <ele>34.844262</ele>
        <time>2024-04-24T10:38:50.362Z</time>
      </trkpt>
      <trkpt lat="52.510090" lon="13.430052">
        <ele>34.969423</ele>
        <time>2024-04-24T10:39:00.180Z</time>
      </trkpt>
      <trkpt lat="52.510193" lon="13.430113">
        <ele>35.000198</ele>
        <time>2024-04-24T10:39:02.448Z</time>
      </trkpt>
      <trkpt lat="52.510132" lon="13.430274">
        <ele>35.032641</ele>
        <time>2024-04-24T10:39:05.628Z</time>
      </trkpt>
      <trkpt lat="52.509971" lon="13.430710">
        <ele>35.119882</ele>
        <time>2024-04-24T10:39:13.740Z</time>
      </trkpt>
      <trkpt lat="52.509599" lon="13.431713">
        <ele>35.110183</ele>
        <time>2024-04-24T10:39:33.635Z</time>
      </trkpt>
      <trkpt lat="52.509521" lon="13.431924">
        <ele>35.099675</ele>
        <time>2024-04-24T10:39:37.468Z</time>
      </trkpt>
      <trkpt lat="52.509419" lon="13.432200">
        <ele>35.085930</ele>
        <time>2024-04-24T10:39:41.834Z</time>
      </trkpt>
      <trkpt lat="52.509343" lon="13.432404">
        <ele>35.075749</ele>
        <time>2024-04-24T10:39:45.110Z</time>
      </trkpt>
      <trkpt lat="52.509007" lon="13.433296">
        <ele>35.031097</ele>
        <time>2024-04-24T10:39:58.687Z</time>
      </trkpt>
      <trkpt lat="52.508976" lon="13.433381">
        <ele>35.026879</ele>
        <time>2024-04-24T10:39:59.948Z</time>
      </trkpt>
      <trkpt lat="52.508780" lon="13.433908">
        <ele>34.834592</ele>
        <time>2024-04-24T10:40:07.747Z</time>
      </trkpt>
      <trkpt lat="52.508554" lon="13.434418">
        <ele>34.634751</ele>
        <time>2024-04-24T10:40:15.632Z</time>
      </trkpt>
      <trkpt lat="52.508457" lon="13.434632">
        <ele>34.550226</ele>
        <time>2024-04-24T10:40:19.081Z</time>
      </trkpt>
      <trkpt lat="52.508328" lon="13.434878">
        <ele>34.447365</ele>
        <time>2024-04-24T10:40:23.400Z</time>
      </trkpt>
      <trkpt lat="52.508256" lon="13.435009">
        <ele>34.391450</ele>
        <time>2024-04-24T10:40:25.653Z</time>
      </trkpt>
      <trkpt lat="52.508007" lon="13.435402">
        <ele>34.211744</ele>
        <time>2024-04-24T10:40:33.011Z</time>
      </trkpt>
      <trkpt lat="52.507483" lon="13.436081">
        <ele>34.009501</ele>
        <time>2024-04-24T10:40:47.183Z</time>
      </trkpt>
      <trkpt lat="52.507013" lon="13.436658">
        <ele>33.900344</ele>
        <time>2024-04-24T10:40:59.847Z</time>
      </trkpt>
      <trkpt lat="52.506954" lon="13.436749">
        <ele>33.885288</ele>
        <time>2024-04-24T10:41:01.541Z</time>
      </trkpt>
      <trkpt lat="52.506873" lon="13.436863">
        <ele>33.865445</ele>
        <time>2024-04-24T10:41:03.816Z</time>
      </trkpt>
      <trkpt lat="52.506734" lon="13.437046">
        <ele>33.832306</ele>
        <time>2024-04-24T10:41:08.119Z</time>
      </trkpt>
      <trkpt lat="52.506488" lon="13.437373">
        <ele>33.773434</ele>
        <time>2024-04-24T10:41:15.319Z</time>
      </trkpt>
      <trkpt lat="52.505916" lon="13.438154">
        <ele>33.544525</ele>
        <time>2024-04-24T10:41:31.609Z</time>
      </trkpt>
      <trkpt lat="52.505824" lon="13.438301">
        <ele>33.502713</ele>
        <time>2024-04-24T10:41:34.267Z</time>
      </trkpt>
      <trkpt lat="52.505482" lon="13.438899">
        <ele>33.339993</ele>
        <time>2024-04-24T10:41:44.761Z</time>
      </trkpt>
      <trkpt lat="52.505155" lon="13.439649">
        <ele>33.158439</ele>
        <time>2024-04-24T10:41:56.459Z</time>
      </trkpt>
      <trkpt lat="52.504804" lon="13.440528">
        <ele>32.973152</ele>
        <time>2024-04-24T10:42:10.053Z</time>
      </trkpt>
      <trkpt lat="52.504747" lon="13.440672">
        <ele>32.942877</ele>
        <time>2024-04-24T10:42:12.318Z</time>
      </trkpt>
      <trkpt lat="52.504686" lon="13.440816">
        <ele>32.911956</ele>
        <time>2024-04-24T10:42:14.567Z</time>
      </trkpt>
      <trkpt lat="52.504303" lon="13.441845">
        <ele>32.699372</ele>
        <time>2024-04-24T10:42:30.252Z</time>
      </trkpt>
      <trkpt lat="52.503897" lon="13.443011">
        <ele>32.720988</ele>
        <time>2024-04-24T10:42:48.650Z</time>
      </trkpt>
      <trkpt lat="52.503600" lon="13.443881">
        <ele>32.789167</ele>
        <time>2024-04-24T10:43:03.211Z</time>
      </trkpt>
      <trkpt lat="52.503527" lon="13.444073">
        <ele>32.804640</ele>
        <time>2024-04-24T10:43:06.476Z</time>
      </trkpt>
      <trkpt lat="52.503461" lon="13.444221">
        <ele>32.817181</ele>
        <time>2024-04-24T10:43:08.979Z</time>
      </trkpt>
      <trkpt lat="52.503352" lon="13.444517">
        <ele>32.840827</ele>
        <time>2024-04-24T10:43:13.644Z</time>
      </trkpt>
      <trkpt lat="52.503079" lon="13.445337">
        <ele>33.150710</ele>
        <time>2024-04-24T10:43:26.014Z</time>
      </trkpt>
      <trkpt lat="52.502898" lon="13.445623">
        <ele>33.307484</ele>
        <time>2024-04-24T10:43:31.901Z</time>
      </trkpt>
      <trkpt lat="52.502701" lon="13.446310">
        <ele>33.596060</ele>
        <time>2024-04-24T10:43:43.700Z</time>
      </trkpt>
      <trkpt lat="52.502688" lon="13.446361">
        <ele>33.617071</ele>
        <time>2024-04-24T10:43:44.581Z</time>
      </trkpt>
      <trkpt lat="52.502645" lon="13.446536">
        <ele>33.688785</ele>
        <time>2024-04-24T10:43:47.488Z</time>
      </trkpt>
      <trkpt lat="52.502608" lon="13.446499">
        <ele>33.715825</ele>
        <time>2024-04-24T10:43:48.650Z</time>
      </trkpt>
      <trkpt lat="52.502503" lon="13.446423">
        <ele>33.787452</ele>
        <time>2024-04-24T10:43:51.919Z</time>
      </trkpt>
      <trkpt lat="52.502305" lon="13.446261">
        <ele>33.925537</ele>
        <time>2024-04-24T10:43:57.697Z</time>
      </trkpt>
      <trkpt lat="52.501236" lon="13.444905">
        <ele>36.549383</ele>
        <time>2024-04-24T10:44:41.394Z</time>
      </trkpt>
      <trkpt lat="52.501180" lon="13.444835">
        <ele>36.691696</ele>
        <time>2024-04-24T10:44:43.781Z</time>
      </trkpt>
      <trkpt lat="52.501133" lon="13.444778">
        <ele>36.809845</ele>
        <time>2024-04-24T10:44:45.919Z</time>
      </trkpt>
      <trkpt lat="52.500992" lon="13.444535">
        <ele>37.223139</ele>
        <time>2024-04-24T10:44:54.126Z</time>
      </trkpt>
      <trkpt lat="52.500867" lon="13.444549">
        <ele>37.476524</ele>
        <time>2024-04-24T10:44:59.445Z</time>
      </trkpt>
      <trkpt lat="52.500774" lon="13.444475">
        <ele>37.649633</ele>
        <time>2024-04-24T10:45:04.101Z</time>
      </trkpt>
      <trkpt lat="52.500679" lon="13.444489">
        <ele>37.749500</ele>
        <time>2024-04-24T10:45:07.784Z</time>
      </trkpt>
      <trkpt lat="52.500596" lon="13.444423">
        <ele>37.846049</ele>
        <time>2024-04-24T10:45:10.468Z</time>
      </trkpt>
      <trkpt lat="52.500517" lon="13.444345">
        <ele>37.942555</ele>
        <time>2024-04-24T10:45:12.802Z</time>
      </trkpt>
      <trkpt lat="52.500184" lon="13.444017">
        <ele>38.349090</ele>
        <time>2024-04-24T10:45:22.260Z</time>
      </trkpt>
      <trkpt lat="52.500074" lon="13.443907">
        <ele>38.483925</ele>
        <time>2024-04-24T10:45:25.937Z</time>
      </trkpt>
      <trkpt lat="52.499809" lon="13.444402">
        <ele>38.904080</ele>
        <time>2024-04-24T10:45:36.516Z</time>
      </trkpt>
      <trkpt lat="52.499769" lon="13.444477">
        <ele>38.967635</ele>
        <time>2024-04-24T10:45:38.267Z</time>
      </trkpt>
      <trkpt lat="52.499572" lon="13.444845">
        <ele>39.279987</ele>
        <time>2024-04-24T10:45:47.018Z</time>
      </trkpt>
      <trkpt lat="52.499540" lon="13.444905">
        <ele>39.330831</ele>
        <time>2024-04-24T10:45:48.197Z</time>
      </trkpt>
      <trkpt lat="52.499493" lon="13.444994">
        <ele>39.405929</ele>
        <time>2024-04-24T10:45:49.765Z</time>
      </trkpt>
      <trkpt lat="52.499409" lon="13.445149">
        <ele>39.468381</ele>
        <time>2024-04-24T10:45:52.122Z</time>
      </trkpt>
      <trkpt lat="52.499254" lon="13.445441">
        <ele>39.322178</ele>
        <time>2024-04-24T10:45:58.523Z</time>
      </trkpt>
      <trkpt lat="52.499097" lon="13.445716">
        <ele>39.179902</ele>
        <time>2024-04-24T10:46:03.434Z</time>
      </trkpt>
      <trkpt lat="52.498957" lon="13.445961">
        <ele>39.053093</ele>
        <time>2024-04-24T10:46:07.793Z</time>
      </trkpt>
      <trkpt lat="52.498804" lon="13.446230">
        <ele>38.914164</ele>
        <time>2024-04-24T10:46:12.446Z</time>
      </trkpt>
      <trkpt lat="52.498794" lon="13.446247">
        <ele>38.905243</ele>
        <time>2024-04-24T10:46:12.767Z</time>
      </trkpt>
      <trkpt lat="52.498769" lon="13.446292">
        <ele>38.882252</ele>
        <time>2024-04-24T10:46:13.542Z</time>
      </trkpt>
      <trkpt lat="52.498763" lon="13.446302">
        <ele>38.876954</ele>
        <time>2024-04-24T10:46:13.699Z</time>
      </trkpt>
      <trkpt lat="52.498662" lon="13.446480">
        <ele>38.785125</ele>
        <time>2024-04-24T10:46:16.294Z</time>
      </trkpt>
      <trkpt lat="52.498643" lon="13.446513">
        <ele>38.767984</ele>
        <time>2024-04-24T10:46:16.867Z</time>
      </trkpt>
      <trkpt lat="52.498624" lon="13.446547">
        <ele>38.750566</ele>
        <time>2024-04-24T10:46:17.423Z</time>
      </trkpt>
      <trkpt lat="52.498524" lon="13.446721">
        <ele>38.660263</ele>
        <time>2024-04-24T10:46:20.210Z</time>
      </trkpt>
      <trkpt lat="52.498429" lon="13.446888">
        <ele>38.574006</ele>
        <time>2024-04-24T10:46:22.559Z</time>
      </trkpt>
      <trkpt lat="52.498361" lon="13.447007">
        <ele>38.512413</ele>
        <time>2024-04-24T10:46:24.500Z</time>
      </trkpt>
      <trkpt lat="52.498314" lon="13.447094">
        <ele>38.468517</ele>
        <time>2024-04-24T10:46:26.059Z</time>
      </trkpt>
      <trkpt lat="52.498217" lon="13.447270">
        <ele>38.378551</ele>
        <time>2024-04-24T10:46:29.119Z</time>
      </trkpt>
      <trkpt lat="52.498118" lon="13.447445">
        <ele>38.212068</ele>
        <time>2024-04-24T10:46:32.295Z</time>
      </trkpt>
      <trkpt lat="52.498011" lon="13.447625">
        <ele>38.036745</ele>
        <time>2024-04-24T10:46:36.071Z</time>
      </trkpt>
      <trkpt lat="52.497966" lon="13.447696">
        <ele>37.965318</ele>
        <time>2024-04-24T10:46:37.406Z</time>
      </trkpt>
      <trkpt lat="52.497793" lon="13.447965">
        <ele>37.692623</ele>
        <time>2024-04-24T10:46:42.578Z</time>
      </trkpt>
      <trkpt lat="52.497692" lon="13.448123">
        <ele>37.532962</ele>
        <time>2024-04-24T10:46:45.291Z</time>
      </trkpt>
      <trkpt lat="52.497626" lon="13.448223">
        <ele>37.430176</ele>
        <time>2024-04-24T10:46:47.038Z</time>
      </trkpt>
      <trkpt lat="52.497561" lon="13.448335">
        <ele>37.322340</ele>
        <time>2024-04-24T10:46:48.787Z</time>
      </trkpt>
      <trkpt lat="52.497530" lon="13.448390">
        <ele>37.270105</ele>
        <time>2024-04-24T10:46:49.691Z</time>
      </trkpt>
      <trkpt lat="52.497469" lon="13.448499">
        <ele>37.166924</ele>
        <time>2024-04-24T10:46:51.344Z</time>
      </trkpt>
      <trkpt lat="52.497325" lon="13.448741">
        <ele>36.931094</ele>
        <time>2024-04-24T10:46:55.158Z</time>
      </trkpt>
      <trkpt lat="52.497262" lon="13.448852">
        <ele>36.825335</ele>
        <time>2024-04-24T10:46:56.991Z</time>
      </trkpt>
      <trkpt lat="52.497234" lon="13.448904">
        <ele>36.776955</ele>
        <time>2024-04-24T10:46:57.837Z</time>
      </trkpt>
      <trkpt lat="52.497152" lon="13.449041">
        <ele>36.643063</ele>
        <time>2024-04-24T10:47:00.286Z</time>
      </trkpt>
      <trkpt lat="52.496965" lon="13.449362">
        <ele>36.333436</ele>
        <time>2024-04-24T10:47:05.252Z</time>
      </trkpt>
      <trkpt lat="52.496850" lon="13.449560">
        <ele>36.232790</ele>
        <time>2024-04-24T10:47:08.433Z</time>
      </trkpt>
      <trkpt lat="52.496664" lon="13.449684">
        <ele>36.119483</ele>
        <time>2024-04-24T10:47:12.137Z</time>
      </trkpt>
      <trkpt lat="52.496454" lon="13.450029">
        <ele>35.951832</ele>
        <time>2024-04-24T10:47:20.020Z</time>
      </trkpt>
      <trkpt lat="52.496425" lon="13.450077">
        <ele>35.928593</ele>
        <time>2024-04-24T10:47:21.147Z</time>
      </trkpt>
      <trkpt lat="52.496345" lon="13.449976">
        <ele>35.871638</ele>
        <time>2024-04-24T10:47:23.668Z</time>
      </trkpt>
      <trkpt lat="52.496167" lon="13.449729">
        <ele>35.740110</ele>
        <time>2024-04-24T10:47:28.835Z</time>
      </trkpt>
      <trkpt lat="52.495862" lon="13.449316">
        <ele>35.516989</ele>
        <time>2024-04-24T10:47:37.794Z</time>
      </trkpt>
      <trkpt lat="52.495207" lon="13.448444">
        <ele>35.270546</ele>
        <time>2024-04-24T10:47:56.108Z</time>
      </trkpt>
      <trkpt lat="52.494881" lon="13.447996">
        <ele>35.239111</ele>
        <time>2024-04-24T10:48:05.462Z</time>
      </trkpt>
      <trkpt lat="52.494779" lon="13.447858">
        <ele>35.229339</ele>
        <time>2024-04-24T10:48:08.492Z</time>
      </trkpt>
      <trkpt lat="52.494643" lon="13.447469">
        <ele>35.209141</ele>
        <time>2024-04-24T10:48:14.611Z</time>
      </trkpt>
      <trkpt lat="52.494612" lon="13.447004">
        <ele>35.188079</ele>
        <time>2024-04-24T10:48:20.897Z</time>
      </trkpt>
      <trkpt lat="52.494639" lon="13.446691">
        <ele>35.173846</ele>
        <time>2024-04-24T10:48:25.157Z</time>
      </trkpt>
      <trkpt lat="52.494645" lon="13.446219">
        <ele>35.170456</ele>
        <time>2024-04-24T10:48:31.430Z</time>
      </trkpt>
      <trkpt lat="52.494599" lon="13.445786">
        <ele>35.168764</ele>
        <time>2024-04-24T10:48:37.307Z</time>
      </trkpt>
      <trkpt lat="52.494486" lon="13.445309">
        <ele>35.166793</ele>
        <time>2024-04-24T10:48:44.150Z</time>
      </trkpt>
      <trkpt lat="52.494350" lon="13.444961">
        <ele>35.165200</ele>
        <time>2024-04-24T10:48:49.732Z</time>
      </trkpt>
      <trkpt lat="52.494193" lon="13.444664">
        <ele>35.163686</ele>
        <time>2024-04-24T10:48:55.086Z</time>
      </trkpt>
      <trkpt lat="52.494072" lon="13.444542">
        <ele>35.162788</ele>
        <time>2024-04-24T10:48:58.379Z</time>
      </trkpt>
      <trkpt lat="52.494060" lon="13.444532">
        <ele>35.162703</ele>
        <time>2024-04-24T10:48:58.688Z</time>
      </trkpt>
      <trkpt lat="52.493874" lon="13.444309">
        <ele>35.161247</ele>
        <time>2024-04-24T10:49:03.843Z</time>
      </trkpt>
      <trkpt lat="52.493675" lon="13.444174">
        <ele>35.175922</ele>
        <time>2024-04-24T10:49:08.786Z</time>
      </trkpt>
      <trkpt lat="52.492945" lon="13.443255">
        <ele>35.277736</ele>
        <time>2024-04-24T10:49:29.165Z</time>
      </trkpt>
      <trkpt lat="52.491838" lon="13.441817">
        <ele>35.711124</ele>
        <time>2024-04-24T10:50:02.114Z</time>
      </trkpt>
      <trkpt lat="52.491538" lon="13.441425">
        <ele>35.912244</ele>
        <time>2024-04-24T10:50:11.229Z</time>
      </trkpt>
      <trkpt lat="52.491199" lon="13.440983">
        <ele>36.139319</ele>
        <time>2024-04-24T10:50:21.814Z</time>
      </trkpt>
      <trkpt lat="52.490559" lon="13.440149">
        <ele>37.154740</ele>
        <time>2024-04-24T10:50:45.070Z</time>
      </trkpt>
      <trkpt lat="52.490382" lon="13.439979">
        <ele>37.500988</ele>
        <time>2024-04-24T10:50:52.221Z</time>
      </trkpt>
      <trkpt lat="52.490221" lon="13.439905">
        <ele>37.783304</ele>
        <time>2024-04-24T10:50:57.226Z</time>
      </trkpt>
      <trkpt lat="52.490053" lon="13.439890">
        <ele>38.067414</ele>
        <time>2024-04-24T10:51:03.206Z</time>
      </trkpt>
      <trkpt lat="52.490015" lon="13.439895">
        <ele>38.131788</ele>
        <time>2024-04-24T10:51:04.355Z</time>
      </trkpt>
      <trkpt lat="52.489821" lon="13.439977">
        <ele>38.470060</ele>
        <time>2024-04-24T10:51:10.419Z</time>
      </trkpt>
      <trkpt lat="52.489765" lon="13.440045">
        <ele>38.587665</ele>
        <time>2024-04-24T10:51:12.771Z</time>
      </trkpt>
      <trkpt lat="52.489753" lon="13.440065">
        <ele>38.616535</ele>
        <time>2024-04-24T10:51:13.400Z</time>
      </trkpt>
      <trkpt lat="52.489718" lon="13.440124">
        <ele>38.701230</ele>
        <time>2024-04-24T10:51:15.089Z</time>
      </trkpt>
      <trkpt lat="52.489627" lon="13.439995">
        <ele>38.904225</ele>
        <time>2024-04-24T10:51:18.152Z</time>
      </trkpt>
      <trkpt lat="52.489561" lon="13.440116">
        <ele>39.071258</ele>
        <time>2024-04-24T10:51:21.727Z</time>
      </trkpt>
      <trkpt lat="52.489495" lon="13.440245">
        <ele>39.244505</ele>
        <time>2024-04-24T10:51:25.382Z</time>
      </trkpt>
      <trkpt lat="52.489406" lon="13.440421">
        <ele>39.429190</ele>
        <time>2024-04-24T10:51:29.375Z</time>
      </trkpt>
      <trkpt lat="52.489338" lon="13.440551">
        <ele>39.541336</ele>
        <time>2024-04-24T10:51:32.892Z</time>
      </trkpt>
      <trkpt lat="52.489325" lon="13.440577">
        <ele>39.563350</ele>
        <time>2024-04-24T10:51:33.591Z</time>
      </trkpt>
      <trkpt lat="52.489274" lon="13.440678">
        <ele>39.649210</ele>
        <time>2024-04-24T10:51:36.387Z</time>
      </trkpt>
      <trkpt lat="52.489009" lon="13.441196">
        <ele>40.091928</ele>
        <time>2024-04-24T10:51:49.404Z</time>
      </trkpt>
      <trkpt lat="52.488965" lon="13.441282">
        <ele>40.165432</ele>
        <time>2024-04-24T10:51:51.040Z</time>
      </trkpt>
      <trkpt lat="52.488571" lon="13.442055">
        <ele>40.825090</ele>
        <time>2024-04-24T10:52:08.563Z</time>
      </trkpt>
      <trkpt lat="52.488531" lon="13.442135">
        <ele>40.892828</ele>
        <time>2024-04-24T10:52:10.227Z</time>
      </trkpt>
      <trkpt lat="52.488481" lon="13.442232">
        <ele>40.975992</ele>
        <time>2024-04-24T10:52:12.204Z</time>
      </trkpt>
      <trkpt lat="52.488139" lon="13.442902">
        <ele>41.148276</ele>
        <time>2024-04-24T10:52:23.794Z</time>
      </trkpt>
      <trkpt lat="52.487898" lon="13.443372">
        <ele>40.964629</ele>
        <time>2024-04-24T10:52:31.542Z</time>
      </trkpt>
      <trkpt lat="52.487877" lon="13.443413">
        <ele>40.948616</ele>
        <time>2024-04-24T10:52:32.203Z</time>
      </trkpt>
      <trkpt lat="52.487809" lon="13.443547">
        <ele>40.896481</ele>
        <time>2024-04-24T10:52:34.473Z</time>
      </trkpt>
      <trkpt lat="52.487508" lon="13.444135">
        <ele>40.666885</ele>
        <time>2024-04-24T10:52:44.216Z</time>
      </trkpt>
      <trkpt lat="52.487482" lon="13.444187">
        <ele>40.646775</ele>
        <time>2024-04-24T10:52:45.087Z</time>
      </trkpt>
      <trkpt lat="52.487452" lon="13.444244">
        <ele>40.624256</ele>
        <time>2024-04-24T10:52:46.070Z</time>
      </trkpt>
      <trkpt lat="52.487503" lon="13.444322">
        <ele>40.590049</ele>
        <time>2024-04-24T10:52:47.424Z</time>
      </trkpt>
      <trkpt lat="52.487602" lon="13.444475">
        <ele>40.523322</ele>
        <time>2024-04-24T10:52:50.190Z</time>
      </trkpt>
      <trkpt lat="52.487767" lon="13.444730">
        <ele>40.412110</ele>
        <time>2024-04-24T10:52:54.719Z</time>
      </trkpt>
      <trkpt lat="52.488013" lon="13.445108">
        <ele>40.157289</ele>
        <time>2024-04-24T10:53:01.430Z</time>
      </trkpt>
      <trkpt lat="52.488510" lon="13.445875">
        <ele>39.614621</ele>
        <time>2024-04-24T10:53:15.071Z</time>
      </trkpt>
      <trkpt lat="52.488814" lon="13.446351">
        <ele>39.280407</ele>
        <time>2024-04-24T10:53:23.302Z</time>
      </trkpt>
      <trkpt lat="52.488847" lon="13.446401">
        <ele>39.244681</ele>
        <time>2024-04-24T10:53:24.224Z</time>
      </trkpt>
      <trkpt lat="52.489016" lon="13.446666">
        <ele>39.058758</ele>
        <time>2024-04-24T10:53:29.413Z</time>
      </trkpt>
      <trkpt lat="52.489080" lon="13.446765">
        <ele>38.988801</ele>
        <time>2024-04-24T10:53:31.157Z</time>
      </trkpt>
      <trkpt lat="52.489004" lon="13.446873">
        <ele>38.950872</ele>
        <time>2024-04-24T10:53:33.436Z</time>
      </trkpt>
      <trkpt lat="52.488596" lon="13.447669">
        <ele>38.863921</ele>
        <time>2024-04-24T10:53:46.932Z</time>
      </trkpt>
      <trkpt lat="52.488548" lon="13.447761">
        <ele>38.853796</ele>
        <time>2024-04-24T10:53:48.473Z</time>
      </trkpt>
      <trkpt lat="52.488428" lon="13.447996">
        <ele>38.828165</ele>
        <time>2024-04-24T10:53:52.626Z</time>
      </trkpt>
      <trkpt lat="52.488104" lon="13.448632">
        <ele>38.758866</ele>
        <time>2024-04-24T10:54:03.517Z</time>
      </trkpt>
      <trkpt lat="52.488047" lon="13.448744">
        <ele>38.746668</ele>
        <time>2024-04-24T10:54:05.809Z</time>
      </trkpt>
      <trkpt lat="52.487996" lon="13.448857">
        <ele>38.734913</ele>
        <time>2024-04-24T10:54:07.997Z</time>
      </trkpt>
      <trkpt lat="52.487842" lon="13.449174">
        <ele>38.733299</ele>
        <time>2024-04-24T10:54:13.801Z</time>
      </trkpt>
      <trkpt lat="52.487196" lon="13.450326">
        <ele>38.961624</ele>
        <time>2024-04-24T10:54:36.974Z</time>
      </trkpt>
      <trkpt lat="52.487168" lon="13.450523">
        <ele>38.991118</ele>
        <time>2024-04-24T10:54:39.922Z</time>
      </trkpt>
      <trkpt lat="52.487154" lon="13.450629">
        <ele>39.006932</ele>
        <time>2024-04-24T10:54:41.579Z</time>
      </trkpt>
      <trkpt lat="52.487141" lon="13.450654">
        <ele>39.011725</ele>
        <time>2024-04-24T10:54:42.038Z</time>
      </trkpt>
      <trkpt lat="52.487051" lon="13.450828">
        <ele>39.045011</ele>
        <time>2024-04-24T10:54:45.049Z</time>
      </trkpt>
      <trkpt lat="52.486901" lon="13.451116">
        <ele>39.100264</ele>
        <time>2024-04-24T10:54:50.564Z</time>
      </trkpt>
      <trkpt lat="52.486849" lon="13.451210">
        <ele>39.118780</ele>
        <time>2024-04-24T10:54:52.242Z</time>
      </trkpt>
      <trkpt lat="52.486820" lon="13.451268">
        <ele>39.129722</ele>
        <time>2024-04-24T10:54:53.307Z</time>
      </trkpt>
      <trkpt lat="52.486223" lon="13.452423">
        <ele>38.917830</ele>
        <time>2024-04-24T10:55:13.454Z</time>
      </trkpt>
      <trkpt lat="52.486201" lon="13.452465">
        <ele>38.909035</ele>
        <time>2024-04-24T10:55:14.154Z</time>
      </trkpt>
      <trkpt lat="52.486146" lon="13.452570">
        <ele>38.887045</ele>
        <time>2024-04-24T10:55:15.879Z</time>
      </trkpt>
      <trkpt lat="52.486122" lon="13.452618">
        <ele>38.877185</ele>
        <time>2024-04-24T10:55:16.688Z</time>
      </trkpt>
      <trkpt lat="52.485951" lon="13.452949">
        <ele>38.808270</ele>
        <time>2024-04-24T10:55:22.341Z</time>
      </trkpt>
      <trkpt lat="52.485877" lon="13.453090">
        <ele>38.778717</ele>
        <time>2024-04-24T10:55:24.728Z</time>
      </trkpt>
      <trkpt lat="52.485700" lon="13.453432">
        <ele>38.707458</ele>
        <time>2024-04-24T10:55:30.572Z</time>
      </trkpt>
      <trkpt lat="52.485566" lon="13.453688">
        <ele>38.601986</ele>
        <time>2024-04-24T10:55:34.865Z</time>
      </trkpt>
      <trkpt lat="52.485250" lon="13.454315">
        <ele>38.147790</ele>
        <time>2024-04-24T10:55:45.120Z</time>
      </trkpt>
      <trkpt lat="52.485126" lon="13.454561">
        <ele>37.969577</ele>
        <time>2024-04-24T10:55:48.926Z</time>
      </trkpt>
      <trkpt lat="52.484955" lon="13.454900">
        <ele>37.723919</ele>
        <time>2024-04-24T10:55:54.270Z</time>
      </trkpt>
      <trkpt lat="52.484833" lon="13.455141">
        <ele>37.549023</ele>
        <time>2024-04-24T10:55:57.937Z</time>
      </trkpt>
      <trkpt lat="52.484753" lon="13.455296">
        <ele>37.435633</ele>
        <time>2024-04-24T10:56:00.412Z</time>
      </trkpt>
      <trkpt lat="52.484746" lon="13.455309">
        <ele>37.425949</ele>
        <time>2024-04-24T10:56:00.617Z</time>
      </trkpt>
      <trkpt lat="52.484670" lon="13.455458">
        <ele>37.317482</ele>
        <time>2024-04-24T10:56:02.877Z</time>
      </trkpt>
      <trkpt lat="52.484572" lon="13.455648">
        <ele>37.178526</ele>
        <time>2024-04-24T10:56:05.790Z</time>
      </trkpt>
      <trkpt lat="52.484307" lon="13.456163">
        <ele>36.905324</ele>
        <time>2024-04-24T10:56:14.016Z</time>
      </trkpt>
      <trkpt lat="52.484259" lon="13.456255">
        <ele>36.868833</ele>
        <time>2024-04-24T10:56:15.524Z</time>
      </trkpt>
      <trkpt lat="52.484308" lon="13.456318">
        <ele>36.838052</ele>
        <time>2024-04-24T10:56:16.769Z</time>
      </trkpt>
      <trkpt lat="52.484449" lon="13.456503">
        <ele>36.748782</ele>
        <time>2024-04-24T10:56:20.476Z</time>
      </trkpt>
      <trkpt lat="52.484738" lon="13.456883">
        <ele>36.565658</ele>
        <time>2024-04-24T10:56:27.974Z</time>
      </trkpt>
      <trkpt lat="52.484910" lon="13.457113">
        <ele>36.455945</ele>
        <time>2024-04-24T10:56:32.692Z</time>
      </trkpt>
      <trkpt lat="52.485065" lon="13.457316">
        <ele>36.357881</ele>
        <time>2024-04-24T10:56:36.900Z</time>
      </trkpt>
      <trkpt lat="52.485370" lon="13.457719">
        <ele>36.164250</ele>
        <time>2024-04-24T10:56:45.606Z</time>
      </trkpt>
      <trkpt lat="52.485550" lon="13.457956">
        <ele>36.143328</ele>
        <time>2024-04-24T10:56:50.617Z</time>
      </trkpt>
      <trkpt lat="52.485764" lon="13.458244">
        <ele>36.154071</ele>
        <time>2024-04-24T10:56:57.574Z</time>
      </trkpt>
      <trkpt lat="52.485841" lon="13.458348">
        <ele>36.157942</ele>
        <time>2024-04-24T10:56:59.749Z</time>
      </trkpt>
      <trkpt lat="52.485763" lon="13.458458">
        <ele>36.161934</ele>
        <time>2024-04-24T10:57:02.359Z</time>
      </trkpt>
      <trkpt lat="52.485701" lon="13.458545">
        <ele>36.165101</ele>
        <time>2024-04-24T10:57:04.310Z</time>
      </trkpt>
      <trkpt lat="52.485318" lon="13.459083">
        <ele>36.184669</ele>
        <time>2024-04-24T10:57:15.323Z</time>
      </trkpt>
      <trkpt lat="52.485292" lon="13.459119">
        <ele>36.185990</ele>
        <time>2024-04-24T10:57:16.050Z</time>
      </trkpt>
      <trkpt lat="52.485243" lon="13.459189">
        <ele>36.188512</ele>
        <time>2024-04-24T10:57:17.667Z</time>
      </trkpt>
      <trkpt lat="52.484760" lon="13.459910">
        <ele>36.194872</ele>
        <time>2024-04-24T10:57:32.059Z</time>
      </trkpt>
      <trkpt lat="52.484683" lon="13.460026">
        <ele>36.188625</ele>
        <time>2024-04-24T10:57:34.703Z</time>
      </trkpt>
      <trkpt lat="52.484217" lon="13.460712">
        <ele>36.151213</ele>
        <time>2024-04-24T10:57:48.544Z</time>
      </trkpt>
      <trkpt lat="52.484060" lon="13.460946">
        <ele>36.138538</ele>
        <time>2024-04-24T10:57:53.226Z</time>
      </trkpt>
      <trkpt lat="52.483974" lon="13.461068">
        <ele>36.131744</ele>
        <time>2024-04-24T10:57:55.761Z</time>
      </trkpt>
      <trkpt lat="52.483727" lon="13.461415">
        <ele>36.112312</ele>
        <time>2024-04-24T10:58:03.110Z</time>
      </trkpt>
      <trkpt lat="52.483202" lon="13.462161">
        <ele>35.962414</ele>
        <time>2024-04-24T10:58:17.863Z</time>
      </trkpt>
      <trkpt lat="52.482673" lon="13.462911">
        <ele>35.759182</ele>
        <time>2024-04-24T10:58:32.982Z</time>
      </trkpt>
      <trkpt lat="52.482111" lon="13.463708">
        <ele>35.481922</ele>
        <time>2024-04-24T10:58:49.049Z</time>
      </trkpt>
      <trkpt lat="52.481873" lon="13.464046">
        <ele>35.218226</ele>
        <time>2024-04-24T10:58:55.479Z</time>
      </trkpt>
      <trkpt lat="52.481805" lon="13.464141">
        <ele>35.143406</ele>
        <time>2024-04-24T10:58:57.243Z</time>
      </trkpt>
      <trkpt lat="52.481755" lon="13.464212">
        <ele>35.088010</ele>
        <time>2024-04-24T10:58:58.535Z</time>
      </trkpt>
      <trkpt lat="52.481583" lon="13.464455">
        <ele>34.897862</ele>
        <time>2024-04-24T10:59:03.027Z</time>
      </trkpt>
      <trkpt lat="52.481260" lon="13.464912">
        <ele>34.540558</ele>
        <time>2024-04-24T10:59:11.230Z</time>
      </trkpt>
      <trkpt lat="52.480722" lon="13.465675">
        <ele>33.981331</ele>
        <time>2024-04-24T10:59:25.642Z</time>
      </trkpt>
      <trkpt lat="52.480407" lon="13.466124">
        <ele>33.734930</ele>
        <time>2024-04-24T10:59:34.273Z</time>
      </trkpt>
      <trkpt lat="52.480325" lon="13.466232">
        <ele>33.672835</ele>
        <time>2024-04-24T10:59:36.416Z</time>
      </trkpt>
      <trkpt lat="52.479395" lon="13.467539">
        <ele>32.975095</ele>
        <time>2024-04-24T11:00:01.845Z</time>
      </trkpt>
      <trkpt lat="52.478861" lon="13.468286">
        <ele>32.747184</ele>
        <time>2024-04-24T11:00:16.901Z</time>
      </trkpt>
      <trkpt lat="52.477483" lon="13.470184">
        <ele>32.262166</ele>
        <time>2024-04-24T11:00:55.519Z</time>
      </trkpt>
      <trkpt lat="52.476748" lon="13.471228">
        <ele>32.067554</ele>
        <time>2024-04-24T11:01:16.580Z</time>
      </trkpt>
      <trkpt lat="52.476673" lon="13.471335">
        <ele>32.082122</ele>
        <time>2024-04-24T11:01:18.760Z</time>
      </trkpt>
      <trkpt lat="52.476617" lon="13.471237">
        <ele>32.106277</ele>
        <time>2024-04-24T11:01:20.622Z</time>
      </trkpt>
      <trkpt lat="52.476429" lon="13.470983">
        <ele>32.178130</ele>
        <time>2024-04-24T11:01:26.111Z</time>
      </trkpt>
      <trkpt lat="52.475662" lon="13.470847">
        <ele>32.405801</ele>
        <time>2024-04-24T11:01:44.418Z</time>
      </trkpt>
      <trkpt lat="52.475306" lon="13.470599">
        <ele>32.519930</ele>
        <time>2024-04-24T11:01:54.034Z</time>
      </trkpt>
      <trkpt lat="52.475130" lon="13.470529">
        <ele>32.573373</ele>
        <time>2024-04-24T11:01:58.551Z</time>
      </trkpt>
      <trkpt lat="52.474488" lon="13.470403">
        <ele>32.870358</ele>
        <time>2024-04-24T11:02:15.154Z</time>
      </trkpt>
      <trkpt lat="52.474072" lon="13.470066">
        <ele>33.091871</ele>
        <time>2024-04-24T11:02:26.670Z</time>
      </trkpt>
      <trkpt lat="52.473935" lon="13.470063">
        <ele>33.157296</ele>
        <time>2024-04-24T11:02:30.165Z</time>
      </trkpt>
      <trkpt lat="52.473716" lon="13.470156">
        <ele>33.265313</ele>
        <time>2024-04-24T11:02:35.502Z</time>
      </trkpt>
      <trkpt lat="52.473602" lon="13.470186">
        <ele>33.320444</ele>
        <time>2024-04-24T11:02:38.410Z</time>
      </trkpt>
      <trkpt lat="52.473233" lon="13.470165">
        <ele>33.470629</ele>
        <time>2024-04-24T11:02:47.159Z</time>
      </trkpt>
      <trkpt lat="52.473154" lon="13.470280">
        <ele>33.492087</ele>
        <time>2024-04-24T11:02:49.490Z</time>
      </trkpt>
      <trkpt lat="52.473091" lon="13.470361">
        <ele>33.508349</ele>
        <time>2024-04-24T11:02:51.306Z</time>
      </trkpt>
      <trkpt lat="52.472795" lon="13.470696">
        <ele>33.581413</ele>
        <time>2024-04-24T11:02:59.704Z</time>
      </trkpt>
      <trkpt lat="52.472702" lon="13.471008">
        <ele>33.624413</ele>
        <time>2024-04-24T11:03:04.699Z</time>
      </trkpt>
      <trkpt lat="52.472342" lon="13.471096">
        <ele>33.698380</ele>
        <time>2024-04-24T11:03:12.970Z</time>
      </trkpt>
      <trkpt lat="52.472255" lon="13.471164">
        <ele>33.717963</ele>
        <time>2024-04-24T11:03:15.098Z</time>
      </trkpt>
      <trkpt lat="52.472013" lon="13.471529">
        <ele>33.784749</ele>
        <time>2024-04-24T11:03:22.501Z</time>
      </trkpt>
      <trkpt lat="52.471959" lon="13.471675">
        <ele>33.805893</ele>
        <time>2024-04-24T11:03:24.801Z</time>
      </trkpt>
      <trkpt lat="52.471856" lon="13.471845">
        <ele>33.860775</ele>
        <time>2024-04-24T11:03:28.201Z</time>
      </trkpt>
      <trkpt lat="52.471722" lon="13.472186">
        <ele>33.978445</ele>
        <time>2024-04-24T11:03:34.311Z</time>
      </trkpt>
      <trkpt lat="52.471635" lon="13.472318">
        <ele>34.034839</ele>
        <time>2024-04-24T11:03:37.217Z</time>
      </trkpt>
      <trkpt lat="52.471146" lon="13.472707">
        <ele>34.293507</ele>
        <time>2024-04-24T11:03:50.837Z</time>
      </trkpt>
      <trkpt lat="52.470992" lon="13.472939">
        <ele>34.393006</ele>
        <time>2024-04-24T11:03:55.938Z</time>
      </trkpt>
      <trkpt lat="52.470920" lon="13.472943">
        <ele>34.427300</ele>
        <time>2024-04-24T11:03:57.720Z</time>
      </trkpt>
      <trkpt lat="52.470729" lon="13.472871">
        <ele>34.520588</ele>
        <time>2024-04-24T11:04:02.589Z</time>
      </trkpt>
      <trkpt lat="52.470668" lon="13.472843">
        <ele>34.550739</ele>
        <time>2024-04-24T11:04:04.098Z</time>
      </trkpt>
      <trkpt lat="52.470581" lon="13.472856">
        <ele>34.592325</ele>
        <time>2024-04-24T11:04:06.272Z</time>
      </trkpt>
      <trkpt lat="52.470430" lon="13.472725">
        <ele>34.673736</ele>
        <time>2024-04-24T11:04:10.703Z</time>
      </trkpt>
      <trkpt lat="52.470368" lon="13.472766">
        <ele>34.711249</ele>
        <time>2024-04-24T11:04:12.338Z</time>
      </trkpt>
      <trkpt lat="52.470233" lon="13.472892">
        <ele>34.798405</ele>
        <time>2024-04-24T11:04:23.122Z</time>
      </trkpt>
      <trkpt lat="52.470136" lon="13.473035">
        <ele>34.871575</ele>
        <time>2024-04-24T11:04:26.508Z</time>
      </trkpt>
      <trkpt lat="52.470114" lon="13.473345">
        <ele>34.978277</ele>
        <time>2024-04-24T11:04:31.323Z</time>
      </trkpt>
      <trkpt lat="52.469848" lon="13.473640">
        <ele>35.158440</ele>
        <time>2024-04-24T11:04:39.477Z</time>
      </trkpt>
      <trkpt lat="52.469546" lon="13.474130">
        <ele>35.396751</ele>
        <time>2024-04-24T11:04:50.297Z</time>
      </trkpt>
      <trkpt lat="52.469330" lon="13.474195">
        <ele>35.519997</ele>
        <time>2024-04-24T11:04:55.795Z</time>
      </trkpt>
      <trkpt lat="52.469214" lon="13.474218">
        <ele>35.585572</ele>
        <time>2024-04-24T11:04:58.602Z</time>
      </trkpt>
      <trkpt lat="52.468857" lon="13.474667">
        <ele>35.758246</ele>
        <time>2024-04-24T11:05:09.218Z</time>
      </trkpt>
      <trkpt lat="52.468543" lon="13.474951">
        <ele>35.856297</ele>
        <time>2024-04-24T11:05:17.799Z</time>
      </trkpt>
      <trkpt lat="52.468477" lon="13.475084">
        <ele>35.884878</ele>
        <time>2024-04-24T11:05:20.343Z</time>
      </trkpt>
      <trkpt lat="52.468356" lon="13.475446">
        <ele>35.953674</ele>
        <time>2024-04-24T11:05:26.495Z</time>
      </trkpt>
      <trkpt lat="52.468241" lon="13.475616">
        <ele>35.996000</ele>
        <time>2024-04-24T11:05:30.235Z</time>
      </trkpt>
      <trkpt lat="52.467938" lon="13.475934">
        <ele>36.094359</ele>
        <time>2024-04-24T11:05:38.741Z</time>
      </trkpt>
      <trkpt lat="52.467517" lon="13.476178">
        <ele>36.161058</ele>
        <time>2024-04-24T11:05:48.673Z</time>
      </trkpt>
      <trkpt lat="52.466840" lon="13.477133">
        <ele>36.083789</ele>
        <time>2024-04-24T11:06:08.410Z</time>
      </trkpt>
      <trkpt lat="52.466487" lon="13.477318">
        <ele>36.051713</ele>
        <time>2024-04-24T11:06:16.473Z</time>
      </trkpt>
      <trkpt lat="52.466394" lon="13.477407">
        <ele>36.042394</ele>
        <time>2024-04-24T11:06:18.797Z</time>
      </trkpt>
      <trkpt lat="52.466055" lon="13.477973">
        <ele>35.988510</ele>
        <time>2024-04-24T11:06:29.196Z</time>
      </trkpt>
      <trkpt lat="52.465326" lon="13.478611">
        <ele>35.869603</ele>
        <time>2024-04-24T11:06:46.924Z</time>
      </trkpt>
      <trkpt lat="52.465016" lon="13.478749">
        <ele>35.823374</ele>
        <time>2024-04-24T11:06:54.002Z</time>
      </trkpt>
      <trkpt lat="52.464881" lon="13.478858">
        <ele>35.801720</ele>
        <time>2024-04-24T11:06:57.427Z</time>
      </trkpt>
      <trkpt lat="52.464639" lon="13.479141">
        <ele>35.760861</ele>
        <time>2024-04-24T11:07:04.263Z</time>
      </trkpt>
      <trkpt lat="52.464478" lon="13.479185">
        <ele>35.789726</ele>
        <time>2024-04-24T11:07:08.051Z</time>
      </trkpt>
      <trkpt lat="52.464334" lon="13.479109">
        <ele>35.816477</ele>
        <time>2024-04-24T11:07:11.368Z</time>
      </trkpt>
      <trkpt lat="52.464127" lon="13.478879">
        <ele>35.860685</ele>
        <time>2024-04-24T11:07:17.023Z</time>
      </trkpt>
      <trkpt lat="52.464105" lon="13.478857">
        <ele>35.865241</ele>
        <time>2024-04-24T11:07:17.590Z</time>
      </trkpt>
      <trkpt lat="52.464065" lon="13.478817">
        <ele>35.873524</ele>
        <time>2024-04-24T11:07:18.602Z</time>
      </trkpt>
      <trkpt lat="52.463733" lon="13.478703">
        <ele>35.933510</ele>
        <time>2024-04-24T11:07:26.318Z</time>
      </trkpt>
      <trkpt lat="52.463577" lon="13.478722">
        <ele>35.961175</ele>
        <time>2024-04-24T11:07:29.966Z</time>
      </trkpt>
      <trkpt lat="52.463360" lon="13.478710">
        <ele>35.999573</ele>
        <time>2024-04-24T11:07:35.034Z</time>
      </trkpt>
      <trkpt lat="52.463208" lon="13.478607">
        <ele>36.028656</ele>
        <time>2024-04-24T11:07:39.036Z</time>
      </trkpt>
      <trkpt lat="52.463079" lon="13.478252">
        <ele>36.073194</ele>
        <time>2024-04-24T11:07:45.190Z</time>
      </trkpt>
      <trkpt lat="52.462992" lon="13.478169">
        <ele>36.078276</ele>
        <time>2024-04-24T11:07:47.755Z</time>
      </trkpt>
      <trkpt lat="52.462756" lon="13.478067">
        <ele>36.079508</ele>
        <time>2024-04-24T11:07:53.637Z</time>
      </trkpt>
      <trkpt lat="52.462336" lon="13.477717">
        <ele>36.081887</ele>
        <time>2024-04-24T11:08:04.539Z</time>
      </trkpt>
      <trkpt lat="52.462216" lon="13.477623">
        <ele>36.082559</ele>
        <time>2024-04-24T11:08:07.545Z</time>
      </trkpt>
      <trkpt lat="52.462193" lon="13.477606">
        <ele>36.082686</ele>
        <time>2024-04-24T11:08:08.107Z</time>
      </trkpt>
      <trkpt lat="52.462140" lon="13.477567">
        <ele>36.082980</ele>
        <time>2024-04-24T11:08:09.401Z</time>
      </trkpt>
      <trkpt lat="52.462124" lon="13.477550">
        <ele>36.083076</ele>
        <time>2024-04-24T11:08:09.815Z</time>
      </trkpt>
      <trkpt lat="52.462051" lon="13.477476">
        <ele>36.083509</ele>
        <time>2024-04-24T11:08:11.692Z</time>
      </trkpt>
      <trkpt lat="52.461977" lon="13.477402">
        <ele>36.083947</ele>
        <time>2024-04-24T11:08:13.565Z</time>
      </trkpt>
      <trkpt lat="52.461910" lon="13.477344">
        <ele>36.084329</ele>
        <time>2024-04-24T11:08:15.178Z</time>
      </trkpt>
      <trkpt lat="52.461894" lon="13.477330">
        <ele>36.084421</ele>
        <time>2024-04-24T11:08:15.569Z</time>
      </trkpt>
      <trkpt lat="52.461803" lon="13.477267">
        <ele>36.084920</ele>
        <time>2024-04-24T11:08:17.660Z</time>
      </trkpt>
      <trkpt lat="52.461669" lon="13.477181">
        <ele>36.085647</ele>
        <time>2024-04-24T11:08:20.686Z</time>
      </trkpt>
      <trkpt lat="52.461565" lon="13.476981">
        <ele>36.086456</ele>
        <time>2024-04-24T11:08:24.101Z</time>
      </trkpt>
      <trkpt lat="52.461209" lon="13.476549">
        <ele>35.952419</ele>
        <time>2024-04-24T11:08:33.564Z</time>
      </trkpt>
      <trkpt lat="52.461051" lon="13.476358">
        <ele>35.874225</ele>
        <time>2024-04-24T11:08:37.722Z</time>
      </trkpt>
      <trkpt lat="52.460915" lon="13.476282">
        <ele>35.816977</ele>
        <time>2024-04-24T11:08:40.826Z</time>
      </trkpt>
      <trkpt lat="52.460575" lon="13.476188">
        <ele>35.679586</ele>
        <time>2024-04-24T11:08:48.127Z</time>
      </trkpt>
      <trkpt lat="52.460358" lon="13.476040">
        <ele>35.585947</ele>
        <time>2024-04-24T11:08:53.024Z</time>
      </trkpt>
      <trkpt lat="52.460184" lon="13.475867">
        <ele>35.504882</ele>
        <time>2024-04-24T11:08:57.259Z</time>
      </trkpt>
      <trkpt lat="52.460137" lon="13.475844">
        <ele>35.485338</ele>
        <time>2024-04-24T11:08:58.270Z</time>
      </trkpt>
      <trkpt lat="52.460156" lon="13.475514">
        <ele>35.404858</ele>
        <time>2024-04-24T11:09:02.468Z</time>
      </trkpt>
      <trkpt lat="52.460176" lon="13.475290">
        <ele>35.361842</ele>
        <time>2024-04-24T11:09:05.423Z</time>
      </trkpt>
      <trkpt lat="52.460184" lon="13.475203">
        <ele>35.353008</ele>
        <time>2024-04-24T11:09:06.561Z</time>
      </trkpt>
      <trkpt lat="52.460204" lon="13.474979">
        <ele>35.330276</ele>
        <time>2024-04-24T11:09:09.493Z</time>
      </trkpt>
      <trkpt lat="52.460290" lon="13.474619">
        <ele>35.291450</ele>
        <time>2024-04-24T11:09:14.842Z</time>
      </trkpt>
      <trkpt lat="52.460306" lon="13.474569">
        <ele>35.285779</ele>
        <time>2024-04-24T11:09:15.602Z</time>
      </trkpt>
      <trkpt lat="52.460322" lon="13.474517">
        <ele>35.279930</ele>
        <time>2024-04-24T11:09:16.342Z</time>
      </trkpt>
      <trkpt lat="52.460332" lon="13.474490">
        <ele>35.276758</ele>
        <time>2024-04-24T11:09:16.755Z</time>
      </trkpt>
      <trkpt lat="52.460464" lon="13.474146">
        <ele>35.235939</ele>
        <time>2024-04-24T11:09:22.286Z</time>
      </trkpt>
      <trkpt lat="52.460835" lon="13.473456">
        <ele>35.143540</ele>
        <time>2024-04-24T11:09:35.172Z</time>
      </trkpt>
      <trkpt lat="52.461091" lon="13.472995">
        <ele>35.080912</ele>
        <time>2024-04-24T11:09:44.768Z</time>
      </trkpt>
      <trkpt lat="52.461220" lon="13.472753">
        <ele>35.022387</ele>
        <time>2024-04-24T11:09:49.705Z</time>
      </trkpt>
      <trkpt lat="52.461163" lon="13.472668">
        <ele>34.996504</ele>
        <time>2024-04-24T11:09:51.368Z</time>
      </trkpt>
      <trkpt lat="52.461115" lon="13.472595">
        <ele>34.974511</ele>
        <time>2024-04-24T11:09:52.716Z</time>
      </trkpt>
      <trkpt lat="52.460906" lon="13.472287">
        <ele>34.880109</ele>
        <time>2024-04-24T11:09:58.496Z</time>
      </trkpt>
      <trkpt lat="52.460802" lon="13.472196">
        <ele>34.840499</ele>
        <time>2024-04-24T11:10:00.747Z</time>
      </trkpt>
      <trkpt lat="52.460535" lon="13.472126">
        <ele>34.749628</ele>
        <time>2024-04-24T11:10:06.394Z</time>
      </trkpt>
      <trkpt lat="52.460426" lon="13.472115">
        <ele>34.712925</ele>
        <time>2024-04-24T11:10:08.635Z</time>
      </trkpt>
      <trkpt lat="52.460329" lon="13.472105">
        <ele>34.680261</ele>
        <time>2024-04-24T11:10:10.756Z</time>
      </trkpt>
      <trkpt lat="52.460197" lon="13.472064">
        <ele>34.635111</ele>
        <time>2024-04-24T11:10:13.797Z</time>
      </trkpt>
      <trkpt lat="52.459715" lon="13.472024">
        <ele>34.472913</ele>
        <time>2024-04-24T11:10:24.036Z</time>
      </trkpt>
      <trkpt lat="52.459386" lon="13.472037">
        <ele>34.331543</ele>
        <time>2024-04-24T11:10:31.239Z</time>
      </trkpt>
      <trkpt lat="52.459288" lon="13.472034">
        <ele>34.289136</ele>
        <time>2024-04-24T11:10:33.198Z</time>
      </trkpt>
      <trkpt lat="52.459231" lon="13.472029">
        <ele>34.264439</ele>
        <time>2024-04-24T11:10:34.782Z</time>
      </trkpt>
      <trkpt lat="52.458872" lon="13.472006">
        <ele>34.108998</ele>
        <time>2024-04-24T11:10:42.288Z</time>
      </trkpt>
      <trkpt lat="52.458758" lon="13.471997">
        <ele>34.059618</ele>
        <time>2024-04-24T11:10:44.677Z</time>
      </trkpt>
      <trkpt lat="52.458382" lon="13.471963">
        <ele>33.896694</ele>
        <time>2024-04-24T11:10:52.169Z</time>
      </trkpt>
      <trkpt lat="52.458384" lon="13.471908">
        <ele>33.882168</ele>
        <time>2024-04-24T11:10:52.837Z</time>
      </trkpt>
      <trkpt lat="52.458385" lon="13.471869">
        <ele>33.871877</ele>
        <time>2024-04-24T11:10:53.315Z</time>
      </trkpt>
      <trkpt lat="52.458479" lon="13.471873">
        <ele>33.831194</ele>
        <time>2024-04-24T11:10:55.158Z</time>
      </trkpt>
      <trkpt lat="52.458675" lon="13.471790">
        <ele>33.743616</ele>
        <time>2024-04-24T11:10:59.470Z</time>
      </trkpt>
      <trkpt lat="52.458763" lon="13.471627">
        <ele>33.689090</ele>
        <time>2024-04-24T11:11:02.233Z</time>
      </trkpt>
      <trkpt lat="52.458765" lon="13.471398">
        <ele>33.663653</ele>
        <time>2024-04-24T11:11:05.801Z</time>
      </trkpt>
      <trkpt lat="52.458777" lon="13.471063">
        <ele>33.626383</ele>
        <time>2024-04-24T11:11:10.772Z</time>
      </trkpt>
      <trkpt lat="52.458787" lon="13.470665">
        <ele>33.582141</ele>
        <time>2024-04-24T11:11:16.285Z</time>
      </trkpt>
      <trkpt lat="52.458844" lon="13.468881">
        <ele>33.383731</ele>
        <time>2024-04-24T11:11:39.552Z</time>
      </trkpt>
      <trkpt lat="52.458866" lon="13.468187">
        <ele>33.350487</ele>
        <time>2024-04-24T11:11:48.876Z</time>
      </trkpt>
      <trkpt lat="52.458889" lon="13.465073">
        <ele>33.251519</ele>
        <time>2024-04-24T11:12:30.962Z</time>
      </trkpt>
      <trkpt lat="52.458919" lon="13.463071">
        <ele>33.139781</ele>
        <time>2024-04-24T11:12:57.623Z</time>
      </trkpt>
      <trkpt lat="52.458987" lon="13.461370">
        <ele>33.161888</ele>
        <time>2024-04-24T11:13:20.598Z</time>
      </trkpt>
      <trkpt lat="52.459030" lon="13.460294">
        <ele>33.190161</ele>
        <time>2024-04-24T11:13:35.930Z</time>
      </trkpt>
      <trkpt lat="52.459212" lon="13.459577">
        <ele>33.201112</ele>
        <time>2024-04-24T11:13:46.654Z</time>
      </trkpt>
      <trkpt lat="52.459232" lon="13.458776">
        <ele>33.199426</ele>
        <time>2024-04-24T11:13:57.653Z</time>
      </trkpt>
      <trkpt lat="52.459199" lon="13.458513">
        <ele>33.198862</ele>
        <time>2024-04-24T11:14:01.241Z</time>
      </trkpt>
      <trkpt lat="52.459143" lon="13.458306">
        <ele>33.198386</ele>
        <time>2024-04-24T11:14:04.478Z</time>
      </trkpt>
      <trkpt lat="52.459050" lon="13.458011">
        <ele>33.197687</ele>
        <time>2024-04-24T11:14:08.883Z</time>
      </trkpt>
      <trkpt lat="52.458856" lon="13.457679">
        <ele>33.196720</ele>
        <time>2024-04-24T11:14:15.189Z</time>
      </trkpt>
      <trkpt lat="52.458763" lon="13.457590">
        <ele>33.196349</ele>
        <time>2024-04-24T11:14:17.549Z</time>
      </trkpt>
      <trkpt lat="52.458589" lon="13.457589">
        <ele>33.195749</ele>
        <time>2024-04-24T11:14:21.442Z</time>
      </trkpt>
      <trkpt lat="52.458535" lon="13.457618">
        <ele>33.192051</ele>
        <time>2024-04-24T11:14:22.663Z</time>
      </trkpt>
      <trkpt lat="52.455869" lon="13.459616">
        <ele>32.538873</ele>
        <time>2024-04-24T11:15:25.800Z</time>
      </trkpt>
      <trkpt lat="52.454643" lon="13.460445">
        <ele>32.333585</ele>
        <time>2024-04-24T11:15:54.649Z</time>
      </trkpt>
      <trkpt lat="52.454330" lon="13.460560">
        <ele>32.299452</ele>
        <time>2024-04-24T11:16:01.705Z</time>
      </trkpt>
      <trkpt lat="52.454042" lon="13.460751">
        <ele>32.266395</ele>
        <time>2024-04-24T11:16:08.516Z</time>
      </trkpt>
      <trkpt lat="52.453828" lon="13.460964">
        <ele>32.239760</ele>
        <time>2024-04-24T11:16:14.103Z</time>
      </trkpt>
      <trkpt lat="52.453679" lon="13.461108">
        <ele>32.221358</ele>
        <time>2024-04-24T11:16:17.875Z</time>
      </trkpt>
      <trkpt lat="52.452139" lon="13.462114">
        <ele>32.261624</ele>
        <time>2024-04-24T11:16:54.882Z</time>
      </trkpt>
      <trkpt lat="52.451260" lon="13.462904">
        <ele>32.357436</ele>
        <time>2024-04-24T11:17:18.127Z</time>
      </trkpt>
      <trkpt lat="52.450259" lon="13.464105">
        <ele>32.455178</ele>
        <time>2024-04-24T11:17:45.997Z</time>
      </trkpt>
      <trkpt lat="52.449729" lon="13.464828">
        <ele>32.407684</ele>
        <time>2024-04-24T11:18:01.204Z</time>
      </trkpt>
      <trkpt lat="52.448968" lon="13.466072">
        <ele>32.324898</ele>
        <time>2024-04-24T11:18:24.511Z</time>
      </trkpt>
      <trkpt lat="52.443834" lon="13.476585">
        <ele>31.475967</ele>
        <time>2024-04-24T11:21:24.625Z</time>
      </trkpt>
      <trkpt lat="52.443090" lon="13.478109">
        <ele>31.420873</ele>
        <time>2024-04-24T11:21:51.359Z</time>
      </trkpt>
      <trkpt lat="52.442688" lon="13.478852">
        <ele>31.393280</ele>
        <time>2024-04-24T11:22:04.595Z</time>
      </trkpt>
      <trkpt lat="52.442589" lon="13.479146">
        <ele>31.383952</ele>
        <time>2024-04-24T11:22:09.297Z</time>
      </trkpt>
      <trkpt lat="52.441860" lon="13.480687">
        <ele>31.422056</ele>
        <time>2024-04-24T11:22:35.483Z</time>
      </trkpt>
      <trkpt lat="52.438567" lon="13.487559">
        <ele>31.943061</ele>
        <time>2024-04-24T11:24:37.161Z</time>
      </trkpt>
      <trkpt lat="52.436463" lon="13.491781">
        <ele>32.348695</ele>
        <time>2024-04-24T11:25:54.278Z</time>
      </trkpt>
      <trkpt lat="52.435898" lon="13.492964">
        <ele>32.102768</ele>
        <time>2024-04-24T11:26:13.966Z</time>
      </trkpt>
      <trkpt lat="52.434721" lon="13.495399">
        <ele>30.963551</ele>
        <time>2024-04-24T11:26:52.702Z</time>
      </trkpt>
      <trkpt lat="52.433835" lon="13.497194">
        <ele>30.229413</ele>
        <time>2024-04-24T11:27:21.209Z</time>
      </trkpt>
      <trkpt lat="52.433660" lon="13.497456">
        <ele>30.118013</ele>
        <time>2024-04-24T11:27:26.402Z</time>
      </trkpt>
      <trkpt lat="52.433405" lon="13.497977">
        <ele>29.926498</ele>
        <time>2024-04-24T11:27:35.409Z</time>
      </trkpt>
      <trkpt lat="52.433283" lon="13.498374">
        <ele>29.952265</ele>
        <time>2024-04-24T11:27:41.788Z</time>
      </trkpt>
      <trkpt lat="52.432926" lon="13.499106">
        <ele>30.112462</ele>
        <time>2024-04-24T11:27:55.257Z</time>
      </trkpt>
      <trkpt lat="52.430002" lon="13.505110">
        <ele>31.444961</ele>
        <time>2024-04-24T11:29:46.816Z</time>
      </trkpt>
      <trkpt lat="52.429452" lon="13.506354">
        <ele>31.546674</ele>
        <time>2024-04-24T11:30:08.298Z</time>
      </trkpt>
      <trkpt lat="52.428901" lon="13.507769">
        <ele>31.593448</ele>
        <time>2024-04-24T11:30:31.247Z</time>
      </trkpt>
      <trkpt lat="52.428325" lon="13.509431">
        <ele>31.389300</ele>
        <time>2024-04-24T11:30:56.373Z</time>
      </trkpt>
      <trkpt lat="52.427967" lon="13.510652">
        <ele>31.321013</ele>
        <time>2024-04-24T11:31:14.256Z</time>
      </trkpt>
      <trkpt lat="52.427721" lon="13.511615">
        <ele>31.325315</ele>
        <time>2024-04-24T11:31:28.527Z</time>
      </trkpt>
      <trkpt lat="52.427445" lon="13.512894">
        <ele>31.339202</ele>
        <time>2024-04-24T11:31:47.394Z</time>
      </trkpt>
      <trkpt lat="52.427302" lon="13.513759">
        <ele>31.396048</ele>
        <time>2024-04-24T11:32:00.148Z</time>
      </trkpt>
      <trkpt lat="52.427098" lon="13.515406">
        <ele>31.502649</ele>
        <time>2024-04-24T11:32:23.548Z</time>
      </trkpt>
      <trkpt lat="52.427000" lon="13.516206">
        <ele>31.445739</ele>
        <time>2024-04-24T11:32:34.384Z</time>
      </trkpt>
      <trkpt lat="52.426743" lon="13.519113">
        <ele>31.248717</ele>
        <time>2024-04-24T11:33:12.844Z</time>
      </trkpt>
      <trkpt lat="52.426668" lon="13.519546">
        <ele>31.322861</ele>
        <time>2024-04-24T11:33:19.428Z</time>
      </trkpt>
      <trkpt lat="52.426652" lon="13.519806">
        <ele>31.365905</ele>
        <time>2024-04-24T11:33:23.353Z</time>
      </trkpt>
      <trkpt lat="52.426774" lon="13.519802">
        <ele>31.398867</ele>
        <time>2024-04-24T11:33:27.187Z</time>
      </trkpt>
      <trkpt lat="52.426858" lon="13.519791">
        <ele>31.421629</ele>
        <time>2024-04-24T11:33:29.717Z</time>
      </trkpt>
      <trkpt lat="52.426914" lon="13.519726">
        <ele>31.440162</ele>
        <time>2024-04-24T11:33:31.263Z</time>
      </trkpt>
      <trkpt lat="52.426962" lon="13.519670">
        <ele>31.456074</ele>
        <time>2024-04-24T11:33:32.614Z</time>
      </trkpt>
      <trkpt lat="52.427074" lon="13.519420">
        <ele>31.507172</ele>
        <time>2024-04-24T11:33:36.929Z</time>
      </trkpt>
      <trkpt lat="52.427094" lon="13.519374">
        <ele>31.516478</ele>
        <time>2024-04-24T11:33:37.766Z</time>
      </trkpt>
      <trkpt lat="52.427060" lon="13.518628">
        <ele>31.639698</ele>
        <time>2024-04-24T11:33:49.026Z</time>
      </trkpt>
      <trkpt lat="52.427298" lon="13.518021">
        <ele>32.110780</ele>
        <time>2024-04-24T11:34:00.794Z</time>
      </trkpt>
      <trkpt lat="52.427330" lon="13.518059">
        <ele>32.153309</ele>
        <time>2024-04-24T11:34:01.983Z</time>
      </trkpt>
      <trkpt lat="52.427089" lon="13.518675">
        <ele>32.633724</ele>
        <time>2024-04-24T11:34:14.519Z</time>
      </trkpt>
      <trkpt lat="52.426951" lon="13.518981">
        <ele>32.883550</ele>
        <time>2024-04-24T11:34:21.308Z</time>
      </trkpt>
      <trkpt lat="52.426680" lon="13.519476">
        <ele>33.320216</ele>
        <time>2024-04-24T11:34:33.167Z</time>
      </trkpt>
      <trkpt lat="52.426141" lon="13.520235">
        <ele>34.009098</ele>
        <time>2024-04-24T11:34:52.394Z</time>
      </trkpt>
      <trkpt lat="52.425943" lon="13.520451">
        <ele>34.226865</ele>
        <time>2024-04-24T11:34:59.093Z</time>
      </trkpt>
      <trkpt lat="52.425692" lon="13.520656">
        <ele>34.483641</ele>
        <time>2024-04-24T11:35:07.123Z</time>
      </trkpt>
      <trkpt lat="52.425402" lon="13.520850">
        <ele>34.770447</ele>
        <time>2024-04-24T11:35:15.753Z</time>
      </trkpt>
      <trkpt lat="52.424868" lon="13.521106">
        <ele>35.250826</ele>
        <time>2024-04-24T11:35:30.006Z</time>
      </trkpt>
      <trkpt lat="52.423914" lon="13.521372">
        <ele>35.677294</ele>
        <time>2024-04-24T11:35:51.864Z</time>
      </trkpt>
      <trkpt lat="52.423708" lon="13.521366">
        <ele>35.768094</ele>
        <time>2024-04-24T11:35:56.850Z</time>
      </trkpt>
      <trkpt lat="52.423723" lon="13.521277">
        <ele>35.792909</ele>
        <time>2024-04-24T11:35:58.507Z</time>
      </trkpt>
      <trkpt lat="52.423740" lon="13.521144">
        <ele>35.829430</ele>
        <time>2024-04-24T11:36:01.023Z</time>
      </trkpt>
      <trkpt lat="52.423799" lon="13.520633">
        <ele>35.969201</ele>
        <time>2024-04-24T11:36:11.385Z</time>
      </trkpt>
      <trkpt lat="52.423799" lon="13.520453">
        <ele>36.020302</ele>
        <time>2024-04-24T11:36:15.040Z</time>
      </trkpt>
      <trkpt lat="52.423752" lon="13.520132">
        <ele>36.336665</ele>
        <time>2024-04-24T11:36:21.931Z</time>
      </trkpt>
      <trkpt lat="52.423693" lon="13.519915">
        <ele>36.564354</ele>
        <time>2024-04-24T11:36:26.862Z</time>
      </trkpt>
      <trkpt lat="52.423564" lon="13.519645">
        <ele>36.893058</ele>
        <time>2024-04-24T11:36:34.297Z</time>
      </trkpt>
      <trkpt lat="52.422967" lon="13.518998">
        <ele>38.017616</ele>
        <time>2024-04-24T11:37:00.911Z</time>
      </trkpt>
      <trkpt lat="52.422372" lon="13.518387">
        <ele>39.203376</ele>
        <time>2024-04-24T11:37:29.490Z</time>
      </trkpt>
      <trkpt lat="52.421986" lon="13.517989">
        <ele>40.132746</ele>
        <time>2024-04-24T11:37:48.402Z</time>
      </trkpt>
      <trkpt lat="52.421789" lon="13.517708">
        <ele>40.664938</ele>
        <time>2024-04-24T11:37:58.915Z</time>
      </trkpt>
      <trkpt lat="52.421645" lon="13.517411">
        <ele>41.136567</ele>
        <time>2024-04-24T11:38:08.094Z</time>
      </trkpt>
      <trkpt lat="52.421063" lon="13.515986">
        <ele>42.913721</ele>
        <time>2024-04-24T11:38:47.469Z</time>
      </trkpt>
      <trkpt lat="52.420926" lon="13.515627">
        <ele>43.194233</ele>
        <time>2024-04-24T11:38:56.593Z</time>
      </trkpt>
      <trkpt lat="52.420905" lon="13.515505">
        <ele>43.278200</ele>
        <time>2024-04-24T11:38:59.280Z</time>
      </trkpt>
      <trkpt lat="52.420853" lon="13.515372">
        <ele>43.382846</ele>
        <time>2024-04-24T11:39:02.617Z</time>
      </trkpt>
      <trkpt lat="52.420600" lon="13.514736">
        <ele>43.885819</ele>
        <time>2024-04-24T11:39:18.354Z</time>
      </trkpt>
      <trkpt lat="52.420560" lon="13.514637">
        <ele>43.964481</ele>
        <time>2024-04-24T11:39:20.783Z</time>
      </trkpt>
      <trkpt lat="52.420422" lon="13.514296">
        <ele>44.235561</ele>
        <time>2024-04-24T11:39:29.110Z</time>
      </trkpt>
      <trkpt lat="52.420178" lon="13.513652">
        <ele>44.518826</ele>
        <time>2024-04-24T11:39:44.161Z</time>
      </trkpt>
      <trkpt lat="52.419869" lon="13.512664">
        <ele>44.668963</ele>
        <time>2024-04-24T11:40:05.201Z</time>
      </trkpt>
      <trkpt lat="52.419655" lon="13.511835">
        <ele>44.790687</ele>
        <time>2024-04-24T11:40:21.470Z</time>
      </trkpt>
      <trkpt lat="52.419482" lon="13.511039">
        <ele>44.812664</ele>
        <time>2024-04-24T11:40:36.337Z</time>
      </trkpt>
      <trkpt lat="52.419392" lon="13.510690">
        <ele>44.755181</ele>
        <time>2024-04-24T11:40:43.011Z</time>
      </trkpt>
      <trkpt lat="52.419360" lon="13.510528">
        <ele>44.729349</ele>
        <time>2024-04-24T11:40:45.899Z</time>
      </trkpt>
      <trkpt lat="52.419328" lon="13.510373">
        <ele>44.704524</ele>
        <time>2024-04-24T11:40:48.796Z</time>
      </trkpt>
      <trkpt lat="52.419305" lon="13.510211">
        <ele>44.679292</ele>
        <time>2024-04-24T11:40:51.682Z</time>
      </trkpt>
      <trkpt lat="52.419268" lon="13.510007">
        <ele>44.647005</ele>
        <time>2024-04-24T11:40:55.278Z</time>
      </trkpt>
      <trkpt lat="52.418577" lon="13.505863">
        <ele>43.770413</ele>
        <time>2024-04-24T11:42:09.704Z</time>
      </trkpt>
      <trkpt lat="52.418567" lon="13.505698">
        <ele>43.731752</ele>
        <time>2024-04-24T11:42:12.521Z</time>
      </trkpt>
      <trkpt lat="52.418545" lon="13.505559">
        <ele>43.655103</ele>
        <time>2024-04-24T11:42:14.908Z</time>
      </trkpt>
      <trkpt lat="52.418506" lon="13.505232">
        <ele>43.458385</ele>
        <time>2024-04-24T11:42:20.595Z</time>
      </trkpt>
      <trkpt lat="52.418496" lon="13.505127">
        <ele>43.395642</ele>
        <time>2024-04-24T11:42:22.360Z</time>
      </trkpt>
      <trkpt lat="52.418416" lon="13.504281">
        <ele>42.890194</ele>
        <time>2024-04-24T11:42:36.196Z</time>
      </trkpt>
      <trkpt lat="52.418390" lon="13.504009">
        <ele>42.727644</ele>
        <time>2024-04-24T11:42:40.857Z</time>
      </trkpt>
      <trkpt lat="52.418349" lon="13.503598">
        <ele>42.481765</ele>
        <time>2024-04-24T11:42:47.499Z</time>
      </trkpt>
      <trkpt lat="52.418326" lon="13.503346">
        <ele>42.331326</ele>
        <time>2024-04-24T11:42:51.536Z</time>
      </trkpt>
      <trkpt lat="52.418308" lon="13.503150">
        <ele>42.214303</ele>
        <time>2024-04-24T11:42:54.698Z</time>
      </trkpt>
      <trkpt lat="52.418280" lon="13.502851">
        <ele>42.035703</ele>
        <time>2024-04-24T11:42:59.655Z</time>
      </trkpt>
      <trkpt lat="52.418250" lon="13.502523">
        <ele>41.846056</ele>
        <time>2024-04-24T11:43:05.026Z</time>
      </trkpt>
      <trkpt lat="52.418203" lon="13.502009">
        <ele>41.552222</ele>
        <time>2024-04-24T11:43:13.435Z</time>
      </trkpt>
      <trkpt lat="52.418193" lon="13.501901">
        <ele>41.490465</ele>
        <time>2024-04-24T11:43:15.260Z</time>
      </trkpt>
      <trkpt lat="52.418173" lon="13.501675">
        <ele>41.361359</ele>
        <time>2024-04-24T11:43:18.931Z</time>
      </trkpt>
      <trkpt lat="52.418132" lon="13.501381">
        <ele>41.190858</ele>
        <time>2024-04-24T11:43:23.778Z</time>
      </trkpt>
      <trkpt lat="52.418096" lon="13.501168">
        <ele>41.065902</ele>
        <time>2024-04-24T11:43:27.341Z</time>
      </trkpt>
      <trkpt lat="52.418054" lon="13.500999">
        <ele>40.962731</ele>
        <time>2024-04-24T11:43:30.233Z</time>
      </trkpt>
      <trkpt lat="52.417942" lon="13.500604">
        <ele>40.716465</ele>
        <time>2024-04-24T11:43:37.418Z</time>
      </trkpt>
      <trkpt lat="52.417808" lon="13.500246">
        <ele>40.478995</ele>
        <time>2024-04-24T11:43:44.444Z</time>
      </trkpt>
      <trkpt lat="52.417553" lon="13.499793">
        <ele>40.288783</ele>
        <time>2024-04-24T11:43:55.014Z</time>
      </trkpt>
      <trkpt lat="52.417469" lon="13.499664">
        <ele>40.272156</ele>
        <time>2024-04-24T11:43:58.297Z</time>
      </trkpt>
      <trkpt lat="52.417416" lon="13.499584">
        <ele>40.261748</ele>
        <time>2024-04-24T11:44:00.357Z</time>
      </trkpt>
      <trkpt lat="52.417332" lon="13.499459">
        <ele>40.245359</ele>
        <time>2024-04-24T11:44:03.806Z</time>
      </trkpt>
      <trkpt lat="52.417263" lon="13.499356">
        <ele>40.231878</ele>
        <time>2024-04-24T11:44:06.392Z</time>
      </trkpt>
      <trkpt lat="52.416933" lon="13.498858">
        <ele>40.167081</ele>
        <time>2024-04-24T11:44:19.398Z</time>
      </trkpt>
      <trkpt lat="52.416733" lon="13.498539">
        <ele>40.126770</ele>
        <time>2024-04-24T11:44:27.568Z</time>
      </trkpt>
      <trkpt lat="52.416618" lon="13.498342">
        <ele>40.102741</ele>
        <time>2024-04-24T11:44:32.293Z</time>
      </trkpt>
      <trkpt lat="52.416510" lon="13.498109">
        <ele>40.076954</ele>
        <time>2024-04-24T11:44:37.665Z</time>
      </trkpt>
      <trkpt lat="52.416358" lon="13.497758">
        <ele>40.094240</ele>
        <time>2024-04-24T11:44:45.483Z</time>
      </trkpt>
      <trkpt lat="52.416317" lon="13.497670">
        <ele>40.112642</ele>
        <time>2024-04-24T11:44:47.480Z</time>
      </trkpt>
      <trkpt lat="52.416269" lon="13.497541">
        <ele>40.137753</ele>
        <time>2024-04-24T11:44:50.266Z</time>
      </trkpt>
      <trkpt lat="52.416257" lon="13.497507">
        <ele>40.144281</ele>
        <time>2024-04-24T11:44:50.805Z</time>
      </trkpt>
      <trkpt lat="52.416201" lon="13.497358">
        <ele>40.173364</ele>
        <time>2024-04-24T11:44:53.309Z</time>
      </trkpt>
      <trkpt lat="52.416143" lon="13.497204">
        <ele>40.203441</ele>
        <time>2024-04-24T11:44:56.007Z</time>
      </trkpt>
      <trkpt lat="52.416131" lon="13.497171">
        <ele>40.209826</ele>
        <time>2024-04-24T11:44:56.562Z</time>
      </trkpt>
      <trkpt lat="52.416043" lon="13.496937">
        <ele>40.255509</ele>
        <time>2024-04-24T11:45:01.707Z</time>
      </trkpt>
      <trkpt lat="52.415975" lon="13.496757">
        <ele>40.290694</ele>
        <time>2024-04-24T11:45:05.824Z</time>
      </trkpt>
      <trkpt lat="52.415893" lon="13.496534">
        <ele>40.333965</ele>
        <time>2024-04-24T11:45:10.728Z</time>
      </trkpt>
      <trkpt lat="52.415881" lon="13.496508">
        <ele>40.339384</ele>
        <time>2024-04-24T11:45:11.186Z</time>
      </trkpt>
      <trkpt lat="52.415805" lon="13.496371">
        <ele>40.370158</ele>
        <time>2024-04-24T11:45:13.952Z</time>
      </trkpt>
      <trkpt lat="52.415737" lon="13.496247">
        <ele>40.397868</ele>
        <time>2024-04-24T11:45:16.488Z</time>
      </trkpt>
      <trkpt lat="52.415679" lon="13.496134">
        <ele>40.422411</ele>
        <time>2024-04-24T11:45:18.690Z</time>
      </trkpt>
      <trkpt lat="52.415660" lon="13.496104">
        <ele>40.429598</ele>
        <time>2024-04-24T11:45:19.333Z</time>
      </trkpt>
      <trkpt lat="52.415511" lon="13.495868">
        <ele>40.486044</ele>
        <time>2024-04-24T11:45:25.973Z</time>
      </trkpt>
      <trkpt lat="52.415351" lon="13.495564">
        <ele>40.544331</ele>
        <time>2024-04-24T11:45:33.322Z</time>
      </trkpt>
      <trkpt lat="52.415318" lon="13.495488">
        <ele>40.531158</ele>
        <time>2024-04-24T11:45:35.099Z</time>
      </trkpt>
      <trkpt lat="52.415264" lon="13.495373">
        <ele>40.510666</ele>
        <time>2024-04-24T11:45:37.827Z</time>
      </trkpt>
      <trkpt lat="52.415230" lon="13.495306">
        <ele>40.498359</ele>
        <time>2024-04-24T11:45:39.414Z</time>
      </trkpt>
      <trkpt lat="52.415205" lon="13.495256">
        <ele>40.489230</ele>
        <time>2024-04-24T11:45:40.598Z</time>
      </trkpt>
      <trkpt lat="52.415089" lon="13.494996">
        <ele>40.443745</ele>
        <time>2024-04-24T11:45:46.266Z</time>
      </trkpt>
      <trkpt lat="52.415015" lon="13.494837">
        <ele>40.415505</ele>
        <time>2024-04-24T11:45:49.794Z</time>
      </trkpt>
      <trkpt lat="52.414990" lon="13.494785">
        <ele>40.406155</ele>
        <time>2024-04-24T11:45:50.955Z</time>
      </trkpt>
      <trkpt lat="52.414892" lon="13.494570">
        <ele>40.368257</ele>
        <time>2024-04-24T11:45:55.572Z</time>
      </trkpt>
      <trkpt lat="52.414634" lon="13.493998">
        <ele>40.267804</ele>
        <time>2024-04-24T11:46:08.103Z</time>
      </trkpt>
      <trkpt lat="52.414564" lon="13.493843">
        <ele>40.240572</ele>
        <time>2024-04-24T11:46:11.394Z</time>
      </trkpt>
      <trkpt lat="52.414512" lon="13.493728">
        <ele>40.220358</ele>
        <time>2024-04-24T11:46:13.172Z</time>
      </trkpt>
      <trkpt lat="52.414462" lon="13.493618">
        <ele>40.200987</ele>
        <time>2024-04-24T11:46:14.919Z</time>
      </trkpt>
      <trkpt lat="52.414120" lon="13.492860">
        <ele>39.939808</ele>
        <time>2024-04-24T11:46:30.883Z</time>
      </trkpt>
      <trkpt lat="52.414098" lon="13.492811">
        <ele>39.914018</ele>
        <time>2024-04-24T11:46:31.888Z</time>
      </trkpt>
      <trkpt lat="52.414025" lon="13.492661">
        <ele>39.832681</ele>
        <time>2024-04-24T11:46:35.061Z</time>
      </trkpt>
      <trkpt lat="52.414005" lon="13.492604">
        <ele>39.804809</ele>
        <time>2024-04-24T11:46:36.168Z</time>
      </trkpt>
      <trkpt lat="52.413986" lon="13.492563">
        <ele>39.782984</ele>
        <time>2024-04-24T11:46:37.032Z</time>
      </trkpt>
      <trkpt lat="52.413879" lon="13.492308">
        <ele>39.651792</ele>
        <time>2024-04-24T11:46:42.163Z</time>
      </trkpt>
      <trkpt lat="52.413860" lon="13.492259">
        <ele>39.627181</ele>
        <time>2024-04-24T11:46:43.115Z</time>
      </trkpt>
      <trkpt lat="52.413780" lon="13.492044">
        <ele>39.520432</ele>
        <time>2024-04-24T11:46:47.292Z</time>
      </trkpt>
      <trkpt lat="52.413718" lon="13.491830">
        <ele>39.420013</ele>
        <time>2024-04-24T11:46:51.191Z</time>
      </trkpt>
      <trkpt lat="52.413700" lon="13.491767">
        <ele>39.390525</ele>
        <time>2024-04-24T11:46:52.329Z</time>
      </trkpt>
      <trkpt lat="52.413636" lon="13.491473">
        <ele>39.258210</ele>
        <time>2024-04-24T11:46:57.453Z</time>
      </trkpt>
      <trkpt lat="52.413558" lon="13.490931">
        <ele>39.022166</ele>
        <time>2024-04-24T11:47:06.741Z</time>
      </trkpt>
      <trkpt lat="52.413471" lon="13.490304">
        <ele>38.808307</ele>
        <time>2024-04-24T11:47:17.711Z</time>
      </trkpt>
      <trkpt lat="52.413449" lon="13.489733">
        <ele>38.673379</ele>
        <time>2024-04-24T11:47:27.560Z</time>
      </trkpt>
      <trkpt lat="52.413403" lon="13.489736">
        <ele>38.655580</ele>
        <time>2024-04-24T11:47:28.581Z</time>
      </trkpt>
      <trkpt lat="52.413370" lon="13.489738">
        <ele>38.642812</ele>
        <time>2024-04-24T11:47:29.275Z</time>
      </trkpt>
      <trkpt lat="52.413311" lon="13.489747">
        <ele>38.619902</ele>
        <time>2024-04-24T11:47:30.536Z</time>
      </trkpt>
      <trkpt lat="52.413156" lon="13.489791">
        <ele>38.559082</ele>
        <time>2024-04-24T11:47:34.004Z</time>
      </trkpt>
      <trkpt lat="52.413091" lon="13.489843">
        <ele>38.531119</ele>
        <time>2024-04-24T11:47:35.565Z</time>
      </trkpt>
      <trkpt lat="52.412045" lon="13.490697">
        <ele>38.281861</ele>
        <time>2024-04-24T11:48:01.432Z</time>
      </trkpt>
      <trkpt lat="52.411854" lon="13.490835">
        <ele>38.353658</ele>
        <time>2024-04-24T11:48:06.388Z</time>
      </trkpt>
      <trkpt lat="52.411765" lon="13.490863">
        <ele>38.384830</ele>
        <time>2024-04-24T11:48:08.463Z</time>
      </trkpt>
      <trkpt lat="52.411513" lon="13.490843">
        <ele>38.471614</ele>
        <time>2024-04-24T11:48:14.917Z</time>
      </trkpt>
      <trkpt lat="52.411411" lon="13.490779">
        <ele>38.509181</ele>
        <time>2024-04-24T11:48:17.536Z</time>
      </trkpt>
      <trkpt lat="52.411104" lon="13.490470">
        <ele>38.633097</ele>
        <time>2024-04-24T11:48:26.921Z</time>
      </trkpt>
      <trkpt lat="52.411028" lon="13.490376">
        <ele>38.665845</ele>
        <time>2024-04-24T11:48:29.631Z</time>
      </trkpt>
      <trkpt lat="52.410452" lon="13.489675">
        <ele>39.021725</ele>
        <time>2024-04-24T11:48:48.809Z</time>
      </trkpt>
      <trkpt lat="52.410033" lon="13.489166">
        <ele>39.383354</ele>
        <time>2024-04-24T11:49:03.175Z</time>
      </trkpt>
      <trkpt lat="52.409133" lon="13.488071">
        <ele>40.089917</ele>
        <time>2024-04-24T11:49:32.763Z</time>
      </trkpt>
      <trkpt lat="52.409074" lon="13.487981">
        <ele>40.109291</ele>
        <time>2024-04-24T11:49:34.838Z</time>
      </trkpt>
      <trkpt lat="52.408897" lon="13.487697">
        <ele>40.168830</ele>
        <time>2024-04-24T11:49:41.109Z</time>
      </trkpt>
      <trkpt lat="52.408709" lon="13.487398">
        <ele>40.231798</ele>
        <time>2024-04-24T11:49:47.405Z</time>
      </trkpt>
      <trkpt lat="52.408620" lon="13.487256">
        <ele>40.261654</ele>
        <time>2024-04-24T11:49:50.343Z</time>
      </trkpt>
      <trkpt lat="52.408488" lon="13.487046">
        <ele>40.305872</ele>
        <time>2024-04-24T11:49:54.751Z</time>
      </trkpt>
      <trkpt lat="52.408375" lon="13.486868">
        <ele>40.343545</ele>
        <time>2024-04-24T11:49:58.578Z</time>
      </trkpt>
      <trkpt lat="52.408336" lon="13.486802">
        <ele>40.357020</ele>
        <time>2024-04-24T11:49:59.879Z</time>
      </trkpt>
      <trkpt lat="52.408288" lon="13.486724">
        <ele>40.373267</ele>
        <time>2024-04-24T11:50:01.494Z</time>
      </trkpt>
      <trkpt lat="52.408127" lon="13.486453">
        <ele>40.428741</ele>
        <time>2024-04-24T11:50:07.169Z</time>
      </trkpt>
      <trkpt lat="52.408101" lon="13.486414">
        <ele>40.437213</ele>
        <time>2024-04-24T11:50:07.962Z</time>
      </trkpt>
      <trkpt lat="52.407899" lon="13.486082">
        <ele>40.472995</ele>
        <time>2024-04-24T11:50:14.858Z</time>
      </trkpt>
      <trkpt lat="52.407759" lon="13.485842">
        <ele>40.445791</ele>
        <time>2024-04-24T11:50:19.437Z</time>
      </trkpt>
      <trkpt lat="52.407712" lon="13.485771">
        <ele>40.437208</ele>
        <time>2024-04-24T11:50:20.970Z</time>
      </trkpt>
      <trkpt lat="52.407109" lon="13.484824">
        <ele>40.325061</ele>
        <time>2024-04-24T11:50:39.970Z</time>
      </trkpt>
      <trkpt lat="52.406538" lon="13.483942">
        <ele>40.191588</ele>
        <time>2024-04-24T11:50:56.770Z</time>
      </trkpt>
      <trkpt lat="52.406351" lon="13.483661">
        <ele>40.116892</ele>
        <time>2024-04-24T11:51:02.322Z</time>
      </trkpt>
      <trkpt lat="52.406252" lon="13.483509">
        <ele>40.076952</ele>
        <time>2024-04-24T11:51:05.173Z</time>
      </trkpt>
      <trkpt lat="52.405918" lon="13.482953">
        <ele>39.936787</ele>
        <time>2024-04-24T11:51:15.299Z</time>
      </trkpt>
      <trkpt lat="52.405683" lon="13.482623">
        <ele>39.845673</ele>
        <time>2024-04-24T11:51:21.845Z</time>
      </trkpt>
      <trkpt lat="52.405449" lon="13.482354">
        <ele>39.761518</ele>
        <time>2024-04-24T11:51:27.938Z</time>
      </trkpt>
      <trkpt lat="52.405427" lon="13.482164">
        <ele>39.726779</ele>
        <time>2024-04-24T11:51:30.477Z</time>
      </trkpt>
      <trkpt lat="52.405387" lon="13.482005">
        <ele>39.709852</ele>
        <time>2024-04-24T11:51:32.774Z</time>
      </trkpt>
      <trkpt lat="52.405425" lon="13.481945">
        <ele>39.706518</ele>
        <time>2024-04-24T11:51:34.038Z</time>
      </trkpt>
      <trkpt lat="52.405447" lon="13.481620">
        <ele>39.693910</ele>
        <time>2024-04-24T11:51:38.884Z</time>
      </trkpt>
      <trkpt lat="52.405441" lon="13.481196">
        <ele>39.677559</ele>
        <time>2024-04-24T11:51:45.310Z</time>
      </trkpt>
      <trkpt lat="52.405277" lon="13.480906">
        <ele>39.662313</ele>
        <time>2024-04-24T11:51:51.307Z</time>
      </trkpt>
      <trkpt lat="52.405073" lon="13.480631">
        <ele>39.645621</ele>
        <time>2024-04-24T11:51:57.879Z</time>
      </trkpt>
      <trkpt lat="52.405024" lon="13.480564">
        <ele>39.641588</ele>
        <time>2024-04-24T11:51:59.758Z</time>
      </trkpt>
      <trkpt lat="52.404990" lon="13.480531">
        <ele>39.639091</ele>
        <time>2024-04-24T11:52:00.905Z</time>
      </trkpt>
      <trkpt lat="52.404855" lon="13.480390">
        <ele>39.628974</ele>
        <time>2024-04-24T11:52:04.845Z</time>
      </trkpt>
      <trkpt lat="52.404710" lon="13.480109">
        <ele>39.614785</ele>
        <time>2024-04-24T11:52:10.345Z</time>
      </trkpt>
      <trkpt lat="52.404490" lon="13.479916">
        <ele>39.599167</ele>
        <time>2024-04-24T11:52:16.425Z</time>
      </trkpt>
      <trkpt lat="52.404369" lon="13.479512">
        <ele>39.584486</ele>
        <time>2024-04-24T11:52:23.116Z</time>
      </trkpt>
      <trkpt lat="52.404054" lon="13.479017">
        <ele>39.561155</ele>
        <time>2024-04-24T11:52:33.989Z</time>
      </trkpt>
      <trkpt lat="52.403573" lon="13.478003">
        <ele>39.519258</ele>
        <time>2024-04-24T11:52:53.325Z</time>
      </trkpt>
      <trkpt lat="52.403468" lon="13.477672">
        <ele>39.507089</ele>
        <time>2024-04-24T11:52:58.781Z</time>
      </trkpt>
      <trkpt lat="52.403380" lon="13.477693">
        <ele>39.503600</ele>
        <time>2024-04-24T11:53:00.693Z</time>
      </trkpt>
      <trkpt lat="52.402951" lon="13.477621">
        <ele>39.500002</ele>
        <time>2024-04-24T11:53:10.091Z</time>
      </trkpt>
      <trkpt lat="52.402781" lon="13.477640">
        <ele>39.498580</ele>
        <time>2024-04-24T11:53:13.826Z</time>
      </trkpt>
      <trkpt lat="52.402688" lon="13.477462">
        <ele>39.497387</ele>
        <time>2024-04-24T11:53:19.048Z</time>
      </trkpt>
      <trkpt lat="52.402560" lon="13.477402">
        <ele>39.496276</ele>
        <time>2024-04-24T11:53:23.993Z</time>
      </trkpt>
      <trkpt lat="52.402264" lon="13.477574">
        <ele>39.493656</ele>
        <time>2024-04-24T11:53:31.027Z</time>
      </trkpt>
      <trkpt lat="52.402088" lon="13.477677">
        <ele>39.492096</ele>
        <time>2024-04-24T11:53:36.554Z</time>
      </trkpt>
      <trkpt lat="52.402033" lon="13.477709">
        <ele>39.491609</ele>
        <time>2024-04-24T11:53:38.303Z</time>
      </trkpt>
      <trkpt lat="52.401777" lon="13.477882">
        <ele>39.489299</ele>
        <time>2024-04-24T11:53:44.747Z</time>
      </trkpt>
      <trkpt lat="52.401701" lon="13.477860">
        <ele>39.492611</ele>
        <time>2024-04-24T11:53:46.498Z</time>
      </trkpt>
      <trkpt lat="52.400988" lon="13.477352">
        <ele>39.635968</ele>
        <time>2024-04-24T11:54:04.594Z</time>
      </trkpt>
      <trkpt lat="52.399842" lon="13.477726">
        <ele>39.798057</ele>
        <time>2024-04-24T11:54:32.008Z</time>
      </trkpt>
      <trkpt lat="52.399660" lon="13.477816">
        <ele>39.772655</ele>
        <time>2024-04-24T11:54:36.396Z</time>
      </trkpt>
      <trkpt lat="52.399842" lon="13.477726">
        <ele>39.747253</ele>
        <time>2024-04-24T11:54:40.523Z</time>
      </trkpt>
      <trkpt lat="52.400988" lon="13.477352">
        <ele>39.591115</ele>
        <time>2024-04-24T11:55:05.726Z</time>
      </trkpt>
      <trkpt lat="52.401701" lon="13.477860">
        <ele>39.406489</ele>
        <time>2024-04-24T11:55:22.358Z</time>
      </trkpt>
      <trkpt lat="52.401777" lon="13.477882">
        <ele>39.387215</ele>
        <time>2024-04-24T11:55:24.005Z</time>
      </trkpt>
      <trkpt lat="52.402033" lon="13.477709">
        <ele>39.318062</ele>
        <time>2024-04-24T11:55:29.902Z</time>
      </trkpt>
      <trkpt lat="52.402088" lon="13.477677">
        <ele>39.303486</ele>
        <time>2024-04-24T11:55:31.554Z</time>
      </trkpt>
      <trkpt lat="52.402264" lon="13.477574">
        <ele>39.256815</ele>
        <time>2024-04-24T11:55:36.853Z</time>
      </trkpt>
      <trkpt lat="52.402560" lon="13.477402">
        <ele>39.178384</ele>
        <time>2024-04-24T11:55:43.612Z</time>
      </trkpt>
      <trkpt lat="52.402732" lon="13.477279">
        <ele>39.131519</ele>
        <time>2024-04-24T11:55:47.730Z</time>
      </trkpt>
      <trkpt lat="52.402981" lon="13.477289">
        <ele>39.114010</ele>
        <time>2024-04-24T11:55:53.170Z</time>
      </trkpt>
      <trkpt lat="52.403255" lon="13.477179">
        <ele>39.094642</ele>
        <time>2024-04-24T11:55:59.391Z</time>
      </trkpt>
      <trkpt lat="52.403318" lon="13.477157">
        <ele>39.090220</ele>
        <time>2024-04-24T11:56:00.807Z</time>
      </trkpt>
      <trkpt lat="52.403616" lon="13.477025">
        <ele>39.069027</ele>
        <time>2024-04-24T11:56:07.659Z</time>
      </trkpt>
      <trkpt lat="52.403986" lon="13.476672">
        <ele>39.039635</ele>
        <time>2024-04-24T11:56:17.173Z</time>
      </trkpt>
      <trkpt lat="52.404111" lon="13.476544">
        <ele>39.029516</ele>
        <time>2024-04-24T11:56:20.443Z</time>
      </trkpt>
      <trkpt lat="52.404237" lon="13.476340">
        <ele>39.017357</ele>
        <time>2024-04-24T11:56:24.286Z</time>
      </trkpt>
      <trkpt lat="52.404410" lon="13.476154">
        <ele>39.019372</ele>
        <time>2024-04-24T11:56:28.874Z</time>
      </trkpt>
      <trkpt lat="52.404743" lon="13.475974">
        <ele>39.085749</ele>
        <time>2024-04-24T11:56:36.754Z</time>
      </trkpt>
      <trkpt lat="52.404817" lon="13.475895">
        <ele>39.102466</ele>
        <time>2024-04-24T11:56:38.756Z</time>
      </trkpt>
      <trkpt lat="52.404884" lon="13.475771">
        <ele>39.121596</ele>
        <time>2024-04-24T11:56:41.073Z</time>
      </trkpt>
      <trkpt lat="52.405032" lon="13.475293">
        <ele>39.183502</ele>
        <time>2024-04-24T11:56:48.750Z</time>
      </trkpt>
      <trkpt lat="52.405155" lon="13.475151">
        <ele>39.211982</ele>
        <time>2024-04-24T11:56:52.321Z</time>
      </trkpt>
      <trkpt lat="52.406503" lon="13.474372">
        <ele>39.548603</ele>
        <time>2024-04-24T11:57:25.569Z</time>
      </trkpt>
      <trkpt lat="52.407896" lon="13.473517">
        <ele>40.021699</ele>
        <time>2024-04-24T11:58:01.179Z</time>
      </trkpt>
      <trkpt lat="52.408370" lon="13.473151">
        <ele>40.239463</ele>
        <time>2024-04-24T11:58:13.698Z</time>
      </trkpt>
      <trkpt lat="52.408405" lon="13.473122">
        <ele>40.255763</ele>
        <time>2024-04-24T11:58:14.663Z</time>
      </trkpt>
      <trkpt lat="52.408470" lon="13.473076">
        <ele>40.285188</ele>
        <time>2024-04-24T11:58:16.400Z</time>
      </trkpt>
      <trkpt lat="52.409208" lon="13.472687">
        <ele>40.608581</ele>
        <time>2024-04-24T11:58:35.609Z</time>
      </trkpt>
      <trkpt lat="52.409549" lon="13.472495">
        <ele>40.800153</ele>
        <time>2024-04-24T11:58:44.793Z</time>
      </trkpt>
      <trkpt lat="52.411262" lon="13.471532">
        <ele>41.655901</ele>
        <time>2024-04-24T11:59:29.811Z</time>
      </trkpt>
      <trkpt lat="52.415001" lon="13.469424">
        <ele>42.538205</ele>
        <time>2024-04-24T12:01:00.828Z</time>
      </trkpt>
      <trkpt lat="52.415230" lon="13.469295">
        <ele>42.619579</ele>
        <time>2024-04-24T12:01:06.766Z</time>
      </trkpt>
      <trkpt lat="52.415616" lon="13.469291">
        <ele>42.749300</ele>
        <time>2024-04-24T12:01:16.234Z</time>
      </trkpt>
      <trkpt lat="52.416422" lon="13.468967">
        <ele>43.013737</ele>
        <time>2024-04-24T12:01:36.970Z</time>
      </trkpt>
      <trkpt lat="52.417914" lon="13.468102">
        <ele>43.387601</ele>
        <time>2024-04-24T12:02:14.388Z</time>
      </trkpt>
      <trkpt lat="52.418974" lon="13.467514">
        <ele>43.107822</ele>
        <time>2024-04-24T12:02:38.018Z</time>
      </trkpt>
      <trkpt lat="52.419634" lon="13.467146">
        <ele>42.980523</ele>
        <time>2024-04-24T12:02:52.861Z</time>
      </trkpt>
      <trkpt lat="52.420275" lon="13.466787">
        <ele>42.969866</ele>
        <time>2024-04-24T12:03:07.767Z</time>
      </trkpt>
      <trkpt lat="52.420350" lon="13.466689">
        <ele>42.968357</ele>
        <time>2024-04-24T12:03:09.936Z</time>
      </trkpt>
      <trkpt lat="52.420415" lon="13.466520">
        <ele>42.966440</ele>
        <time>2024-04-24T12:03:12.752Z</time>
      </trkpt>
      <trkpt lat="52.420732" lon="13.465133">
        <ele>42.978985</ele>
        <time>2024-04-24T12:03:33.781Z</time>
      </trkpt>
      <trkpt lat="52.421064" lon="13.464457">
        <ele>43.041342</ele>
        <time>2024-04-24T12:03:46.151Z</time>
      </trkpt>
      <trkpt lat="52.421165" lon="13.464095">
        <ele>43.069941</ele>
        <time>2024-04-24T12:03:51.862Z</time>
      </trkpt>
      <trkpt lat="52.421146" lon="13.463833">
        <ele>43.088897</ele>
        <time>2024-04-24T12:03:55.442Z</time>
      </trkpt>
      <trkpt lat="52.421048" lon="13.463160">
        <ele>43.138606</ele>
        <time>2024-04-24T12:04:05.031Z</time>
      </trkpt>
      <trkpt lat="52.421028" lon="13.463003">
        <ele>43.150129</ele>
        <time>2024-04-24T12:04:07.227Z</time>
      </trkpt>
      <trkpt lat="52.420707" lon="13.460378">
        <ele>42.909253</ele>
        <time>2024-04-24T12:04:42.393Z</time>
      </trkpt>
      <trkpt lat="52.420743" lon="13.460317">
        <ele>42.900272</ele>
        <time>2024-04-24T12:04:43.615Z</time>
      </trkpt>
      <trkpt lat="52.420522" lon="13.458926">
        <ele>42.888866</ele>
        <time>2024-04-24T12:05:03.087Z</time>
      </trkpt>
      <trkpt lat="52.420300" lon="13.457865">
        <ele>42.926152</ele>
        <time>2024-04-24T12:05:18.185Z</time>
      </trkpt>
      <trkpt lat="52.420087" lon="13.457007">
        <ele>42.960388</ele>
        <time>2024-04-24T12:05:31.371Z</time>
      </trkpt>
      <trkpt lat="52.419961" lon="13.456514">
        <ele>42.994803</ele>
        <time>2024-04-24T12:05:39.252Z</time>
      </trkpt>
      <trkpt lat="52.419634" lon="13.455245">
        <ele>43.083499</ele>
        <time>2024-04-24T12:05:58.897Z</time>
      </trkpt>
      <trkpt lat="52.419534" lon="13.454857">
        <ele>43.110619</ele>
        <time>2024-04-24T12:06:04.542Z</time>
      </trkpt>
      <trkpt lat="52.419310" lon="13.454110">
        <ele>43.143431</ele>
        <time>2024-04-24T12:06:15.517Z</time>
      </trkpt>
      <trkpt lat="52.418997" lon="13.453266">
        <ele>43.144280</ele>
        <time>2024-04-24T12:06:28.658Z</time>
      </trkpt>
      <trkpt lat="52.418838" lon="13.452832">
        <ele>43.144715</ele>
        <time>2024-04-24T12:06:35.554Z</time>
      </trkpt>
      <trkpt lat="52.418526" lon="13.451986">
        <ele>43.145564</ele>
        <time>2024-04-24T12:06:49.297Z</time>
      </trkpt>
      <trkpt lat="52.418315" lon="13.451350">
        <ele>43.314876</ele>
        <time>2024-04-24T12:06:59.463Z</time>
      </trkpt>
      <trkpt lat="52.418187" lon="13.450957">
        <ele>43.443798</ele>
        <time>2024-04-24T12:07:06.115Z</time>
      </trkpt>
      <trkpt lat="52.418171" lon="13.450906">
        <ele>43.460394</ele>
        <time>2024-04-24T12:07:06.919Z</time>
      </trkpt>
      <trkpt lat="52.418014" lon="13.450413">
        <ele>43.621330</ele>
        <time>2024-04-24T12:07:15.315Z</time>
      </trkpt>
      <trkpt lat="52.417782" lon="13.449684">
        <ele>43.859272</ele>
        <time>2024-04-24T12:07:27.970Z</time>
      </trkpt>
      <trkpt lat="52.417771" lon="13.449580">
        <ele>43.889816</ele>
        <time>2024-04-24T12:07:29.586Z</time>
      </trkpt>
      <trkpt lat="52.417710" lon="13.449615">
        <ele>43.920479</ele>
        <time>2024-04-24T12:07:34.039Z</time>
      </trkpt>
      <trkpt lat="52.417697" lon="13.449624">
        <ele>43.927174</ele>
        <time>2024-04-24T12:07:35.024Z</time>
      </trkpt>
      <trkpt lat="52.417690" lon="13.449559">
        <ele>43.946274</ele>
        <time>2024-04-24T12:07:37.817Z</time>
      </trkpt>
      <trkpt lat="52.417692" lon="13.449558">
        <ele>43.947266</ele>
        <time>2024-04-24T12:07:37.878Z</time>
      </trkpt>
      <trkpt lat="52.417716" lon="13.449542">
        <ele>43.959559</ele>
        <time>2024-04-24T12:07:38.572Z</time>
      </trkpt>
      <trkpt lat="52.417784" lon="13.449497">
        <ele>43.994351</ele>
        <time>2024-04-24T12:07:40.422Z</time>
      </trkpt>
      <trkpt lat="52.417701" lon="13.448795">
        <ele>44.185266</ele>
        <time>2024-04-24T12:07:51.937Z</time>
      </trkpt>
      <trkpt lat="52.417688" lon="13.448581">
        <ele>44.242572</ele>
        <time>2024-04-24T12:07:55.024Z</time>
      </trkpt>
      <trkpt lat="52.417677" lon="13.448387">
        <ele>44.294489</ele>
        <time>2024-04-24T12:07:57.978Z</time>
      </trkpt>
      <trkpt lat="52.417609" lon="13.448405">
        <ele>44.324583</ele>
        <time>2024-04-24T12:07:59.760Z</time>
      </trkpt>
      <trkpt lat="52.417542" lon="13.448424">
        <ele>44.354290</ele>
        <time>2024-04-24T12:08:01.466Z</time>
      </trkpt>
      <trkpt lat="52.417389" lon="13.448421">
        <ele>44.421141</ele>
        <time>2024-04-24T12:08:04.935Z</time>
      </trkpt>
      <trkpt lat="52.417339" lon="13.448332">
        <ele>44.453384</ele>
        <time>2024-04-24T12:08:06.737Z</time>
      </trkpt>
      <trkpt lat="52.417205" lon="13.447928">
        <ele>44.575927</ele>
        <time>2024-04-24T12:08:13.303Z</time>
      </trkpt>
      <trkpt lat="52.417038" lon="13.447629">
        <ele>44.683963</ele>
        <time>2024-04-24T12:08:19.270Z</time>
      </trkpt>
      <trkpt lat="52.416724" lon="13.447075">
        <ele>44.914067</ele>
        <time>2024-04-24T12:08:30.249Z</time>
      </trkpt>
      <trkpt lat="52.416335" lon="13.445700">
        <ele>45.432701</ele>
        <time>2024-04-24T12:08:53.572Z</time>
      </trkpt>
      <trkpt lat="52.415845" lon="13.443983">
        <ele>46.104754</ele>
        <time>2024-04-24T12:09:23.048Z</time>
      </trkpt>
      <trkpt lat="52.415407" lon="13.442567">
        <ele>46.692276</ele>
        <time>2024-04-24T12:09:47.686Z</time>
      </trkpt>
      <trkpt lat="52.415123" lon="13.441703">
        <ele>46.867065</ele>
        <time>2024-04-24T12:10:02.613Z</time>
      </trkpt>
      <trkpt lat="52.415003" lon="13.441543">
        <ele>46.857066</ele>
        <time>2024-04-24T12:10:06.552Z</time>
      </trkpt>
      <trkpt lat="52.414946" lon="13.441414">
        <ele>46.850785</ele>
        <time>2024-04-24T12:10:09.049Z</time>
      </trkpt>
      <trkpt lat="52.414835" lon="13.440865">
        <ele>46.827979</ele>
        <time>2024-04-24T12:10:17.758Z</time>
      </trkpt>
      <trkpt lat="52.414801" lon="13.440689">
        <ele>46.820700</ele>
        <time>2024-04-24T12:10:20.652Z</time>
      </trkpt>
      <trkpt lat="52.414702" lon="13.440221">
        <ele>46.801168</ele>
        <time>2024-04-24T12:10:27.935Z</time>
      </trkpt>
      <trkpt lat="52.414621" lon="13.439893">
        <ele>46.787215</ele>
        <time>2024-04-24T12:10:33.061Z</time>
      </trkpt>
      <trkpt lat="52.414607" lon="13.439672">
        <ele>46.778455</ele>
        <time>2024-04-24T12:10:36.249Z</time>
      </trkpt>
      <trkpt lat="52.414628" lon="13.439558">
        <ele>46.773759</ele>
        <time>2024-04-24T12:10:37.993Z</time>
      </trkpt>
      <trkpt lat="52.414549" lon="13.439207">
        <ele>46.633716</ele>
        <time>2024-04-24T12:10:42.624Z</time>
      </trkpt>
      <trkpt lat="52.414499" lon="13.438872">
        <ele>46.448458</ele>
        <time>2024-04-24T12:10:46.944Z</time>
      </trkpt>
      <trkpt lat="52.414485" lon="13.438778">
        <ele>46.396482</ele>
        <time>2024-04-24T12:10:48.147Z</time>
      </trkpt>
      <trkpt lat="52.414456" lon="13.438640">
        <ele>46.318078</ele>
        <time>2024-04-24T12:10:49.955Z</time>
      </trkpt>
      <trkpt lat="52.413885" lon="13.436393">
        <ele>45.005074</ele>
        <time>2024-04-24T12:11:19.378Z</time>
      </trkpt>
      <trkpt lat="52.413638" lon="13.435457">
        <ele>44.440175</ele>
        <time>2024-04-24T12:11:31.664Z</time>
      </trkpt>
      <trkpt lat="52.413027" lon="13.433439">
        <ele>43.445380</ele>
        <time>2024-04-24T12:11:59.432Z</time>
      </trkpt>
      <trkpt lat="52.412591" lon="13.432002">
        <ele>43.182686</ele>
        <time>2024-04-24T12:12:20.378Z</time>
      </trkpt>
      <trkpt lat="52.411930" lon="13.427876">
        <ele>43.671572</ele>
        <time>2024-04-24T12:13:22.431Z</time>
      </trkpt>
      <trkpt lat="52.411852" lon="13.427621">
        <ele>43.709385</ele>
        <time>2024-04-24T12:13:27.034Z</time>
      </trkpt>
      <trkpt lat="52.411194" lon="13.424394">
        <ele>44.100944</ele>
        <time>2024-04-24T12:14:19.833Z</time>
      </trkpt>
      <trkpt lat="52.410899" lon="13.423312">
        <ele>44.206271</ele>
        <time>2024-04-24T12:14:38.286Z</time>
      </trkpt>
      <trkpt lat="52.410868" lon="13.423043">
        <ele>44.230600</ele>
        <time>2024-04-24T12:14:42.467Z</time>
      </trkpt>
      <trkpt lat="52.410737" lon="13.422338">
        <ele>44.354292</ele>
        <time>2024-04-24T12:14:54.121Z</time>
      </trkpt>
      <trkpt lat="52.410627" lon="13.421584">
        <ele>44.497338</ele>
        <time>2024-04-24T12:15:06.500Z</time>
      </trkpt>
      <trkpt lat="52.410606" lon="13.421226">
        <ele>44.563699</ele>
        <time>2024-04-24T12:15:12.222Z</time>
      </trkpt>
      <trkpt lat="52.410447" lon="13.421271">
        <ele>44.612505</ele>
        <time>2024-04-24T12:15:18.527Z</time>
      </trkpt>
      <trkpt lat="52.410358" lon="13.421163">
        <ele>44.645998</ele>
        <time>2024-04-24T12:15:22.743Z</time>
      </trkpt>
      <trkpt lat="52.410314" lon="13.421147">
        <ele>44.659631</ele>
        <time>2024-04-24T12:15:24.509Z</time>
      </trkpt>
      <trkpt lat="52.409851" lon="13.420350">
        <ele>44.864856</ele>
        <time>2024-04-24T12:15:50.854Z</time>
      </trkpt>
      <trkpt lat="52.409682" lon="13.420057">
        <ele>44.941347</ele>
        <time>2024-04-24T12:16:00.458Z</time>
      </trkpt>
      <trkpt lat="52.409279" lon="13.419801">
        <ele>45.075744</ele>
        <time>2024-04-24T12:16:17.171Z</time>
      </trkpt>
      <trkpt lat="52.409162" lon="13.419705">
        <ele>45.116430</ele>
        <time>2024-04-24T12:16:22.244Z</time>
      </trkpt>
      <trkpt lat="52.407203" lon="13.419341">
        <ele>45.420435</ele>
        <time>2024-04-24T12:17:37.378Z</time>
      </trkpt>
      <trkpt lat="52.406611" lon="13.419536">
        <ele>45.441474</ele>
        <time>2024-04-24T12:17:59.491Z</time>
      </trkpt>
      <trkpt lat="52.404757" lon="13.420406">
        <ele>44.817633</ele>
        <time>2024-04-24T12:19:09.096Z</time>
      </trkpt>
      <trkpt lat="52.403857" lon="13.420829">
        <ele>44.540165</ele>
        <time>2024-04-24T12:19:42.754Z</time>
      </trkpt>
      <trkpt lat="52.403065" lon="13.421206">
        <ele>44.318636</ele>
        <time>2024-04-24T12:20:12.760Z</time>
      </trkpt>
      <trkpt lat="52.402721" lon="13.421362">
        <ele>44.274440</ele>
        <time>2024-04-24T12:20:25.797Z</time>
      </trkpt>
      <trkpt lat="52.402522" lon="13.421381">
        <ele>44.249757</ele>
        <time>2024-04-24T12:20:33.115Z</time>
      </trkpt>
      <trkpt lat="52.402286" lon="13.421508">
        <ele>44.218999</ele>
        <time>2024-04-24T12:20:42.110Z</time>
      </trkpt>
      <trkpt lat="52.395456" lon="13.424538">
        <ele>44.172232</ele>
        <time>2024-04-24T12:25:04.724Z</time>
      </trkpt>
      <trkpt lat="52.395120" lon="13.424565">
        <ele>44.165585</ele>
        <time>2024-04-24T12:25:17.206Z</time>
      </trkpt>
      <trkpt lat="52.395062" lon="13.424544">
        <ele>44.164412</ele>
        <time>2024-04-24T12:25:19.403Z</time>
      </trkpt>
      <trkpt lat="52.395002" lon="13.424471">
        <ele>44.162935</ele>
        <time>2024-04-24T12:25:21.064Z</time>
      </trkpt>
      <trkpt lat="52.394912" lon="13.424493">
        <ele>44.161137</ele>
        <time>2024-04-24T12:25:23.102Z</time>
      </trkpt>
      <trkpt lat="52.394845" lon="13.424562">
        <ele>44.159573</ele>
        <time>2024-04-24T12:25:24.905Z</time>
      </trkpt>
      <trkpt lat="52.394744" lon="13.424767">
        <ele>44.156396</ele>
        <time>2024-04-24T12:25:28.468Z</time>
      </trkpt>
      <trkpt lat="52.394511" lon="13.425018">
        <ele>44.134767</ele>
        <time>2024-04-24T12:25:34.657Z</time>
      </trkpt>
      <trkpt lat="52.393408" lon="13.425421">
        <ele>43.930520</ele>
        <time>2024-04-24T12:25:59.104Z</time>
      </trkpt>
      <trkpt lat="52.391960" lon="13.426008">
        <ele>43.720460</ele>
        <time>2024-04-24T12:26:31.490Z</time>
      </trkpt>
      <trkpt lat="52.389875" lon="13.426889">
        <ele>43.536782</ele>
        <time>2024-04-24T12:27:18.995Z</time>
      </trkpt>
      <trkpt lat="52.388619" lon="13.427422">
        <ele>43.477686</ele>
        <time>2024-04-24T12:27:47.754Z</time>
      </trkpt>
      <trkpt lat="52.387284" lon="13.427977">
        <ele>43.526705</ele>
        <time>2024-04-24T12:28:18.213Z</time>
      </trkpt>
      <trkpt lat="52.386624" lon="13.428251">
        <ele>43.685499</ele>
        <time>2024-04-24T12:28:33.851Z</time>
      </trkpt>
      <trkpt lat="52.386133" lon="13.428412">
        <ele>43.802285</ele>
        <time>2024-04-24T12:28:46.090Z</time>
      </trkpt>
      <trkpt lat="52.385711" lon="13.428361">
        <ele>43.833698</ele>
        <time>2024-04-24T12:28:56.474Z</time>
      </trkpt>
      <trkpt lat="52.385127" lon="13.427912">
        <ele>43.715146</ele>
        <time>2024-04-24T12:29:11.462Z</time>
      </trkpt>
      <trkpt lat="52.385048" lon="13.427792">
        <ele>43.695348</ele>
        <time>2024-04-24T12:29:13.911Z</time>
      </trkpt>
      <trkpt lat="52.384888" lon="13.427304">
        <ele>43.633214</ele>
        <time>2024-04-24T12:29:21.374Z</time>
      </trkpt>
      <trkpt lat="52.384844" lon="13.427223">
        <ele>43.621051</ele>
        <time>2024-04-24T12:29:23.784Z</time>
      </trkpt>
      <trkpt lat="52.381933" lon="13.425162">
        <ele>40.849573</ele>
        <time>2024-04-24T12:31:12.762Z</time>
      </trkpt>
      <trkpt lat="52.381260" lon="13.424681">
        <ele>40.185411</ele>
        <time>2024-04-24T12:31:38.142Z</time>
      </trkpt>
      <trkpt lat="52.381202" lon="13.424588">
        <ele>40.112001</ele>
        <time>2024-04-24T12:31:41.014Z</time>
      </trkpt>
      <trkpt lat="52.381188" lon="13.424453">
        <ele>40.036394</ele>
        <time>2024-04-24T12:31:43.974Z</time>
      </trkpt>
      <trkpt lat="52.380479" lon="13.423935">
        <ele>39.868306</ele>
        <time>2024-04-24T12:32:12.048Z</time>
      </trkpt>
      <trkpt lat="52.380339" lon="13.423844">
        <ele>39.836675</ele>
        <time>2024-04-24T12:32:17.642Z</time>
      </trkpt>
      <trkpt lat="52.379044" lon="13.422972">
        <ele>39.838623</ele>
        <time>2024-04-24T12:33:09.456Z</time>
      </trkpt>
      <trkpt lat="52.378434" lon="13.422555">
        <ele>40.075226</ele>
        <time>2024-04-24T12:33:34.957Z</time>
      </trkpt>
      <trkpt lat="52.377648" lon="13.421993">
        <ele>40.552149</ele>
        <time>2024-04-24T12:34:09.726Z</time>
      </trkpt>
      <trkpt lat="52.376371" lon="13.421152">
        <ele>42.015011</ele>
        <time>2024-04-24T12:35:08.616Z</time>
      </trkpt>
      <trkpt lat="52.376096" lon="13.420859">
        <ele>42.268169</ele>
        <time>2024-04-24T12:35:22.993Z</time>
      </trkpt>
      <trkpt lat="52.376039" lon="13.420741">
        <ele>42.306043</ele>
        <time>2024-04-24T12:35:26.992Z</time>
      </trkpt>
      <trkpt lat="52.375962" lon="13.420583">
        <ele>42.356930</ele>
        <time>2024-04-24T12:35:32.387Z</time>
      </trkpt>
      <trkpt lat="52.375641" lon="13.419344">
        <ele>42.695712</ele>
        <time>2024-04-24T12:36:05.557Z</time>
      </trkpt>
      <trkpt lat="52.375634" lon="13.419187">
        <ele>42.735334</ele>
        <time>2024-04-24T12:36:09.033Z</time>
      </trkpt>
      <trkpt lat="52.375634" lon="13.418597">
        <ele>42.883840</ele>
        <time>2024-04-24T12:36:21.924Z</time>
      </trkpt>
      <trkpt lat="52.375542" lon="13.418242">
        <ele>42.935731</ele>
        <time>2024-04-24T12:36:27.328Z</time>
      </trkpt>
      <trkpt lat="52.375466" lon="13.417866">
        <ele>42.893298</ele>
        <time>2024-04-24T12:36:32.345Z</time>
      </trkpt>
      <trkpt lat="52.375448" lon="13.417533">
        <ele>42.857483</ele>
        <time>2024-04-24T12:36:36.622Z</time>
      </trkpt>
      <trkpt lat="52.375480" lon="13.417119">
        <ele>42.812776</ele>
        <time>2024-04-24T12:36:42.129Z</time>
      </trkpt>
      <trkpt lat="52.375513" lon="13.416682">
        <ele>42.765602</ele>
        <time>2024-04-24T12:36:48.081Z</time>
      </trkpt>
      <trkpt lat="52.375844" lon="13.416126">
        <ele>42.682403</ele>
        <time>2024-04-24T12:36:58.702Z</time>
      </trkpt>
      <trkpt lat="52.375895" lon="13.415976">
        <ele>42.664009</ele>
        <time>2024-04-24T12:37:01.010Z</time>
      </trkpt>
      <trkpt lat="52.375957" lon="13.414382">
        <ele>42.838365</ele>
        <time>2024-04-24T12:37:23.271Z</time>
      </trkpt>
      <trkpt lat="52.376102" lon="13.410650">
        <ele>43.403757</ele>
        <time>2024-04-24T12:38:18.234Z</time>
      </trkpt>
      <trkpt lat="52.376240" lon="13.407414">
        <ele>43.506338</ele>
        <time>2024-04-24T12:39:01.793Z</time>
      </trkpt>
      <trkpt lat="52.376393" lon="13.403695">
        <ele>43.959867</ele>
        <time>2024-04-24T12:39:54.665Z</time>
      </trkpt>
      <trkpt lat="52.376928" lon="13.404045">
        <ele>44.232605</ele>
        <time>2024-04-24T12:40:17.253Z</time>
      </trkpt>
      <trkpt lat="52.377040" lon="13.404199">
        <ele>44.301833</ele>
        <time>2024-04-24T12:40:27.453Z</time>
      </trkpt>
      <trkpt lat="52.377081" lon="13.404173">
        <ele>44.322647</ele>
        <time>2024-04-24T12:40:30.497Z</time>
      </trkpt>
      <trkpt lat="52.377512" lon="13.404450">
        <ele>44.541838</ele>
        <time>2024-04-24T12:40:42.376Z</time>
      </trkpt>
      <trkpt lat="52.377593" lon="13.403263">
        <ele>44.916265</ele>
        <time>2024-04-24T12:41:01.537Z</time>
      </trkpt>
      <trkpt lat="52.378500" lon="13.402654">
        <ele>45.474132</ele>
        <time>2024-04-24T12:41:27.432Z</time>
      </trkpt>
      <trkpt lat="52.378623" lon="13.402571">
        <ele>45.549840</ele>
        <time>2024-04-24T12:41:30.802Z</time>
      </trkpt>
      <trkpt lat="52.379261" lon="13.402323">
        <ele>45.820621</ele>
        <time>2024-04-24T12:41:47.361Z</time>
      </trkpt>
      <trkpt lat="52.379442" lon="13.402252">
        <ele>45.857466</ele>
        <time>2024-04-24T12:41:52.006Z</time>
      </trkpt>
      <trkpt lat="52.379658" lon="13.402168">
        <ele>45.901415</ele>
        <time>2024-04-24T12:41:57.497Z</time>
      </trkpt>
      <trkpt lat="52.379818" lon="13.402106">
        <ele>45.933964</ele>
        <time>2024-04-24T12:42:01.598Z</time>
      </trkpt>
      <trkpt lat="52.380521" lon="13.401851">
        <ele>46.076505</ele>
        <time>2024-04-24T12:42:18.857Z</time>
      </trkpt>
      <trkpt lat="52.380695" lon="13.401788">
        <ele>46.111783</ele>
        <time>2024-04-24T12:42:22.941Z</time>
      </trkpt>
      <trkpt lat="52.380885" lon="13.401719">
        <ele>46.087706</ele>
        <time>2024-04-24T12:42:27.373Z</time>
      </trkpt>
      <trkpt lat="52.381076" lon="13.401650">
        <ele>46.040573</ele>
        <time>2024-04-24T12:42:31.761Z</time>
      </trkpt>
      <trkpt lat="52.381440" lon="13.401518">
        <ele>45.950733</ele>
        <time>2024-04-24T12:42:40.123Z</time>
      </trkpt>
      <trkpt lat="52.382047" lon="13.401299">
        <ele>45.800953</ele>
        <time>2024-04-24T12:42:54.013Z</time>
      </trkpt>
      <trkpt lat="52.382054" lon="13.400231">
        <ele>45.656729</ele>
        <time>2024-04-24T12:43:07.994Z</time>
      </trkpt>
      <trkpt lat="52.382068" lon="13.400047">
        <ele>45.637297</ele>
        <time>2024-04-24T12:43:10.434Z</time>
      </trkpt>
      <trkpt lat="52.382145" lon="13.399813">
        <ele>45.609439</ele>
        <time>2024-04-24T12:43:13.975Z</time>
      </trkpt>
      <trkpt lat="52.382186" lon="13.399752">
        <ele>45.599931</ele>
        <time>2024-04-24T12:43:15.151Z</time>
      </trkpt>
      <trkpt lat="52.382472" lon="13.399541">
        <ele>45.546080</ele>
        <time>2024-04-24T12:43:21.884Z</time>
      </trkpt>
      <trkpt lat="52.382506" lon="13.399479">
        <ele>45.537346</ele>
        <time>2024-04-24T12:43:22.956Z</time>
      </trkpt>
      <trkpt lat="52.382285" lon="13.398738">
        <ele>45.450920</ele>
        <time>2024-04-24T12:43:33.839Z</time>
      </trkpt>
      <trkpt lat="52.382156" lon="13.398302">
        <ele>45.400145</ele>
        <time>2024-04-24T12:43:40.458Z</time>
      </trkpt>
      <trkpt lat="52.382083" lon="13.398059">
        <ele>45.387001</ele>
        <time>2024-04-24T12:43:44.233Z</time>
      </trkpt>
      <trkpt lat="52.382096" lon="13.397586">
        <ele>45.430985</ele>
        <time>2024-04-24T12:43:50.521Z</time>
      </trkpt>
      <trkpt lat="52.382394" lon="13.397444">
        <ele>45.478217</ele>
        <time>2024-04-24T12:43:57.248Z</time>
      </trkpt>
      <trkpt lat="52.383222" lon="13.397049">
        <ele>45.609463</ele>
        <time>2024-04-24T12:44:17.889Z</time>
      </trkpt>
      <trkpt lat="52.383669" lon="13.396835">
        <ele>45.702439</ele>
        <time>2024-04-24T12:44:28.727Z</time>
      </trkpt>
      <trkpt lat="52.383844" lon="13.396752">
        <ele>45.753065</ele>
        <time>2024-04-24T12:44:33.077Z</time>
      </trkpt>
      <trkpt lat="52.384270" lon="13.396543">
        <ele>45.876636</ele>
        <time>2024-04-24T12:44:43.921Z</time>
      </trkpt>
      <trkpt lat="52.384559" lon="13.396406">
        <ele>45.960237</ele>
        <time>2024-04-24T12:44:51.049Z</time>
      </trkpt>
      <trkpt lat="52.385321" lon="13.396039">
        <ele>46.143473</ele>
        <time>2024-04-24T12:45:09.914Z</time>
      </trkpt>
      <trkpt lat="52.385864" lon="13.395778">
        <ele>46.086921</ele>
        <time>2024-04-24T12:45:22.890Z</time>
      </trkpt>
      <trkpt lat="52.386179" lon="13.395626">
        <ele>46.054105</ele>
        <time>2024-04-24T12:45:29.946Z</time>
      </trkpt>
      <trkpt lat="52.386603" lon="13.395422">
        <ele>46.009943</ele>
        <time>2024-04-24T12:45:39.399Z</time>
      </trkpt>
      <trkpt lat="52.386684" lon="13.395385">
        <ele>46.001539</ele>
        <time>2024-04-24T12:45:41.184Z</time>
      </trkpt>
      <trkpt lat="52.386819" lon="13.395311">
        <ele>45.987313</ele>
        <time>2024-04-24T12:45:44.245Z</time>
      </trkpt>
      <trkpt lat="52.386684" lon="13.395385">
        <ele>45.971452</ele>
        <time>2024-04-24T12:45:47.304Z</time>
      </trkpt>
      <trkpt lat="52.386684" lon="13.394474">
        <ele>45.750403</ele>
        <time>2024-04-24T12:45:59.607Z</time>
      </trkpt>
      <trkpt lat="52.386684" lon="13.393405">
        <ele>45.491017</ele>
        <time>2024-04-24T12:46:13.867Z</time>
      </trkpt>
      <trkpt lat="52.386684" lon="13.391880">
        <ele>45.059507</ele>
        <time>2024-04-24T12:46:34.341Z</time>
      </trkpt>
      <trkpt lat="52.386688" lon="13.390362">
        <ele>44.526578</ele>
        <time>2024-04-24T12:46:55.084Z</time>
      </trkpt>
      <trkpt lat="52.386688" lon="13.389573">
        <ele>44.249583</ele>
        <time>2024-04-24T12:47:05.099Z</time>
      </trkpt>
      <trkpt lat="52.386687" lon="13.388842">
        <ele>43.906197</ele>
        <time>2024-04-24T12:47:14.320Z</time>
      </trkpt>
      <trkpt lat="52.386690" lon="13.388077">
        <ele>43.536760</ele>
        <time>2024-04-24T12:47:24.151Z</time>
      </trkpt>
      <trkpt lat="52.386692" lon="13.387721">
        <ele>43.364836</ele>
        <time>2024-04-24T12:47:28.765Z</time>
      </trkpt>
      <trkpt lat="52.386795" lon="13.387257">
        <ele>43.126404</ele>
        <time>2024-04-24T12:47:39.411Z</time>
      </trkpt>
      <trkpt lat="52.386763" lon="13.386157">
        <ele>42.760242</ele>
        <time>2024-04-24T12:48:02.961Z</time>
      </trkpt>
      <trkpt lat="52.387197" lon="13.386086">
        <ele>42.692353</ele>
        <time>2024-04-24T12:48:12.021Z</time>
      </trkpt>
      <trkpt lat="52.387392" lon="13.386040">
        <ele>42.661687</ele>
        <time>2024-04-24T12:48:16.340Z</time>
      </trkpt>
      <trkpt lat="52.387489" lon="13.385917">
        <ele>42.642596</ele>
        <time>2024-04-24T12:48:19.141Z</time>
      </trkpt>
      <trkpt lat="52.387551" lon="13.385763">
        <ele>42.625070</ele>
        <time>2024-04-24T12:48:21.802Z</time>
      </trkpt>
      <trkpt lat="52.387498" lon="13.383846">
        <ele>42.589330</ele>
        <time>2024-04-24T12:48:49.557Z</time>
      </trkpt>
      <trkpt lat="52.387399" lon="13.380515">
        <ele>42.965320</ele>
        <time>2024-04-24T12:49:35.168Z</time>
      </trkpt>
      <trkpt lat="52.387293" lon="13.377052">
        <ele>43.765774</ele>
        <time>2024-04-24T12:50:27.071Z</time>
      </trkpt>
      <trkpt lat="52.387848" lon="13.369122">
        <ele>46.321387</ele>
        <time>2024-04-24T12:52:29.035Z</time>
      </trkpt>
      <trkpt lat="52.387904" lon="13.369133">
        <ele>46.336750</ele>
        <time>2024-04-24T12:52:30.403Z</time>
      </trkpt>
      <trkpt lat="52.390777" lon="13.369867">
        <ele>46.763465</ele>
        <time>2024-04-24T12:53:37.140Z</time>
      </trkpt>
      <trkpt lat="52.391101" lon="13.369963">
        <ele>46.693972</ele>
        <time>2024-04-24T12:53:44.130Z</time>
      </trkpt>
      <trkpt lat="52.392338" lon="13.370326">
        <ele>46.278108</ele>
        <time>2024-04-24T12:54:10.596Z</time>
      </trkpt>
      <trkpt lat="52.392455" lon="13.370249">
        <ele>46.236385</ele>
        <time>2024-04-24T12:54:13.257Z</time>
      </trkpt>
      <trkpt lat="52.392885" lon="13.369016">
        <ele>46.185031</ele>
        <time>2024-04-24T12:54:32.025Z</time>
      </trkpt>
      <trkpt lat="52.393358" lon="13.367646">
        <ele>46.200567</ele>
        <time>2024-04-24T12:54:54.126Z</time>
      </trkpt>
      <trkpt lat="52.394542" lon="13.364303">
        <ele>47.065407</ele>
        <time>2024-04-24T12:55:51.051Z</time>
      </trkpt>
      <trkpt lat="52.394982" lon="13.363085">
        <ele>47.506635</ele>
        <time>2024-04-24T12:56:12.385Z</time>
      </trkpt>
      <trkpt lat="52.396029" lon="13.360873">
        <ele>48.319790</ele>
        <time>2024-04-24T12:56:55.078Z</time>
      </trkpt>
      <trkpt lat="52.396930" lon="13.358956">
        <ele>48.614270</ele>
        <time>2024-04-24T12:57:30.277Z</time>
      </trkpt>
      <trkpt lat="52.397368" lon="13.358279">
        <ele>48.619125</ele>
        <time>2024-04-24T12:57:43.554Z</time>
      </trkpt>
      <trkpt lat="52.398839" lon="13.356022">
        <ele>47.894255</ele>
        <time>2024-04-24T12:58:25.918Z</time>
      </trkpt>
      <trkpt lat="52.401060" lon="13.352634">
        <ele>46.498810</ele>
        <time>2024-04-24T12:59:29.604Z</time>
      </trkpt>
      <trkpt lat="52.401191" lon="13.352436">
        <ele>46.416395</ele>
        <time>2024-04-24T12:59:33.354Z</time>
      </trkpt>
      <trkpt lat="52.401242" lon="13.352412">
        <ele>46.391855</ele>
        <time>2024-04-24T12:59:34.453Z</time>
      </trkpt>
      <trkpt lat="52.401300" lon="13.352439">
        <ele>46.363970</ele>
        <time>2024-04-24T12:59:35.697Z</time>
      </trkpt>
      <trkpt lat="52.401723" lon="13.352886">
        <ele>46.150014</ele>
        <time>2024-04-24T12:59:46.355Z</time>
      </trkpt>
      <trkpt lat="52.401944" lon="13.352831">
        <ele>46.087459</ele>
        <time>2024-04-24T12:59:51.078Z</time>
      </trkpt>
      <trkpt lat="52.401987" lon="13.352870">
        <ele>46.073706</ele>
        <time>2024-04-24T12:59:52.124Z</time>
      </trkpt>
      <trkpt lat="52.402060" lon="13.352936">
        <ele>46.050375</ele>
        <time>2024-04-24T12:59:54.468Z</time>
      </trkpt>
      <trkpt lat="52.402086" lon="13.352863">
        <ele>46.035943</ele>
        <time>2024-04-24T12:59:55.574Z</time>
      </trkpt>
      <trkpt lat="52.402137" lon="13.352733">
        <ele>46.009554</ele>
        <time>2024-04-24T12:59:57.576Z</time>
      </trkpt>
      <trkpt lat="52.402170" lon="13.352628">
        <ele>45.989388</ele>
        <time>2024-04-24T12:59:59.083Z</time>
      </trkpt>
      <trkpt lat="52.402184" lon="13.352475">
        <ele>45.962973</ele>
        <time>2024-04-24T13:00:01.110Z</time>
      </trkpt>
      <trkpt lat="52.402153" lon="13.352371">
        <ele>45.943210</ele>
        <time>2024-04-24T13:00:02.642Z</time>
      </trkpt>
      <trkpt lat="52.401637" lon="13.351758">
        <ele>45.764868</ele>
        <time>2024-04-24T13:00:16.310Z</time>
      </trkpt>
      <trkpt lat="52.401833" lon="13.351449">
        <ele>45.688763</ele>
        <time>2024-04-24T13:00:22.121Z</time>
      </trkpt>
      <trkpt lat="52.404664" lon="13.346994">
        <ele>45.803913</ele>
        <time>2024-04-24T13:01:49.736Z</time>
      </trkpt>
      <trkpt lat="52.405550" lon="13.345600">
        <ele>46.150676</ele>
        <time>2024-04-24T13:02:19.158Z</time>
      </trkpt>
      <trkpt lat="52.405851" lon="13.345123">
        <ele>46.270901</ele>
        <time>2024-04-24T13:02:29.451Z</time>
      </trkpt>
      <trkpt lat="52.407106" lon="13.343163">
        <ele>46.754224</ele>
        <time>2024-04-24T13:03:11.047Z</time>
      </trkpt>
      <trkpt lat="52.407185" lon="13.343026">
        <ele>46.727366</ele>
        <time>2024-04-24T13:03:13.688Z</time>
      </trkpt>
      <trkpt lat="52.408429" lon="13.341077">
        <ele>46.281556</ele>
        <time>2024-04-24T13:03:50.540Z</time>
      </trkpt>
      <trkpt lat="52.408780" lon="13.340720">
        <ele>46.003472</ele>
        <time>2024-04-24T13:03:58.946Z</time>
      </trkpt>
      <trkpt lat="52.409632" lon="13.339838">
        <ele>45.325105</ele>
        <time>2024-04-24T13:04:19.425Z</time>
      </trkpt>
      <trkpt lat="52.409716" lon="13.339705">
        <ele>45.246486</ele>
        <time>2024-04-24T13:04:21.811Z</time>
      </trkpt>
      <trkpt lat="52.409725" lon="13.339423">
        <ele>45.132970</ele>
        <time>2024-04-24T13:04:25.287Z</time>
      </trkpt>
      <trkpt lat="52.409543" lon="13.338987">
        <ele>44.987364</ele>
        <time>2024-04-24T13:04:31.870Z</time>
      </trkpt>
      <trkpt lat="52.409487" lon="13.338852">
        <ele>44.942370</ele>
        <time>2024-04-24T13:04:33.901Z</time>
      </trkpt>
      <trkpt lat="52.408426" lon="13.336098">
        <ele>44.227166</ele>
        <time>2024-04-24T13:05:16.285Z</time>
      </trkpt>
      <trkpt lat="52.407426" lon="13.333373">
        <ele>44.182628</ele>
        <time>2024-04-24T13:05:59.162Z</time>
      </trkpt>
      <trkpt lat="52.406907" lon="13.331967">
        <ele>44.368645</ele>
        <time>2024-04-24T13:06:22.882Z</time>
      </trkpt>
      <trkpt lat="52.406362" lon="13.330481">
        <ele>44.845343</ele>
        <time>2024-04-24T13:06:49.218Z</time>
      </trkpt>
      <trkpt lat="52.405288" lon="13.327614">
        <ele>45.553247</ele>
        <time>2024-04-24T13:07:39.155Z</time>
      </trkpt>
      <trkpt lat="52.405280" lon="13.327594">
        <ele>45.557268</ele>
        <time>2024-04-24T13:07:39.472Z</time>
      </trkpt>
      <trkpt lat="52.405237" lon="13.327476">
        <ele>45.580373</ele>
        <time>2024-04-24T13:07:41.301Z</time>
      </trkpt>
      <trkpt lat="52.405125" lon="13.327202">
        <ele>45.635817</ele>
        <time>2024-04-24T13:07:45.894Z</time>
      </trkpt>
      <trkpt lat="52.404964" lon="13.326806">
        <ele>45.695665</ele>
        <time>2024-04-24T13:07:52.317Z</time>
      </trkpt>
      <trkpt lat="52.404809" lon="13.326405">
        <ele>45.691355</ele>
        <time>2024-04-24T13:07:58.640Z</time>
      </trkpt>
      <trkpt lat="52.401778" lon="13.318497">
        <ele>45.575012</ele>
        <time>2024-04-24T13:10:05.081Z</time>
      </trkpt>
      <trkpt lat="52.401010" lon="13.316429">
        <ele>45.482423</ele>
        <time>2024-04-24T13:10:37.589Z</time>
      </trkpt>
      <trkpt lat="52.400717" lon="13.315641">
        <ele>45.431041</ele>
        <time>2024-04-24T13:10:49.845Z</time>
      </trkpt>
      <trkpt lat="52.400451" lon="13.315101">
        <ele>45.392397</ele>
        <time>2024-04-24T13:10:59.054Z</time>
      </trkpt>
      <trkpt lat="52.399452" lon="13.313486">
        <ele>45.675493</ele>
        <time>2024-04-24T13:11:30.810Z</time>
      </trkpt>
      <trkpt lat="52.398806" lon="13.312441">
        <ele>45.993189</ele>
        <time>2024-04-24T13:11:53.941Z</time>
      </trkpt>
      <trkpt lat="52.398690" lon="13.312267">
        <ele>46.045862</ele>
        <time>2024-04-24T13:11:57.984Z</time>
      </trkpt>
      <trkpt lat="52.398616" lon="13.312106">
        <ele>46.087058</ele>
        <time>2024-04-24T13:12:01.106Z</time>
      </trkpt>
      <trkpt lat="52.398810" lon="13.311879">
        <ele>46.166902</ele>
        <time>2024-04-24T13:12:07.074Z</time>
      </trkpt>
      <trkpt lat="52.399536" lon="13.311160">
        <ele>46.451032</ele>
        <time>2024-04-24T13:12:27.855Z</time>
      </trkpt>
      <trkpt lat="52.400804" lon="13.309821">
        <ele>46.211173</ele>
        <time>2024-04-24T13:13:00.402Z</time>
      </trkpt>
      <trkpt lat="52.403009" lon="13.307384">
        <ele>44.959929</ele>
        <time>2024-04-24T13:13:55.572Z</time>
      </trkpt>
      <trkpt lat="52.403423" lon="13.306932">
        <ele>44.864351</ele>
        <time>2024-04-24T13:14:06.540Z</time>
      </trkpt>
      <trkpt lat="52.403607" lon="13.306824">
        <ele>44.826798</ele>
        <time>2024-04-24T13:14:10.791Z</time>
      </trkpt>
      <trkpt lat="52.403769" lon="13.306792">
        <ele>44.795446</ele>
        <time>2024-04-24T13:14:14.356Z</time>
      </trkpt>
      <trkpt lat="52.404060" lon="13.306876">
        <ele>44.738672</ele>
        <time>2024-04-24T13:14:20.757Z</time>
      </trkpt>
      <trkpt lat="52.404123" lon="13.306908">
        <ele>44.725999</ele>
        <time>2024-04-24T13:14:22.179Z</time>
      </trkpt>
      <trkpt lat="52.404304" lon="13.306998">
        <ele>44.689657</ele>
        <time>2024-04-24T13:14:26.249Z</time>
      </trkpt>
      <trkpt lat="52.404534" lon="13.306782">
        <ele>44.645472</ele>
        <time>2024-04-24T13:14:32.061Z</time>
      </trkpt>
      <trkpt lat="52.405163" lon="13.306189">
        <ele>44.601667</ele>
        <time>2024-04-24T13:14:48.100Z</time>
      </trkpt>
      <trkpt lat="52.405529" lon="13.305799">
        <ele>44.575313</ele>
        <time>2024-04-24T13:14:57.802Z</time>
      </trkpt>
      <trkpt lat="52.405769" lon="13.305469">
        <ele>44.556402</ele>
        <time>2024-04-24T13:15:04.668Z</time>
      </trkpt>
      <trkpt lat="52.405814" lon="13.305345">
        <ele>44.551088</ele>
        <time>2024-04-24T13:15:06.673Z</time>
      </trkpt>
      <trkpt lat="52.405862" lon="13.304945">
        <ele>44.541410</ele>
        <time>2024-04-24T13:15:12.121Z</time>
      </trkpt>
      <trkpt lat="52.406140" lon="13.304660">
        <ele>44.548653</ele>
        <time>2024-04-24T13:15:19.383Z</time>
      </trkpt>
      <trkpt lat="52.406283" lon="13.304514">
        <ele>44.552375</ele>
        <time>2024-04-24T13:15:23.149Z</time>
      </trkpt>
      <trkpt lat="52.406906" lon="13.303941">
        <ele>44.568157</ele>
        <time>2024-04-24T13:15:39.351Z</time>
      </trkpt>
      <trkpt lat="52.406935" lon="13.303881">
        <ele>44.569188</ele>
        <time>2024-04-24T13:15:40.425Z</time>
      </trkpt>
      <trkpt lat="52.406946" lon="13.303747">
        <ele>44.571010</ele>
        <time>2024-04-24T13:15:42.322Z</time>
      </trkpt>
      <trkpt lat="52.406966" lon="13.303561">
        <ele>44.573556</ele>
        <time>2024-04-24T13:15:44.967Z</time>
      </trkpt>
      <trkpt lat="52.407044" lon="13.303415">
        <ele>44.576171</ele>
        <time>2024-04-24T13:15:47.697Z</time>
      </trkpt>
      <trkpt lat="52.407496" lon="13.302967">
        <ele>44.569202</ele>
        <time>2024-04-24T13:15:59.287Z</time>
      </trkpt>
      <trkpt lat="52.407955" lon="13.302528">
        <ele>44.554012</ele>
        <time>2024-04-24T13:16:10.812Z</time>
      </trkpt>
      <trkpt lat="52.408546" lon="13.301860">
        <ele>44.533491</ele>
        <time>2024-04-24T13:16:26.686Z</time>
      </trkpt>
      <trkpt lat="52.409033" lon="13.301279">
        <ele>44.573530</ele>
        <time>2024-04-24T13:16:40.868Z</time>
      </trkpt>
      <trkpt lat="52.409487" lon="13.300666">
        <ele>44.636758</ele>
        <time>2024-04-24T13:16:55.094Z</time>
      </trkpt>
      <trkpt lat="52.409817" lon="13.300221">
        <ele>44.682692</ele>
        <time>2024-04-24T13:17:05.124Z</time>
      </trkpt>
      <trkpt lat="52.410696" lon="13.299040">
        <ele>43.988290</ele>
        <time>2024-04-24T13:17:29.166Z</time>
      </trkpt>
      <trkpt lat="52.410916" lon="13.298810">
        <ele>43.741086</ele>
        <time>2024-04-24T13:17:34.255Z</time>
      </trkpt>
      <trkpt lat="52.411349" lon="13.298333">
        <ele>43.246845</ele>
        <time>2024-04-24T13:17:44.361Z</time>
      </trkpt>
      <trkpt lat="52.411501" lon="13.298151">
        <ele>43.068520</ele>
        <time>2024-04-24T13:17:47.866Z</time>
      </trkpt>
      <trkpt lat="52.411680" lon="13.297945">
        <ele>42.706051</ele>
        <time>2024-04-24T13:17:52.026Z</time>
      </trkpt>
      <trkpt lat="52.411712" lon="13.297909">
        <ele>42.632755</ele>
        <time>2024-04-24T13:17:52.736Z</time>
      </trkpt>
      <trkpt lat="52.411797" lon="13.297794">
        <ele>42.424617</ele>
        <time>2024-04-24T13:17:54.772Z</time>
      </trkpt>
      <trkpt lat="52.411847" lon="13.297743">
        <ele>42.313402</ele>
        <time>2024-04-24T13:17:55.888Z</time>
      </trkpt>
      <trkpt lat="52.411950" lon="13.297636">
        <ele>42.083110</ele>
        <time>2024-04-24T13:17:58.185Z</time>
      </trkpt>
      <trkpt lat="52.412439" lon="13.297133">
        <ele>40.992853</ele>
        <time>2024-04-24T13:18:08.791Z</time>
      </trkpt>
      <trkpt lat="52.413049" lon="13.296503">
        <ele>39.631267</ele>
        <time>2024-04-24T13:18:21.975Z</time>
      </trkpt>
      <trkpt lat="52.413712" lon="13.295843">
        <ele>38.238008</ele>
        <time>2024-04-24T13:18:36.282Z</time>
      </trkpt>
      <trkpt lat="52.414215" lon="13.295322">
        <ele>37.169685</ele>
        <time>2024-04-24T13:18:47.275Z</time>
      </trkpt>
      <trkpt lat="52.413395" lon="13.292601">
        <ele>34.665804</ele>
        <time>2024-04-24T13:19:22.592Z</time>
      </trkpt>
      <trkpt lat="52.413203" lon="13.292152">
        <ele>34.258733</ele>
        <time>2024-04-24T13:19:29.468Z</time>
      </trkpt>
      <trkpt lat="52.412632" lon="13.291021">
        <ele>34.080410</ele>
        <time>2024-04-24T13:19:48.651Z</time>
      </trkpt>
      <trkpt lat="52.412293" lon="13.290625">
        <ele>34.020770</ele>
        <time>2024-04-24T13:19:57.986Z</time>
      </trkpt>
      <trkpt lat="52.411221" lon="13.288719">
        <ele>34.296373</ele>
        <time>2024-04-24T13:20:35.010Z</time>
      </trkpt>
      <trkpt lat="52.409760" lon="13.286107">
        <ele>35.120377</ele>
        <time>2024-04-24T13:21:27.951Z</time>
      </trkpt>
      <trkpt lat="52.409574" lon="13.285758">
        <ele>35.234942</ele>
        <time>2024-04-24T13:21:34.750Z</time>
      </trkpt>
      <trkpt lat="52.408384" lon="13.283603">
        <ele>35.515242</ele>
        <time>2024-04-24T13:22:16.076Z</time>
      </trkpt>
      <trkpt lat="52.408085" lon="13.283032">
        <ele>35.399662</ele>
        <time>2024-04-24T13:22:26.099Z</time>
      </trkpt>
      <trkpt lat="52.407814" lon="13.282388">
        <ele>35.204916</ele>
        <time>2024-04-24T13:22:36.226Z</time>
      </trkpt>
      <trkpt lat="52.406234" lon="13.279613">
        <ele>34.309225</ele>
        <time>2024-04-24T13:23:24.151Z</time>
      </trkpt>
      <trkpt lat="52.405815" lon="13.278801">
        <ele>34.175240</ele>
        <time>2024-04-24T13:23:38.916Z</time>
      </trkpt>
      <trkpt lat="52.405365" lon="13.278005">
        <ele>34.337285</ele>
        <time>2024-04-24T13:23:54.650Z</time>
      </trkpt>
      <trkpt lat="52.404883" lon="13.277213">
        <ele>34.504329</ele>
        <time>2024-04-24T13:24:11.050Z</time>
      </trkpt>
      <trkpt lat="52.404730" lon="13.276869">
        <ele>34.567897</ele>
        <time>2024-04-24T13:24:17.207Z</time>
      </trkpt>
      <trkpt lat="52.404630" lon="13.276617">
        <ele>34.580610</ele>
        <time>2024-04-24T13:24:21.546Z</time>
      </trkpt>
      <trkpt lat="52.404391" lon="13.275727">
        <ele>34.608147</ele>
        <time>2024-04-24T13:24:34.823Z</time>
      </trkpt>
      <trkpt lat="52.403703" lon="13.271955">
        <ele>34.665539</ele>
        <time>2024-04-24T13:25:28.045Z</time>
      </trkpt>
      <trkpt lat="52.403600" lon="13.271090">
        <ele>34.622358</ele>
        <time>2024-04-24T13:25:40.775Z</time>
      </trkpt>
      <trkpt lat="52.403559" lon="13.270404">
        <ele>34.424152</ele>
        <time>2024-04-24T13:25:49.943Z</time>
      </trkpt>
      <trkpt lat="52.403577" lon="13.269091">
        <ele>34.046497</ele>
        <time>2024-04-24T13:26:06.639Z</time>
      </trkpt>
      <trkpt lat="52.403994" lon="13.269067">
        <ele>33.849833</ele>
        <time>2024-04-24T13:26:18.012Z</time>
      </trkpt>
      <trkpt lat="52.404033" lon="13.268979">
        <ele>33.816456</ele>
        <time>2024-04-24T13:26:19.778Z</time>
      </trkpt>
      <trkpt lat="52.404046" lon="13.268978">
        <ele>33.804296</ele>
        <time>2024-04-24T13:26:20.016Z</time>
      </trkpt>
      <trkpt lat="52.404400" lon="13.268901">
        <ele>33.470648</ele>
        <time>2024-04-24T13:26:27.116Z</time>
      </trkpt>
      <trkpt lat="52.404481" lon="13.268879">
        <ele>33.393937</ele>
        <time>2024-04-24T13:26:28.740Z</time>
      </trkpt>
      <trkpt lat="52.404553" lon="13.268863">
        <ele>33.326050</ele>
        <time>2024-04-24T13:26:30.177Z</time>
      </trkpt>
      <trkpt lat="52.404549" lon="13.268796">
        <ele>33.287677</ele>
        <time>2024-04-24T13:26:30.991Z</time>
      </trkpt>
      <trkpt lat="52.404519" lon="13.268696">
        <ele>33.224157</ele>
        <time>2024-04-24T13:26:32.329Z</time>
      </trkpt>
      <trkpt lat="52.404500" lon="13.268638">
        <ele>33.186632</ele>
        <time>2024-04-24T13:26:33.109Z</time>
      </trkpt>
      <trkpt lat="52.404490" lon="13.268446">
        <ele>33.076792</ele>
        <time>2024-04-24T13:26:35.383Z</time>
      </trkpt>
      <trkpt lat="52.404565" lon="13.267459">
        <ele>32.509844</ele>
        <time>2024-04-24T13:26:47.225Z</time>
      </trkpt>
      <trkpt lat="52.404710" lon="13.266545">
        <ele>32.106091</ele>
        <time>2024-04-24T13:26:59.114Z</time>
      </trkpt>
      <trkpt lat="52.404918" lon="13.265223">
        <ele>31.948757</ele>
        <time>2024-04-24T13:27:17.272Z</time>
      </trkpt>
      <trkpt lat="52.405052" lon="13.264588">
        <ele>31.871325</ele>
        <time>2024-04-24T13:27:26.305Z</time>
      </trkpt>
      <trkpt lat="52.405188" lon="13.264107">
        <ele>31.810231</ele>
        <time>2024-04-24T13:27:33.499Z</time>
      </trkpt>
      <trkpt lat="52.405387" lon="13.263606">
        <ele>31.793937</ele>
        <time>2024-04-24T13:27:41.677Z</time>
      </trkpt>
      <trkpt lat="52.406292" lon="13.261761">
        <ele>31.763947</ele>
        <time>2024-04-24T13:28:13.845Z</time>
      </trkpt>
      <trkpt lat="52.406391" lon="13.261531">
        <ele>31.760018</ele>
        <time>2024-04-24T13:28:17.592Z</time>
      </trkpt>
      <trkpt lat="52.406483" lon="13.261221">
        <ele>31.755065</ele>
        <time>2024-04-24T13:28:22.156Z</time>
      </trkpt>
      <trkpt lat="52.406643" lon="13.260302">
        <ele>31.741332</ele>
        <time>2024-04-24T13:28:34.968Z</time>
      </trkpt>
      <trkpt lat="52.406760" lon="13.259390">
        <ele>31.727941</ele>
        <time>2024-04-24T13:28:47.538Z</time>
      </trkpt>
      <trkpt lat="52.406775" lon="13.258780">
        <ele>31.744416</ele>
        <time>2024-04-24T13:28:55.993Z</time>
      </trkpt>
      <trkpt lat="52.406721" lon="13.257255">
        <ele>32.079641</ele>
        <time>2024-04-24T13:29:17.462Z</time>
      </trkpt>
      <trkpt lat="52.406484" lon="13.254706">
        <ele>33.502564</ele>
        <time>2024-04-24T13:29:57.790Z</time>
      </trkpt>
      <trkpt lat="52.406251" lon="13.253072">
        <ele>35.007181</ele>
        <time>2024-04-24T13:30:31.038Z</time>
      </trkpt>
      <trkpt lat="52.406286" lon="13.252736">
        <ele>35.369772</ele>
        <time>2024-04-24T13:30:37.836Z</time>
      </trkpt>
      <trkpt lat="52.406434" lon="13.252243">
        <ele>35.955522</ele>
        <time>2024-04-24T13:30:48.845Z</time>
      </trkpt>
      <trkpt lat="52.406607" lon="13.251971">
        <ele>36.374415</ele>
        <time>2024-04-24T13:30:56.742Z</time>
      </trkpt>
      <trkpt lat="52.407077" lon="13.251815">
        <ele>37.212390</ele>
        <time>2024-04-24T13:31:12.435Z</time>
      </trkpt>
      <trkpt lat="52.407678" lon="13.251679">
        <ele>38.136761</ele>
        <time>2024-04-24T13:31:32.097Z</time>
      </trkpt>
      <trkpt lat="52.407505" lon="13.249510">
        <ele>37.788540</ele>
        <time>2024-04-24T13:32:00.395Z</time>
      </trkpt>
      <trkpt lat="52.407517" lon="13.249426">
        <ele>37.774807</ele>
        <time>2024-04-24T13:32:01.468Z</time>
      </trkpt>
      <trkpt lat="52.407563" lon="13.249348">
        <ele>37.757536</ele>
        <time>2024-04-24T13:32:02.793Z</time>
      </trkpt>
      <trkpt lat="52.407786" lon="13.249320">
        <ele>37.699174</ele>
        <time>2024-04-24T13:32:07.130Z</time>
      </trkpt>
      <trkpt lat="52.408157" lon="13.249226">
        <ele>37.380949</ele>
        <time>2024-04-24T13:32:14.471Z</time>
      </trkpt>
      <trkpt lat="52.408607" lon="13.249145">
        <ele>36.952460</ele>
        <time>2024-04-24T13:32:23.360Z</time>
      </trkpt>
      <trkpt lat="52.409084" lon="13.249289">
        <ele>36.493382</ele>
        <time>2024-04-24T13:32:32.794Z</time>
      </trkpt>
      <trkpt lat="52.409419" lon="13.249323">
        <ele>36.175694</ele>
        <time>2024-04-24T13:32:39.435Z</time>
      </trkpt>
      <trkpt lat="52.410776" lon="13.249379">
        <ele>35.920904</ele>
        <time>2024-04-24T13:33:09.068Z</time>
      </trkpt>
      <trkpt lat="52.411483" lon="13.249333">
        <ele>35.888497</ele>
        <time>2024-04-24T13:33:25.889Z</time>
      </trkpt>
      <trkpt lat="52.412619" lon="13.249221">
        <ele>35.927103</ele>
        <time>2024-04-24T13:33:52.848Z</time>
      </trkpt>
      <trkpt lat="52.413547" lon="13.248989">
        <ele>35.756937</ele>
        <time>2024-04-24T13:34:12.746Z</time>
      </trkpt>
      <trkpt lat="52.413997" lon="13.248782">
        <ele>35.495501</ele>
        <time>2024-04-24T13:34:22.279Z</time>
      </trkpt>
      <trkpt lat="52.414170" lon="13.248571">
        <ele>35.374890</ele>
        <time>2024-04-24T13:34:26.559Z</time>
      </trkpt>
      <trkpt lat="52.414203" lon="13.248539">
        <ele>35.353443</ele>
        <time>2024-04-24T13:34:27.335Z</time>
      </trkpt>
      <trkpt lat="52.414439" lon="13.248416">
        <ele>35.214923</ele>
        <time>2024-04-24T13:34:32.203Z</time>
      </trkpt>
      <trkpt lat="52.415876" lon="13.248033">
        <ele>35.296699</ele>
        <time>2024-04-24T13:35:03.780Z</time>
      </trkpt>
      <trkpt lat="52.416345" lon="13.248139">
        <ele>35.470757</ele>
        <time>2024-04-24T13:35:15.504Z</time>
      </trkpt>
      <trkpt lat="52.416601" lon="13.248247">
        <ele>35.567941</ele>
        <time>2024-04-24T13:35:22.608Z</time>
      </trkpt>
      <trkpt lat="52.417674" lon="13.247918">
        <ele>37.375307</ele>
        <time>2024-04-24T13:35:57.562Z</time>
      </trkpt>
      <trkpt lat="52.417739" lon="13.247896">
        <ele>37.493269</ele>
        <time>2024-04-24T13:35:59.658Z</time>
      </trkpt>
      <trkpt lat="52.418574" lon="13.248608">
        <ele>39.040515</ele>
        <time>2024-04-24T13:36:29.325Z</time>
      </trkpt>
      <trkpt lat="52.418657" lon="13.248682">
        <ele>39.150957</ele>
        <time>2024-04-24T13:36:32.073Z</time>
      </trkpt>
      <trkpt lat="52.418925" lon="13.248893">
        <ele>39.498492</ele>
        <time>2024-04-24T13:36:41.274Z</time>
      </trkpt>
      <trkpt lat="52.419213" lon="13.249046">
        <ele>39.852391</ele>
        <time>2024-04-24T13:36:50.411Z</time>
      </trkpt>
      <trkpt lat="52.419355" lon="13.249120">
        <ele>40.026570</ele>
        <time>2024-04-24T13:36:54.832Z</time>
      </trkpt>
      <trkpt lat="52.419458" lon="13.248942">
        <ele>40.201504</ele>
        <time>2024-04-24T13:36:59.186Z</time>
      </trkpt>
      <trkpt lat="52.419670" lon="13.248577">
        <ele>40.560855</ele>
        <time>2024-04-24T13:37:07.492Z</time>
      </trkpt>
      <trkpt lat="52.419928" lon="13.248132">
        <ele>40.880189</ele>
        <time>2024-04-24T13:37:16.861Z</time>
      </trkpt>
      <trkpt lat="52.420767" lon="13.246624">
        <ele>40.552887</ele>
        <time>2024-04-24T13:37:44.797Z</time>
      </trkpt>
      <trkpt lat="52.421158" lon="13.246165">
        <ele>40.427686</ele>
        <time>2024-04-24T13:37:54.969Z</time>
      </trkpt>
      <trkpt lat="52.421558" lon="13.245664">
        <ele>40.358541</ele>
        <time>2024-04-24T13:38:05.799Z</time>
      </trkpt>
      <trkpt lat="52.421607" lon="13.245589">
        <ele>40.349333</ele>
        <time>2024-04-24T13:38:07.241Z</time>
      </trkpt>
      <trkpt lat="52.421559" lon="13.245473">
        <ele>40.337589</ele>
        <time>2024-04-24T13:38:09.063Z</time>
      </trkpt>
      <trkpt lat="52.421458" lon="13.245090">
        <ele>40.302631</ele>
        <time>2024-04-24T13:38:14.619Z</time>
      </trkpt>
      <trkpt lat="52.421415" lon="13.244294">
        <ele>40.235684</ele>
        <time>2024-04-24T13:38:25.697Z</time>
      </trkpt>
      <trkpt lat="52.421410" lon="13.244173">
        <ele>40.225524</ele>
        <time>2024-04-24T13:38:27.490Z</time>
      </trkpt>
      <trkpt lat="52.421409" lon="13.244146">
        <ele>40.223258</ele>
        <time>2024-04-24T13:38:27.872Z</time>
      </trkpt>
      <trkpt lat="52.421396" lon="13.243837">
        <ele>40.197309</ele>
        <time>2024-04-24T13:38:32.234Z</time>
      </trkpt>
      <trkpt lat="52.421373" lon="13.243298">
        <ele>40.381820</ele>
        <time>2024-04-24T13:38:40.185Z</time>
      </trkpt>
      <trkpt lat="52.421310" lon="13.241859">
        <ele>41.189647</ele>
        <time>2024-04-24T13:39:03.068Z</time>
      </trkpt>
      <trkpt lat="52.421277" lon="13.241107">
        <ele>41.611811</ele>
        <time>2024-04-24T13:39:16.690Z</time>
      </trkpt>
      <trkpt lat="52.421226" lon="13.239979">
        <ele>42.343371</ele>
        <time>2024-04-24T13:39:36.971Z</time>
      </trkpt>
      <trkpt lat="52.421186" lon="13.238841">
        <ele>43.133882</ele>
        <time>2024-04-24T13:39:56.456Z</time>
      </trkpt>
      <trkpt lat="52.421179" lon="13.237690">
        <ele>43.900281</ele>
        <time>2024-04-24T13:40:15.288Z</time>
      </trkpt>
      <trkpt lat="52.421179" lon="13.236713">
        <ele>44.173678</ele>
        <time>2024-04-24T13:40:30.495Z</time>
      </trkpt>
      <trkpt lat="52.421173" lon="13.235746">
        <ele>44.444290</ele>
        <time>2024-04-24T13:40:44.792Z</time>
      </trkpt>
      <trkpt lat="52.421159" lon="13.235438">
        <ele>44.530717</ele>
        <time>2024-04-24T13:40:49.284Z</time>
      </trkpt>
      <trkpt lat="52.421048" lon="13.234751">
        <ele>44.695351</ele>
        <time>2024-04-24T13:40:59.389Z</time>
      </trkpt>
      <trkpt lat="52.420952" lon="13.234267">
        <ele>44.646896</ele>
        <time>2024-04-24T13:41:06.483Z</time>
      </trkpt>
      <trkpt lat="52.420918" lon="13.234072">
        <ele>44.627588</ele>
        <time>2024-04-24T13:41:09.257Z</time>
      </trkpt>
      <trkpt lat="52.420757" lon="13.233204">
        <ele>44.541212</ele>
        <time>2024-04-24T13:41:21.461Z</time>
      </trkpt>
      <trkpt lat="52.420705" lon="13.232757">
        <ele>44.497888</ele>
        <time>2024-04-24T13:41:27.406Z</time>
      </trkpt>
      <trkpt lat="52.420700" lon="13.232126">
        <ele>44.437808</ele>
        <time>2024-04-24T13:41:35.505Z</time>
      </trkpt>
      <trkpt lat="52.420751" lon="13.231041">
        <ele>44.213875</ele>
        <time>2024-04-24T13:41:49.246Z</time>
      </trkpt>
      <trkpt lat="52.420810" lon="13.229970">
        <ele>43.973160</ele>
        <time>2024-04-24T13:42:03.126Z</time>
      </trkpt>
      <trkpt lat="52.420871" lon="13.228907">
        <ele>43.745976</ele>
        <time>2024-04-24T13:42:17.362Z</time>
      </trkpt>
      <trkpt lat="52.420901" lon="13.228468">
        <ele>43.687507</ele>
        <time>2024-04-24T13:42:23.294Z</time>
      </trkpt>
      <trkpt lat="52.420924" lon="13.228172">
        <ele>43.648012</ele>
        <time>2024-04-24T13:42:27.200Z</time>
      </trkpt>
      <trkpt lat="52.420932" lon="13.228077">
        <ele>43.635318</ele>
        <time>2024-04-24T13:42:28.425Z</time>
      </trkpt>
      <trkpt lat="52.421081" lon="13.227040">
        <ele>43.494305</ele>
        <time>2024-04-24T13:42:42.137Z</time>
      </trkpt>
      <trkpt lat="52.421145" lon="13.226942">
        <ele>43.475300</ele>
        <time>2024-04-24T13:42:43.994Z</time>
      </trkpt>
      <trkpt lat="52.421265" lon="13.226854">
        <ele>43.446770</ele>
        <time>2024-04-24T13:42:46.881Z</time>
      </trkpt>
      <trkpt lat="52.421165" lon="13.226456">
        <ele>43.389796</ele>
        <time>2024-04-24T13:42:52.729Z</time>
      </trkpt>
      <trkpt lat="52.421085" lon="13.226153">
        <ele>43.363081</ele>
        <time>2024-04-24T13:42:57.355Z</time>
      </trkpt>
      <trkpt lat="52.420918" lon="13.225476">
        <ele>43.328120</ele>
        <time>2024-04-24T13:43:07.037Z</time>
      </trkpt>
      <trkpt lat="52.420901" lon="13.225189">
        <ele>43.314316</ele>
        <time>2024-04-24T13:43:10.868Z</time>
      </trkpt>
      <trkpt lat="52.421009" lon="13.225155">
        <ele>43.305684</ele>
        <time>2024-04-24T13:43:13.278Z</time>
      </trkpt>
      <trkpt lat="52.421204" lon="13.225121">
        <ele>43.290290</ele>
        <time>2024-04-24T13:43:17.471Z</time>
      </trkpt>
      <trkpt lat="52.422449" lon="13.224964">
        <ele>43.553543</ele>
        <time>2024-04-24T13:43:45.243Z</time>
      </trkpt>
      <trkpt lat="52.422510" lon="13.224956">
        <ele>43.592960</ele>
        <time>2024-04-24T13:43:46.843Z</time>
      </trkpt>
      <trkpt lat="52.422958" lon="13.224899">
        <ele>43.882398</ele>
        <time>2024-04-24T13:43:58.452Z</time>
      </trkpt>
      <trkpt lat="52.423156" lon="13.224873">
        <ele>44.010344</ele>
        <time>2024-04-24T13:44:03.853Z</time>
      </trkpt>
      <trkpt lat="52.423425" lon="13.224863">
        <ele>44.183660</ele>
        <time>2024-04-24T13:44:11.443Z</time>
      </trkpt>
      <trkpt lat="52.423577" lon="13.224827">
        <ele>44.282584</ele>
        <time>2024-04-24T13:44:16.043Z</time>
      </trkpt>
      <trkpt lat="52.424523" lon="13.224718">
        <ele>44.739737</ele>
        <time>2024-04-24T13:44:40.822Z</time>
      </trkpt>
      <trkpt lat="52.424488" lon="13.224612">
        <ele>44.772627</ele>
        <time>2024-04-24T13:44:42.810Z</time>
      </trkpt>
      <trkpt lat="52.424264" lon="13.223923">
        <ele>44.985675</ele>
        <time>2024-04-24T13:44:54.486Z</time>
      </trkpt>
      <trkpt lat="52.423931" lon="13.222896">
        <ele>44.883361</ele>
        <time>2024-04-24T13:45:10.623Z</time>
      </trkpt>
      <trkpt lat="52.423876" lon="13.222728">
        <ele>44.733530</ele>
        <time>2024-04-24T13:45:12.965Z</time>
      </trkpt>
      <trkpt lat="52.423480" lon="13.221508">
        <ele>43.647533</ele>
        <time>2024-04-24T13:45:29.296Z</time>
      </trkpt>
      <trkpt lat="52.423384" lon="13.221240">
        <ele>43.403298</ele>
        <time>2024-04-24T13:45:32.725Z</time>
      </trkpt>
      <trkpt lat="52.423071" lon="13.220250">
        <ele>42.400998</ele>
        <time>2024-04-24T13:45:45.002Z</time>
      </trkpt>
      <trkpt lat="52.422895" lon="13.219708">
        <ele>41.744827</ele>
        <time>2024-04-24T13:45:51.798Z</time>
      </trkpt>
      <trkpt lat="52.422773" lon="13.219332">
        <ele>41.289702</ele>
        <time>2024-04-24T13:45:56.494Z</time>
      </trkpt>
      <trkpt lat="52.422467" lon="13.218410">
        <ele>40.167992</ele>
        <time>2024-04-24T13:46:08.378Z</time>
      </trkpt>
      <trkpt lat="52.422333" lon="13.217980">
        <ele>39.766724</ele>
        <time>2024-04-24T13:46:14.078Z</time>
      </trkpt>
      <trkpt lat="52.422301" lon="13.217880">
        <ele>39.834422</ele>
        <time>2024-04-24T13:46:15.523Z</time>
      </trkpt>
      <trkpt lat="52.422031" lon="13.217053">
        <ele>40.396749</ele>
        <time>2024-04-24T13:46:28.315Z</time>
      </trkpt>
      <trkpt lat="52.421735" lon="13.216148">
        <ele>41.012364</ele>
        <time>2024-04-24T13:46:47.286Z</time>
      </trkpt>
      <trkpt lat="52.421658" lon="13.215910">
        <ele>41.173871</ele>
        <time>2024-04-24T13:46:52.794Z</time>
      </trkpt>
      <trkpt lat="52.420975" lon="13.213813">
        <ele>43.503156</ele>
        <time>2024-04-24T13:47:41.890Z</time>
      </trkpt>
      <trkpt lat="52.420269" lon="13.211639">
        <ele>45.276667</ele>
        <time>2024-04-24T13:48:22.437Z</time>
      </trkpt>
      <trkpt lat="52.419621" lon="13.209670">
        <ele>46.250148</ele>
        <time>2024-04-24T13:48:55.615Z</time>
      </trkpt>
      <trkpt lat="52.419573" lon="13.209509">
        <ele>46.335169</ele>
        <time>2024-04-24T13:48:58.317Z</time>
      </trkpt>
      <trkpt lat="52.419549" lon="13.209435">
        <ele>46.374931</ele>
        <time>2024-04-24T13:48:59.677Z</time>
      </trkpt>
      <trkpt lat="52.419379" lon="13.208914">
        <ele>46.655259</ele>
        <time>2024-04-24T13:49:09.114Z</time>
      </trkpt>
      <trkpt lat="52.419330" lon="13.208759">
        <ele>46.738087</ele>
        <time>2024-04-24T13:49:12.184Z</time>
      </trkpt>
      <trkpt lat="52.419155" lon="13.208212">
        <ele>47.031138</ele>
        <time>2024-04-24T13:49:22.573Z</time>
      </trkpt>
      <trkpt lat="52.419061" lon="13.207930">
        <ele>47.183605</ele>
        <time>2024-04-24T13:49:27.882Z</time>
      </trkpt>
      <trkpt lat="52.418619" lon="13.206570">
        <ele>47.654415</ele>
        <time>2024-04-24T13:49:52.771Z</time>
      </trkpt>
      <trkpt lat="52.418552" lon="13.206361">
        <ele>47.715443</ele>
        <time>2024-04-24T13:49:56.088Z</time>
      </trkpt>
      <trkpt lat="52.418332" lon="13.205684">
        <ele>47.913719</ele>
        <time>2024-04-24T13:50:06.898Z</time>
      </trkpt>
      <trkpt lat="52.418032" lon="13.204759">
        <ele>48.053013</ele>
        <time>2024-04-24T13:50:21.469Z</time>
      </trkpt>
      <trkpt lat="52.417539" lon="13.203241">
        <ele>47.761145</ele>
        <time>2024-04-24T13:50:43.977Z</time>
      </trkpt>
      <trkpt lat="52.417258" lon="13.202377">
        <ele>47.573966</ele>
        <time>2024-04-24T13:50:56.740Z</time>
      </trkpt>
      <trkpt lat="52.416665" lon="13.200691">
        <ele>46.526492</ele>
        <time>2024-04-24T13:51:23.579Z</time>
      </trkpt>
      <trkpt lat="52.416207" lon="13.199255">
        <ele>45.790264</ele>
        <time>2024-04-24T13:51:45.172Z</time>
      </trkpt>
      <trkpt lat="52.415836" lon="13.198154">
        <ele>45.366677</ele>
        <time>2024-04-24T13:52:02.702Z</time>
      </trkpt>
      <trkpt lat="52.415629" lon="13.197543">
        <ele>45.131308</ele>
        <time>2024-04-24T13:52:12.890Z</time>
      </trkpt>
      <trkpt lat="52.415368" lon="13.196771">
        <ele>45.301440</ele>
        <time>2024-04-24T13:52:26.122Z</time>
      </trkpt>
      <trkpt lat="52.415320" lon="13.196585">
        <ele>45.400432</ele>
        <time>2024-04-24T13:52:30.302Z</time>
      </trkpt>
      <trkpt lat="52.414550" lon="13.194302">
        <ele>46.611458</ele>
        <time>2024-04-24T13:53:17.606Z</time>
      </trkpt>
      <trkpt lat="52.414312" lon="13.193591">
        <ele>46.880445</ele>
        <time>2024-04-24T13:53:31.018Z</time>
      </trkpt>
      <trkpt lat="52.413830" lon="13.192137">
        <ele>47.429302</ele>
        <time>2024-04-24T13:53:57.873Z</time>
      </trkpt>
      <trkpt lat="52.412314" lon="13.187592">
        <ele>49.004154</ele>
        <time>2024-04-24T13:55:24.631Z</time>
      </trkpt>
      <trkpt lat="52.411487" lon="13.185105">
        <ele>49.283033</ele>
        <time>2024-04-24T13:56:09.546Z</time>
      </trkpt>
      <trkpt lat="52.408136" lon="13.175052">
        <ele>46.224543</ele>
        <time>2024-04-24T13:58:53.147Z</time>
      </trkpt>
      <trkpt lat="52.408030" lon="13.174732">
        <ele>46.121662</ele>
        <time>2024-04-24T13:58:58.527Z</time>
      </trkpt>
      <trkpt lat="52.407828" lon="13.174125">
        <ele>45.926302</ele>
        <time>2024-04-24T13:59:08.040Z</time>
      </trkpt>
      <trkpt lat="52.407205" lon="13.172252">
        <ele>44.694225</ele>
        <time>2024-04-24T13:59:38.121Z</time>
      </trkpt>
      <trkpt lat="52.406803" lon="13.171070">
        <ele>43.732974</ele>
        <time>2024-04-24T13:59:55.461Z</time>
      </trkpt>
      <trkpt lat="52.406760" lon="13.170945">
        <ele>43.589704</ele>
        <time>2024-04-24T13:59:57.275Z</time>
      </trkpt>
      <trkpt lat="52.406368" lon="13.169759">
        <ele>42.243003</ele>
        <time>2024-04-24T14:00:14.170Z</time>
      </trkpt>
      <trkpt lat="52.405950" lon="13.168494">
        <ele>41.153074</ele>
        <time>2024-04-24T14:00:33.033Z</time>
      </trkpt>
      <trkpt lat="52.405102" lon="13.165930">
        <ele>41.296998</ele>
        <time>2024-04-24T14:01:19.218Z</time>
      </trkpt>
      <trkpt lat="52.405090" lon="13.165895">
        <ele>41.317144</ele>
        <time>2024-04-24T14:01:19.969Z</time>
      </trkpt>
      <trkpt lat="52.404262" lon="13.163512">
        <ele>42.672635</ele>
        <time>2024-04-24T14:02:09.840Z</time>
      </trkpt>
      <trkpt lat="52.402908" lon="13.159389">
        <ele>44.052526</ele>
        <time>2024-04-24T14:03:27.820Z</time>
      </trkpt>
      <trkpt lat="52.402003" lon="13.156873">
        <ele>44.246255</ele>
        <time>2024-04-24T14:04:11.802Z</time>
      </trkpt>
      <trkpt lat="52.401195" lon="13.154513">
        <ele>44.157164</ele>
        <time>2024-04-24T14:04:52.902Z</time>
      </trkpt>
      <trkpt lat="52.400855" lon="13.153334">
        <ele>44.088690</ele>
        <time>2024-04-24T14:05:12.318Z</time>
      </trkpt>
      <trkpt lat="52.400476" lon="13.152092">
        <ele>42.978251</ele>
        <time>2024-04-24T14:05:31.935Z</time>
      </trkpt>
      <trkpt lat="52.399683" lon="13.149808">
        <ele>39.948473</ele>
        <time>2024-04-24T14:06:04.964Z</time>
      </trkpt>
      <trkpt lat="52.399117" lon="13.147859">
        <ele>36.512905</ele>
        <time>2024-04-24T14:06:30.415Z</time>
      </trkpt>
      <trkpt lat="52.398852" lon="13.147326">
        <ele>35.817652</ele>
        <time>2024-04-24T14:06:38.679Z</time>
      </trkpt>
      <trkpt lat="52.398833" lon="13.147238">
        <ele>35.723259</ele>
        <time>2024-04-24T14:06:39.816Z</time>
      </trkpt>
      <trkpt lat="52.398851" lon="13.147088">
        <ele>35.568671</ele>
        <time>2024-04-24T14:06:41.725Z</time>
      </trkpt>
      <trkpt lat="52.398891" lon="13.146755">
        <ele>35.225473</ele>
        <time>2024-04-24T14:06:46.032Z</time>
      </trkpt>
      <trkpt lat="52.398901" lon="13.146632">
        <ele>35.099995</ele>
        <time>2024-04-24T14:06:47.637Z</time>
      </trkpt>
      <trkpt lat="52.398978" lon="13.145604">
        <ele>34.052665</ele>
        <time>2024-04-24T14:07:01.836Z</time>
      </trkpt>
      <trkpt lat="52.399045" lon="13.145442">
        <ele>33.854762</ele>
        <time>2024-04-24T14:07:04.740Z</time>
      </trkpt>
      <trkpt lat="52.398878" lon="13.145229">
        <ele>33.786899</ele>
        <time>2024-04-24T14:07:09.582Z</time>
      </trkpt>
      <trkpt lat="52.398855" lon="13.145200">
        <ele>33.786915</ele>
        <time>2024-04-24T14:07:10.317Z</time>
      </trkpt>
      <trkpt lat="52.398621" lon="13.144903">
        <ele>33.787087</ele>
        <time>2024-04-24T14:07:17.383Z</time>
      </trkpt>
      <trkpt lat="52.398594" lon="13.144869">
        <ele>33.787107</ele>
        <time>2024-04-24T14:07:18.141Z</time>
      </trkpt>
      <trkpt lat="52.398313" lon="13.144513">
        <ele>33.787313</ele>
        <time>2024-04-24T14:07:26.623Z</time>
      </trkpt>
      <trkpt lat="52.398218" lon="13.144392">
        <ele>33.787383</ele>
        <time>2024-04-24T14:07:29.600Z</time>
      </trkpt>
      <trkpt lat="52.397698" lon="13.143770">
        <ele>33.787757</ele>
        <time>2024-04-24T14:07:44.119Z</time>
      </trkpt>
      <trkpt lat="52.397599" lon="13.143652">
        <ele>33.787828</ele>
        <time>2024-04-24T14:07:46.958Z</time>
      </trkpt>
      <trkpt lat="52.398056" lon="13.143398">
        <ele>33.673250</ele>
        <time>2024-04-24T14:07:57.203Z</time>
      </trkpt>
      <trkpt lat="52.398484" lon="13.143167">
        <ele>33.559818</ele>
        <time>2024-04-24T14:08:06.758Z</time>
      </trkpt>
      <trkpt lat="52.398911" lon="13.143143">
        <ele>33.452267</ele>
        <time>2024-04-24T14:08:15.668Z</time>
      </trkpt>
      <trkpt lat="52.399029" lon="13.143044">
        <ele>33.418898</ele>
        <time>2024-04-24T14:08:18.502Z</time>
      </trkpt>
      <trkpt lat="52.399095" lon="13.142930">
        <ele>33.394760</ele>
        <time>2024-04-24T14:08:20.468Z</time>
      </trkpt>
      <trkpt lat="52.399138" lon="13.142791">
        <ele>33.370824</ele>
        <time>2024-04-24T14:08:22.543Z</time>
      </trkpt>
      <trkpt lat="52.399159" lon="13.142412">
        <ele>33.411917</ele>
        <time>2024-04-24T14:08:27.626Z</time>
      </trkpt>
      <trkpt lat="52.399162" lon="13.142173">
        <ele>33.536188</ele>
        <time>2024-04-24T14:08:31.024Z</time>
      </trkpt>
      <trkpt lat="52.399163" lon="13.141958">
        <ele>33.647959</ele>
        <time>2024-04-24T14:08:34.134Z</time>
      </trkpt>
      <trkpt lat="52.399187" lon="13.141806">
        <ele>33.729579</ele>
        <time>2024-04-24T14:08:36.306Z</time>
      </trkpt>
      <trkpt lat="52.399275" lon="13.141600">
        <ele>33.860305</ele>
        <time>2024-04-24T14:08:40.205Z</time>
      </trkpt>
      <trkpt lat="52.399403" lon="13.141303">
        <ele>34.049331</ele>
        <time>2024-04-24T14:08:45.845Z</time>
      </trkpt>
      <trkpt lat="52.398886" lon="13.140305">
        <ele>34.729910</ele>
        <time>2024-04-24T14:09:09.678Z</time>
      </trkpt>
      <trkpt lat="52.398503" lon="13.139684">
        <ele>35.394384</ele>
        <time>2024-04-24T14:09:26.451Z</time>
      </trkpt>
      <trkpt lat="52.397920" lon="13.138798">
        <ele>36.504780</ele>
        <time>2024-04-24T14:09:51.218Z</time>
      </trkpt>
      <trkpt lat="52.397747" lon="13.138535">
        <ele>36.834333</ele>
        <time>2024-04-24T14:09:58.368Z</time>
      </trkpt>
      <trkpt lat="52.397819" lon="13.138299">
        <ele>37.059181</ele>
        <time>2024-04-24T14:10:02.830Z</time>
      </trkpt>
      <trkpt lat="52.398093" lon="13.136856">
        <ele>37.892313</ele>
        <time>2024-04-24T14:10:28.033Z</time>
      </trkpt>
      <trkpt lat="52.398112" lon="13.136760">
        <ele>37.937899</ele>
        <time>2024-04-24T14:10:29.559Z</time>
      </trkpt>
      <trkpt lat="52.398071" lon="13.136595">
        <ele>38.018369</ele>
        <time>2024-04-24T14:10:32.330Z</time>
      </trkpt>
      <trkpt lat="52.397931" lon="13.136262">
        <ele>38.201026</ele>
        <time>2024-04-24T14:10:38.634Z</time>
      </trkpt>
      <trkpt lat="52.395948" lon="13.131544">
        <ele>39.596208</ele>
        <time>2024-04-24T14:12:04.343Z</time>
      </trkpt>
      <trkpt lat="52.395768" lon="13.131272">
        <ele>39.610219</ele>
        <time>2024-04-24T14:12:09.445Z</time>
      </trkpt>
      <trkpt lat="52.395678" lon="13.131218">
        <ele>39.615703</ele>
        <time>2024-04-24T14:12:11.561Z</time>
      </trkpt>
      <trkpt lat="52.395621" lon="13.131236">
        <ele>39.619025</ele>
        <time>2024-04-24T14:12:12.776Z</time>
      </trkpt>
      <trkpt lat="52.395489" lon="13.130106">
        <ele>39.395916</ele>
        <time>2024-04-24T14:12:27.549Z</time>
      </trkpt>
      <trkpt lat="52.395431" lon="13.129612">
        <ele>39.153122</ele>
        <time>2024-04-24T14:12:33.951Z</time>
      </trkpt>
      <trkpt lat="52.395376" lon="13.129155">
        <ele>38.928309</ele>
        <time>2024-04-24T14:12:39.761Z</time>
      </trkpt>
      <trkpt lat="52.395263" lon="13.128201">
        <ele>38.459280</ele>
        <time>2024-04-24T14:12:51.511Z</time>
      </trkpt>
      <trkpt lat="52.395246" lon="13.128014">
        <ele>38.368031</ele>
        <time>2024-04-24T14:12:53.737Z</time>
      </trkpt>
      <trkpt lat="52.395235" lon="13.127904">
        <ele>38.314233</ele>
        <time>2024-04-24T14:12:55.126Z</time>
      </trkpt>
      <trkpt lat="52.395227" lon="13.127715">
        <ele>38.222796</ele>
        <time>2024-04-24T14:12:57.387Z</time>
      </trkpt>
      <trkpt lat="52.395200" lon="13.126742">
        <ele>37.997110</ele>
        <time>2024-04-24T14:13:09.013Z</time>
      </trkpt>
      <trkpt lat="52.395196" lon="13.126581">
        <ele>37.960119</ele>
        <time>2024-04-24T14:13:11.095Z</time>
      </trkpt>
      <trkpt lat="52.395176" lon="13.125777">
        <ele>37.775389</ele>
        <time>2024-04-24T14:13:21.624Z</time>
      </trkpt>
      <trkpt lat="52.395173" lon="13.125678">
        <ele>37.752633</ele>
        <time>2024-04-24T14:13:22.996Z</time>
      </trkpt>
      <trkpt lat="52.395162" lon="13.125234">
        <ele>37.650619</ele>
        <time>2024-04-24T14:13:29.361Z</time>
      </trkpt>
      <trkpt lat="52.395158" lon="13.125104">
        <ele>37.620736</ele>
        <time>2024-04-24T14:13:31.239Z</time>
      </trkpt>
      <trkpt lat="52.395153" lon="13.124890">
        <ele>37.571572</ele>
        <time>2024-04-24T14:13:34.330Z</time>
      </trkpt>
      <trkpt lat="52.395149" lon="13.124759">
        <ele>37.543428</ele>
        <time>2024-04-24T14:13:36.276Z</time>
      </trkpt>
      <trkpt lat="52.395140" lon="13.124360">
        <ele>37.714739</ele>
        <time>2024-04-24T14:13:42.152Z</time>
      </trkpt>
      <trkpt lat="52.395131" lon="13.124048">
        <ele>37.848755</ele>
        <time>2024-04-24T14:13:46.775Z</time>
      </trkpt>
      <trkpt lat="52.395119" lon="13.123582">
        <ele>38.048874</ele>
        <time>2024-04-24T14:13:53.810Z</time>
      </trkpt>
      <trkpt lat="52.395172" lon="13.123488">
        <ele>38.103787</ele>
        <time>2024-04-24T14:13:55.781Z</time>
      </trkpt>
      <trkpt lat="52.395368" lon="13.123150">
        <ele>38.303846</ele>
        <time>2024-04-24T14:14:03.100Z</time>
      </trkpt>
      <trkpt lat="52.395393" lon="13.123106">
        <ele>38.329642</ele>
        <time>2024-04-24T14:14:04.084Z</time>
      </trkpt>
      <trkpt lat="52.395470" lon="13.122972">
        <ele>38.408615</ele>
        <time>2024-04-24T14:14:06.935Z</time>
      </trkpt>
      <trkpt lat="52.395714" lon="13.122548">
        <ele>38.658672</ele>
        <time>2024-04-24T14:14:16.674Z</time>
      </trkpt>
      <trkpt lat="52.395864" lon="13.122288">
        <ele>38.811711</ele>
        <time>2024-04-24T14:14:22.736Z</time>
      </trkpt>
      <trkpt lat="52.396009" lon="13.122037">
        <ele>38.946741</ele>
        <time>2024-04-24T14:14:28.815Z</time>
      </trkpt>
      <trkpt lat="52.396083" lon="13.121908">
        <ele>39.015910</ele>
        <time>2024-04-24T14:14:31.832Z</time>
      </trkpt>
      <trkpt lat="52.396172" lon="13.121752">
        <ele>39.099342</ele>
        <time>2024-04-24T14:14:35.616Z</time>
      </trkpt>
      <trkpt lat="52.396204" lon="13.121697">
        <ele>39.129030</ele>
        <time>2024-04-24T14:14:36.975Z</time>
      </trkpt>
      <trkpt lat="52.396371" lon="13.121408">
        <ele>39.284524</ele>
        <time>2024-04-24T14:14:43.514Z</time>
      </trkpt>
      <trkpt lat="52.396419" lon="13.121325">
        <ele>39.329198</ele>
        <time>2024-04-24T14:14:45.432Z</time>
      </trkpt>
      <trkpt lat="52.396518" lon="13.121151">
        <ele>39.422139</ele>
        <time>2024-04-24T14:14:49.107Z</time>
      </trkpt>
      <trkpt lat="52.396564" lon="13.121072">
        <ele>39.464798</ele>
        <time>2024-04-24T14:14:50.723Z</time>
      </trkpt>
      <trkpt lat="52.396678" lon="13.120878">
        <ele>39.570015</ele>
        <time>2024-04-24T14:14:54.826Z</time>
      </trkpt>
      <trkpt lat="52.396718" lon="13.120938">
        <ele>39.604732</ele>
        <time>2024-04-24T14:14:56.143Z</time>
      </trkpt>
      <trkpt lat="52.397145" lon="13.120741">
        <ele>39.888735</ele>
        <time>2024-04-24T14:15:06.074Z</time>
      </trkpt>
      <trkpt lat="52.397220" lon="13.120697">
        <ele>39.939736</ele>
        <time>2024-04-24T14:15:07.741Z</time>
      </trkpt>
      <trkpt lat="52.397548" lon="13.120465">
        <ele>40.008602</ele>
        <time>2024-04-24T14:15:15.887Z</time>
      </trkpt>
      <trkpt lat="52.397791" lon="13.120252">
        <ele>40.050789</ele>
        <time>2024-04-24T14:15:22.644Z</time>
      </trkpt>
      <trkpt lat="52.397848" lon="13.120200">
        <ele>40.060776</ele>
        <time>2024-04-24T14:15:24.091Z</time>
      </trkpt>
      <trkpt lat="52.398332" lon="13.119654">
        <ele>40.150729</ele>
        <time>2024-04-24T14:15:38.391Z</time>
      </trkpt>
      <trkpt lat="52.398487" lon="13.119473">
        <ele>40.179865</ele>
        <time>2024-04-24T14:15:42.515Z</time>
      </trkpt>
      <trkpt lat="52.398507" lon="13.119450">
        <ele>40.183606</ele>
        <time>2024-04-24T14:15:43.057Z</time>
      </trkpt>
      <trkpt lat="52.398594" lon="13.119348">
        <ele>40.199982</ele>
        <time>2024-04-24T14:15:45.680Z</time>
      </trkpt>
      <trkpt lat="52.398758" lon="13.119156">
        <ele>40.230837</ele>
        <time>2024-04-24T14:15:50.149Z</time>
      </trkpt>
      <trkpt lat="52.398794" lon="13.119113">
        <ele>40.226749</ele>
        <time>2024-04-24T14:15:51.058Z</time>
      </trkpt>
      <trkpt lat="52.398902" lon="13.118984">
        <ele>40.190499</ele>
        <time>2024-04-24T14:15:54.114Z</time>
      </trkpt>
      <trkpt lat="52.398930" lon="13.118952">
        <ele>40.181240</ele>
        <time>2024-04-24T14:15:54.871Z</time>
      </trkpt>
      <trkpt lat="52.398982" lon="13.118891">
        <ele>40.163894</ele>
        <time>2024-04-24T14:15:56.266Z</time>
      </trkpt>
      <trkpt lat="52.399087" lon="13.118769">
        <ele>40.128982</ele>
        <time>2024-04-24T14:15:58.870Z</time>
      </trkpt>
      <trkpt lat="52.399308" lon="13.118519">
        <ele>40.056143</ele>
        <time>2024-04-24T14:16:04.649Z</time>
      </trkpt>
      <trkpt lat="52.399344" lon="13.118480">
        <ele>40.044437</ele>
        <time>2024-04-24T14:16:05.522Z</time>
      </trkpt>
      <trkpt lat="52.399390" lon="13.118420">
        <ele>40.028490</ele>
        <time>2024-04-24T14:16:06.717Z</time>
      </trkpt>
      <trkpt lat="52.399422" lon="13.118372">
        <ele>40.016724</ele>
        <time>2024-04-24T14:16:07.688Z</time>
      </trkpt>
      <trkpt lat="52.399600" lon="13.118046">
        <ele>39.944320</ele>
        <time>2024-04-24T14:16:13.373Z</time>
      </trkpt>
      <trkpt lat="52.399711" lon="13.117845">
        <ele>39.899452</ele>
        <time>2024-04-24T14:16:16.980Z</time>
      </trkpt>
      <trkpt lat="52.399749" lon="13.117777">
        <ele>39.884191</ele>
        <time>2024-04-24T14:16:18.299Z</time>
      </trkpt>
      <trkpt lat="52.399846" lon="13.117603">
        <ele>39.845183</ele>
        <time>2024-04-24T14:16:21.569Z</time>
      </trkpt>
      <trkpt lat="52.399872" lon="13.117555">
        <ele>39.834560</ele>
        <time>2024-04-24T14:16:22.416Z</time>
      </trkpt>
      <trkpt lat="52.399973" lon="13.117374">
        <ele>39.793966</ele>
        <time>2024-04-24T14:16:25.639Z</time>
      </trkpt>
      <trkpt lat="52.400135" lon="13.117082">
        <ele>39.714007</ele>
        <time>2024-04-24T14:16:30.795Z</time>
      </trkpt>
      <trkpt lat="52.400219" lon="13.116930">
        <ele>39.651160</ele>
        <time>2024-04-24T14:16:33.385Z</time>
      </trkpt>
      <trkpt lat="52.400278" lon="13.116824">
        <ele>39.607189</ele>
        <time>2024-04-24T14:16:35.170Z</time>
      </trkpt>
      <trkpt lat="52.400351" lon="13.116692">
        <ele>39.552593</ele>
        <time>2024-04-24T14:16:37.372Z</time>
      </trkpt>
      <trkpt lat="52.400459" lon="13.116499">
        <ele>39.472339</ele>
        <time>2024-04-24T14:16:40.520Z</time>
      </trkpt>
      <trkpt lat="52.400498" lon="13.116427">
        <ele>39.442834</ele>
        <time>2024-04-24T14:16:41.691Z</time>
      </trkpt>
      <trkpt lat="52.400527" lon="13.116376">
        <ele>39.421470</ele>
        <time>2024-04-24T14:16:42.543Z</time>
      </trkpt>
      <trkpt lat="52.400664" lon="13.116219">
        <ele>39.337507</ele>
        <time>2024-04-24T14:16:46.004Z</time>
      </trkpt>
      <trkpt lat="52.400785" lon="13.116079">
        <ele>39.263115</ele>
        <time>2024-04-24T14:16:49.051Z</time>
      </trkpt>
      <trkpt lat="52.400907" lon="13.115939">
        <ele>39.188311</ele>
        <time>2024-04-24T14:16:52.165Z</time>
      </trkpt>
      <trkpt lat="52.400978" lon="13.115858">
        <ele>39.144862</ele>
        <time>2024-04-24T14:16:53.922Z</time>
      </trkpt>
      <trkpt lat="52.401148" lon="13.115603">
        <ele>39.029115</ele>
        <time>2024-04-24T14:16:58.689Z</time>
      </trkpt>
      <trkpt lat="52.401177" lon="13.115559">
        <ele>39.009267</ele>
        <time>2024-04-24T14:16:59.521Z</time>
      </trkpt>
      <trkpt lat="52.401300" lon="13.115320">
        <ele>38.913450</ele>
        <time>2024-04-24T14:17:03.539Z</time>
      </trkpt>
      <trkpt lat="52.401306" lon="13.115308">
        <ele>38.908695</ele>
        <time>2024-04-24T14:17:03.747Z</time>
      </trkpt>
      <trkpt lat="52.401433" lon="13.115038">
        <ele>38.864236</ele>
        <time>2024-04-24T14:17:08.262Z</time>
      </trkpt>
      <trkpt lat="52.401467" lon="13.114953">
        <ele>38.882001</ele>
        <time>2024-04-24T14:17:09.593Z</time>
      </trkpt>
      <trkpt lat="52.401505" lon="13.114843">
        <ele>38.904095</ele>
        <time>2024-04-24T14:17:11.269Z</time>
      </trkpt>
      <trkpt lat="52.401539" lon="13.114747">
        <ele>38.923497</ele>
        <time>2024-04-24T14:17:12.754Z</time>
      </trkpt>
      <trkpt lat="52.401662" lon="13.114194">
        <ele>39.026376</ele>
        <time>2024-04-24T14:17:20.932Z</time>
      </trkpt>
      <trkpt lat="52.401679" lon="13.114050">
        <ele>39.052012</ele>
        <time>2024-04-24T14:17:23.104Z</time>
      </trkpt>
      <trkpt lat="52.401688" lon="13.113937">
        <ele>39.071930</ele>
        <time>2024-04-24T14:17:24.704Z</time>
      </trkpt>
      <trkpt lat="52.401689" lon="13.113888">
        <ele>39.080499</ele>
        <time>2024-04-24T14:17:25.419Z</time>
      </trkpt>
      <trkpt lat="52.401689" lon="13.113739">
        <ele>39.106542</ele>
        <time>2024-04-24T14:17:27.514Z</time>
      </trkpt>
      <trkpt lat="52.401671" lon="13.113445">
        <ele>39.158187</ele>
        <time>2024-04-24T14:17:31.750Z</time>
      </trkpt>
      <trkpt lat="52.401644" lon="13.113171">
        <ele>39.206699</ele>
        <time>2024-04-24T14:17:35.729Z</time>
      </trkpt>
      <trkpt lat="52.401616" lon="13.113001">
        <ele>39.237476</ele>
        <time>2024-04-24T14:17:38.293Z</time>
      </trkpt>
      <trkpt lat="52.401444" lon="13.112537">
        <ele>39.332372</ele>
        <time>2024-04-24T14:17:46.843Z</time>
      </trkpt>
      <trkpt lat="52.401634" lon="13.112210">
        <ele>39.570049</ele>
        <time>2024-04-24T14:17:54.528Z</time>
      </trkpt>
      <trkpt lat="52.401658" lon="13.112167">
        <ele>39.610409</ele>
        <time>2024-04-24T14:17:55.522Z</time>
      </trkpt>
      <trkpt lat="52.401677" lon="13.112135">
        <ele>39.641332</ele>
        <time>2024-04-24T14:17:56.289Z</time>
      </trkpt>
      <trkpt lat="52.401810" lon="13.111905">
        <ele>39.860788</ele>
        <time>2024-04-24T14:18:01.520Z</time>
      </trkpt>
      <trkpt lat="52.401941" lon="13.111678">
        <ele>40.077174</ele>
        <time>2024-04-24T14:18:06.665Z</time>
      </trkpt>
      <trkpt lat="52.401984" lon="13.111604">
        <ele>40.147945</ele>
        <time>2024-04-24T14:18:08.383Z</time>
      </trkpt>
      <trkpt lat="52.402011" lon="13.111557">
        <ele>40.192651</ele>
        <time>2024-04-24T14:18:09.509Z</time>
      </trkpt>
      <trkpt lat="52.402124" lon="13.111362">
        <ele>40.378898</ele>
        <time>2024-04-24T14:18:14.105Z</time>
      </trkpt>
      <trkpt lat="52.402165" lon="13.111290">
        <ele>40.447104</ele>
        <time>2024-04-24T14:18:15.711Z</time>
      </trkpt>
      <trkpt lat="52.402248" lon="13.111148">
        <ele>40.583288</ele>
        <time>2024-04-24T14:18:18.947Z</time>
      </trkpt>
      <trkpt lat="52.402435" lon="13.110824">
        <ele>40.892154</ele>
        <time>2024-04-24T14:18:26.796Z</time>
      </trkpt>
      <trkpt lat="52.402480" lon="13.110742">
        <ele>40.968533</ele>
        <time>2024-04-24T14:18:28.700Z</time>
      </trkpt>
      <trkpt lat="52.402492" lon="13.110720">
        <ele>40.988969</ele>
        <time>2024-04-24T14:18:29.238Z</time>
      </trkpt>
      <trkpt lat="52.402576" lon="13.110566">
        <ele>41.132024</ele>
        <time>2024-04-24T14:18:33.139Z</time>
      </trkpt>
      <trkpt lat="52.402624" lon="13.110479">
        <ele>41.213254</ele>
        <time>2024-04-24T14:18:35.275Z</time>
      </trkpt>
      <trkpt lat="52.402714" lon="13.110314">
        <ele>41.366527</ele>
        <time>2024-04-24T14:18:39.126Z</time>
      </trkpt>
      <trkpt lat="52.402778" lon="13.110197">
        <ele>41.496512</ele>
        <time>2024-04-24T14:18:41.973Z</time>
      </trkpt>
      <trkpt lat="52.402885" lon="13.110014">
        <ele>41.720887</ele>
        <time>2024-04-24T14:18:46.565Z</time>
      </trkpt>
      <trkpt lat="52.402931" lon="13.109942">
        <ele>41.813173</ele>
        <time>2024-04-24T14:18:48.295Z</time>
      </trkpt>
      <trkpt lat="52.403012" lon="13.109824">
        <ele>41.970408</ele>
        <time>2024-04-24T14:18:51.255Z</time>
      </trkpt>
      <trkpt lat="52.403096" lon="13.109713">
        <ele>42.126961</ele>
        <time>2024-04-24T14:18:54.493Z</time>
      </trkpt>
      <trkpt lat="52.403183" lon="13.109609">
        <ele>42.283196</ele>
        <time>2024-04-24T14:18:57.686Z</time>
      </trkpt>
      <trkpt lat="52.403287" lon="13.109496">
        <ele>42.464235</ele>
        <time>2024-04-24T14:19:01.214Z</time>
      </trkpt>
      <trkpt lat="52.403315" lon="13.109469">
        <ele>42.511370</ele>
        <time>2024-04-24T14:19:02.162Z</time>
      </trkpt>
      <trkpt lat="52.403528" lon="13.109254">
        <ele>42.874317</ele>
        <time>2024-04-24T14:19:09.650Z</time>
      </trkpt>
      <trkpt lat="52.403605" lon="13.109180">
        <ele>43.003826</ele>
        <time>2024-04-24T14:19:12.201Z</time>
      </trkpt>
      <trkpt lat="52.403780" lon="13.109030">
        <ele>43.290359</ele>
        <time>2024-04-24T14:19:18.184Z</time>
      </trkpt>
      <trkpt lat="52.404066" lon="13.108801">
        <ele>43.752187</ele>
        <time>2024-04-24T14:19:27.586Z</time>
      </trkpt>
      <trkpt lat="52.404171" lon="13.108721">
        <ele>43.920188</ele>
        <time>2024-04-24T14:19:30.720Z</time>
      </trkpt>
      <trkpt lat="52.404255" lon="13.108671">
        <ele>44.047090</ele>
        <time>2024-04-24T14:19:33.350Z</time>
      </trkpt>
      <trkpt lat="52.404371" lon="13.108607">
        <ele>44.212669</ele>
        <time>2024-04-24T14:19:37.310Z</time>
      </trkpt>
      <trkpt lat="52.404650" lon="13.108423">
        <ele>44.619513</ele>
        <time>2024-04-24T14:19:46.581Z</time>
      </trkpt>
      <trkpt lat="52.405127" lon="13.107987">
        <ele>45.358363</ele>
        <time>2024-04-24T14:20:04.438Z</time>
      </trkpt>
      <trkpt lat="52.405363" lon="13.107704">
        <ele>45.753945</ele>
        <time>2024-04-24T14:20:13.073Z</time>
      </trkpt>
      <trkpt lat="52.405454" lon="13.107593">
        <ele>45.907398</ele>
        <time>2024-04-24T14:20:15.772Z</time>
      </trkpt>
      <trkpt lat="52.405736" lon="13.107133">
        <ele>46.444139</ele>
        <time>2024-04-24T14:20:25.520Z</time>
      </trkpt>
      <trkpt lat="52.405782" lon="13.107053">
        <ele>46.495309</ele>
        <time>2024-04-24T14:20:27.145Z</time>
      </trkpt>
      <trkpt lat="52.405967" lon="13.106680">
        <ele>46.719066</ele>
        <time>2024-04-24T14:20:33.648Z</time>
      </trkpt>
      <trkpt lat="52.406083" lon="13.106404">
        <ele>46.875070</ele>
        <time>2024-04-24T14:20:38.929Z</time>
      </trkpt>
      <trkpt lat="52.406275" lon="13.105868">
        <ele>47.164387</ele>
        <time>2024-04-24T14:20:49.429Z</time>
      </trkpt>
      <trkpt lat="52.406389" lon="13.105456">
        <ele>47.374960</ele>
        <time>2024-04-24T14:20:57.057Z</time>
      </trkpt>
      <trkpt lat="52.406447" lon="13.105202">
        <ele>47.501198</ele>
        <time>2024-04-24T14:21:01.683Z</time>
      </trkpt>
      <trkpt lat="52.406567" lon="13.104477">
        <ele>47.783009</ele>
        <time>2024-04-24T14:21:13.857Z</time>
      </trkpt>
      <trkpt lat="52.406599" lon="13.104228">
        <ele>47.680029</ele>
        <time>2024-04-24T14:21:17.994Z</time>
      </trkpt>
      <trkpt lat="52.406652" lon="13.103783">
        <ele>47.496540</ele>
        <time>2024-04-24T14:21:24.449Z</time>
      </trkpt>
      <trkpt lat="52.406664" lon="13.103681">
        <ele>47.454501</ele>
        <time>2024-04-24T14:21:26.105Z</time>
      </trkpt>
      <trkpt lat="52.406672" lon="13.103614">
        <ele>47.426872</ele>
        <time>2024-04-24T14:21:27.210Z</time>
      </trkpt>
      <trkpt lat="52.406768" lon="13.102654">
        <ele>47.033183</ele>
        <time>2024-04-24T14:21:39.115Z</time>
      </trkpt>
      <trkpt lat="52.406821" lon="13.102134">
        <ele>46.819826</ele>
        <time>2024-04-24T14:21:45.467Z</time>
      </trkpt>
      <trkpt lat="52.406920" lon="13.101135">
        <ele>45.405085</ele>
        <time>2024-04-24T14:21:56.973Z</time>
      </trkpt>
      <trkpt lat="52.407351" lon="13.101611">
        <ele>43.419191</ele>
        <time>2024-04-24T14:22:05.769Z</time>
      </trkpt>
      <trkpt lat="52.407514" lon="13.101881">
        <ele>42.533687</ele>
        <time>2024-04-24T14:22:09.543Z</time>
      </trkpt>
      <trkpt lat="52.407573" lon="13.102001">
        <ele>42.174408</ele>
        <time>2024-04-24T14:22:11.024Z</time>
      </trkpt>
      <trkpt lat="52.407635" lon="13.102131">
        <ele>41.789742</ele>
        <time>2024-04-24T14:22:12.660Z</time>
      </trkpt>
      <trkpt lat="52.407687" lon="13.102243">
        <ele>41.461641</ele>
        <time>2024-04-24T14:22:14.013Z</time>
      </trkpt>
      <trkpt lat="52.407919" lon="13.102048">
        <ele>40.465361</ele>
        <time>2024-04-24T14:22:18.074Z</time>
      </trkpt>
      <trkpt lat="52.407976" lon="13.101944">
        <ele>40.139451</ele>
        <time>2024-04-24T14:22:19.423Z</time>
      </trkpt>
      <trkpt lat="52.407999" lon="13.101866">
        <ele>39.937497</ele>
        <time>2024-04-24T14:22:20.238Z</time>
      </trkpt>
      <trkpt lat="52.408050" lon="13.101259">
        <ele>38.662000</ele>
        <time>2024-04-24T14:22:26.061Z</time>
      </trkpt>
      <trkpt lat="52.408092" lon="13.101025">
        <ele>38.163536</ele>
        <time>2024-04-24T14:22:28.482Z</time>
      </trkpt>
      <trkpt lat="52.408141" lon="13.100912">
        <ele>37.880216</ele>
        <time>2024-04-24T14:22:29.965Z</time>
      </trkpt>
      <trkpt lat="52.408214" lon="13.100892">
        <ele>37.632279</ele>
        <time>2024-04-24T14:22:31.187Z</time>
      </trkpt>
      <trkpt lat="52.408318" lon="13.100939">
        <ele>37.270889</ele>
        <time>2024-04-24T14:22:32.936Z</time>
      </trkpt>
      <trkpt lat="52.408651" lon="13.101108">
        <ele>36.103124</ele>
        <time>2024-04-24T14:22:38.973Z</time>
      </trkpt>
      <trkpt lat="52.408675" lon="13.101119">
        <ele>36.019642</ele>
        <time>2024-04-24T14:22:39.440Z</time>
      </trkpt>
      <trkpt lat="52.408873" lon="13.101121">
        <ele>35.356343</ele>
        <time>2024-04-24T14:22:43.234Z</time>
      </trkpt>
      <trkpt lat="52.408918" lon="13.101133">
        <ele>35.203614</ele>
        <time>2024-04-24T14:22:44.064Z</time>
      </trkpt>
      <trkpt lat="52.409053" lon="13.101204">
        <ele>34.728669</ele>
        <time>2024-04-24T14:22:46.686Z</time>
      </trkpt>
      <trkpt lat="52.409276" lon="13.101433">
        <ele>33.847162</ele>
        <time>2024-04-24T14:22:51.718Z</time>
      </trkpt>
      <trkpt lat="52.409354" lon="13.101513">
        <ele>33.692090</ele>
        <time>2024-04-24T14:22:53.456Z</time>
      </trkpt>
      <trkpt lat="52.409454" lon="13.101251">
        <ele>33.586155</ele>
        <time>2024-04-24T14:22:57.198Z</time>
      </trkpt>
      <trkpt lat="52.409700" lon="13.100616">
        <ele>33.328316</ele>
        <time>2024-04-24T14:23:06.387Z</time>
      </trkpt>
      <trkpt lat="52.409902" lon="13.100095">
        <ele>33.116718</ele>
        <time>2024-04-24T14:23:15.294Z</time>
      </trkpt>
      <trkpt lat="52.410006" lon="13.099828">
        <ele>33.008134</ele>
        <time>2024-04-24T14:23:20.080Z</time>
      </trkpt>
      <trkpt lat="52.410185" lon="13.099365">
        <ele>32.820247</ele>
        <time>2024-04-24T14:23:28.386Z</time>
      </trkpt>
      <trkpt lat="52.410229" lon="13.099251">
        <ele>32.774007</ele>
        <time>2024-04-24T14:23:30.280Z</time>
      </trkpt>
      <trkpt lat="52.410366" lon="13.099298">
        <ele>32.718045</ele>
        <time>2024-04-24T14:23:33.830Z</time>
      </trkpt>
      <trkpt lat="52.410727" lon="13.099400">
        <ele>32.787854</ele>
        <time>2024-04-24T14:23:42.461Z</time>
      </trkpt>
      <trkpt lat="52.410866" lon="13.099390">
        <ele>32.814368</ele>
        <time>2024-04-24T14:23:45.692Z</time>
      </trkpt>
      <trkpt lat="52.410976" lon="13.099303">
        <ele>32.837643</ele>
        <time>2024-04-24T14:23:48.660Z</time>
      </trkpt>
      <trkpt lat="52.411151" lon="13.098910">
        <ele>32.894204</ele>
        <time>2024-04-24T14:23:55.811Z</time>
      </trkpt>
      <trkpt lat="52.411191" lon="13.098806">
        <ele>32.908496</ele>
        <time>2024-04-24T14:23:57.783Z</time>
      </trkpt>
      <trkpt lat="52.411609" lon="13.097897">
        <ele>33.040822</ele>
        <time>2024-04-24T14:24:13.899Z</time>
      </trkpt>
      <trkpt lat="52.411751" lon="13.097714">
        <ele>33.059243</ele>
        <time>2024-04-24T14:24:18.182Z</time>
      </trkpt>
      <trkpt lat="52.412109" lon="13.097416">
        <ele>33.075096</ele>
        <time>2024-04-24T14:24:27.814Z</time>
      </trkpt>
      <trkpt lat="52.412403" lon="13.097171">
        <ele>33.088118</ele>
        <time>2024-04-24T14:24:34.987Z</time>
      </trkpt>
      <trkpt lat="52.412894" lon="13.096747">
        <ele>33.110030</ele>
        <time>2024-04-24T14:24:47.026Z</time>
      </trkpt>
      <trkpt lat="52.412983" lon="13.096651">
        <ele>33.114236</ele>
        <time>2024-04-24T14:24:49.427Z</time>
      </trkpt>
      <trkpt lat="52.413138" lon="13.096744">
        <ele>33.120753</ele>
        <time>2024-04-24T14:24:53.099Z</time>
      </trkpt>
      <trkpt lat="52.413180" lon="13.096801">
        <ele>33.122906</ele>
        <time>2024-04-24T14:24:54.406Z</time>
      </trkpt>
      <trkpt lat="52.413232" lon="13.096790">
        <ele>33.124976</ele>
        <time>2024-04-24T14:24:55.720Z</time>
      </trkpt>
      <trkpt lat="52.413213" lon="13.096511">
        <ele>33.078651</ele>
        <time>2024-04-24T14:24:59.514Z</time>
      </trkpt>
      <trkpt lat="52.413206" lon="13.096267">
        <ele>33.029337</ele>
        <time>2024-04-24T14:25:02.893Z</time>
      </trkpt>
      <trkpt lat="52.413216" lon="13.095786">
        <ele>32.932176</ele>
        <time>2024-04-24T14:25:09.481Z</time>
      </trkpt>
      <trkpt lat="52.413418" lon="13.093897">
        <ele>32.545005</ele>
        <time>2024-04-24T14:25:34.222Z</time>
      </trkpt>
      <trkpt lat="52.413479" lon="13.092646">
        <ele>32.122997</ele>
        <time>2024-04-24T14:25:49.404Z</time>
      </trkpt>
      <trkpt lat="52.413468" lon="13.091883">
        <ele>31.860252</ele>
        <time>2024-04-24T14:25:58.772Z</time>
      </trkpt>
      <trkpt lat="52.413458" lon="13.091629">
        <ele>31.772628</ele>
        <time>2024-04-24T14:26:01.798Z</time>
      </trkpt>
      <trkpt lat="52.413458" lon="13.091606">
        <ele>31.764710</ele>
        <time>2024-04-24T14:26:02.091Z</time>
      </trkpt>
      <trkpt lat="52.413459" lon="13.091328">
        <ele>31.669003</ele>
        <time>2024-04-24T14:26:06.155Z</time>
      </trkpt>
      <trkpt lat="52.413465" lon="13.089126">
        <ele>32.162229</ele>
        <time>2024-04-24T14:26:37.721Z</time>
      </trkpt>
      <trkpt lat="52.413462" lon="13.088800">
        <ele>32.282253</ele>
        <time>2024-04-24T14:26:44.055Z</time>
      </trkpt>
      <trkpt lat="52.413432" lon="13.088297">
        <ele>32.468305</ele>
        <time>2024-04-24T14:26:52.485Z</time>
      </trkpt>
      <trkpt lat="52.413509" lon="13.088178">
        <ele>32.532170</ele>
        <time>2024-04-24T14:26:55.544Z</time>
      </trkpt>
      <trkpt lat="52.413581" lon="13.088063">
        <ele>32.592837</ele>
        <time>2024-04-24T14:26:57.896Z</time>
      </trkpt>
      <trkpt lat="52.413686" lon="13.087814">
        <ele>32.717112</ele>
        <time>2024-04-24T14:27:03.806Z</time>
      </trkpt>
      <trkpt lat="52.413696" lon="13.087791">
        <ele>32.728804</ele>
        <time>2024-04-24T14:27:04.357Z</time>
      </trkpt>
      <trkpt lat="52.413742" lon="13.087679">
        <ele>32.784699</ele>
        <time>2024-04-24T14:27:06.424Z</time>
      </trkpt>
      <trkpt lat="52.413788" lon="13.087566">
        <ele>32.840937</ele>
        <time>2024-04-24T14:27:08.311Z</time>
      </trkpt>
      <trkpt lat="52.413910" lon="13.087272">
        <ele>32.988135</ele>
        <time>2024-04-24T14:27:15.060Z</time>
      </trkpt>
      <trkpt lat="52.414591" lon="13.085632">
        <ele>33.809410</ele>
        <time>2024-04-24T14:27:45.481Z</time>
      </trkpt>
      <trkpt lat="52.414729" lon="13.085301">
        <ele>33.766952</ele>
        <time>2024-04-24T14:27:50.742Z</time>
      </trkpt>
      <trkpt lat="52.414865" lon="13.084981">
        <ele>33.709228</ele>
        <time>2024-04-24T14:27:56.014Z</time>
      </trkpt>
      <trkpt lat="52.415174" lon="13.084182">
        <ele>33.569208</ele>
        <time>2024-04-24T14:28:08.389Z</time>
      </trkpt>
      <trkpt lat="52.415323" lon="13.083661">
        <ele>33.484044</ele>
        <time>2024-04-24T14:28:15.877Z</time>
      </trkpt>
      <trkpt lat="52.415615" lon="13.082472">
        <ele>33.185218</ele>
        <time>2024-04-24T14:28:32.127Z</time>
      </trkpt>
      <trkpt lat="52.416082" lon="13.080502">
        <ele>32.497558</ele>
        <time>2024-04-24T14:28:58.686Z</time>
      </trkpt>
      <trkpt lat="52.416144" lon="13.080350">
        <ele>32.438064</ele>
        <time>2024-04-24T14:29:01.082Z</time>
      </trkpt>
      <trkpt lat="52.416253" lon="13.080206">
        <ele>32.424811</ele>
        <time>2024-04-24T14:29:06.198Z</time>
      </trkpt>
      <trkpt lat="52.416300" lon="13.080141">
        <ele>32.424216</ele>
        <time>2024-04-24T14:29:07.671Z</time>
      </trkpt>
      <trkpt lat="52.416395" lon="13.079977">
        <ele>32.422882</ele>
        <time>2024-04-24T14:29:10.980Z</time>
      </trkpt>
      <trkpt lat="52.416446" lon="13.079767">
        <ele>32.421549</ele>
        <time>2024-04-24T14:29:14.297Z</time>
      </trkpt>
      <trkpt lat="52.416581" lon="13.078646">
        <ele>32.414809</ele>
        <time>2024-04-24T14:29:31.646Z</time>
      </trkpt>
      <trkpt lat="52.417192" lon="13.078045">
        <ele>32.373422</ele>
        <time>2024-04-24T14:29:50.354Z</time>
      </trkpt>
      <trkpt lat="52.417538" lon="13.077803">
        <ele>32.171246</ele>
        <time>2024-04-24T14:29:59.804Z</time>
      </trkpt>
      <trkpt lat="52.417838" lon="13.077646">
        <ele>32.001992</ele>
        <time>2024-04-24T14:30:07.338Z</time>
      </trkpt>
      <trkpt lat="52.418209" lon="13.077579">
        <ele>31.801387</ele>
        <time>2024-04-24T14:30:15.774Z</time>
      </trkpt>
      <trkpt lat="52.418838" lon="13.077631">
        <ele>31.462891</ele>
        <time>2024-04-24T14:30:29.892Z</time>
      </trkpt>
      <trkpt lat="52.419612" lon="13.077792">
        <ele>30.851952</ele>
        <time>2024-04-24T14:30:47.276Z</time>
      </trkpt>
      <trkpt lat="52.420094" lon="13.078124">
        <ele>30.435785</ele>
        <time>2024-04-24T14:30:58.832Z</time>
      </trkpt>
      <trkpt lat="52.420389" lon="13.078257">
        <ele>30.192241</ele>
        <time>2024-04-24T14:31:05.873Z</time>
      </trkpt>
      <trkpt lat="52.420532" lon="13.078246">
        <ele>30.078283</ele>
        <time>2024-04-24T14:31:09.260Z</time>
      </trkpt>
      <trkpt lat="52.420654" lon="13.078159">
        <ele>30.031433</ele>
        <time>2024-04-24T14:31:12.468Z</time>
      </trkpt>
      <trkpt lat="52.420761" lon="13.078018">
        <ele>30.093399</ele>
        <time>2024-04-24T14:31:15.825Z</time>
      </trkpt>
      <trkpt lat="52.420842" lon="13.077835">
        <ele>30.155649</ele>
        <time>2024-04-24T14:31:19.291Z</time>
      </trkpt>
      <trkpt lat="52.420903" lon="13.077549">
        <ele>30.239060</ele>
        <time>2024-04-24T14:31:23.909Z</time>
      </trkpt>
      <trkpt lat="52.420751" lon="13.076904">
        <ele>30.429422</ele>
        <time>2024-04-24T14:31:35.006Z</time>
      </trkpt>
      <trkpt lat="52.420451" lon="13.075713">
        <ele>30.784169</ele>
        <time>2024-04-24T14:31:57.934Z</time>
      </trkpt>
      <trkpt lat="52.420304" lon="13.074961">
        <ele>31.305464</ele>
        <time>2024-04-24T14:32:12.224Z</time>
      </trkpt>
      <trkpt lat="52.420094" lon="13.073573">
        <ele>32.365423</ele>
        <time>2024-04-24T14:32:38.765Z</time>
      </trkpt>
      <trkpt lat="52.420049" lon="13.073141">
        <ele>32.690255</ele>
        <time>2024-04-24T14:32:47.400Z</time>
      </trkpt>
      <trkpt lat="52.420099" lon="13.072787">
        <ele>32.959582</ele>
        <time>2024-04-24T14:32:54.412Z</time>
      </trkpt>
      <trkpt lat="52.420223" lon="13.072244">
        <ele>33.414314</ele>
        <time>2024-04-24T14:33:05.991Z</time>
      </trkpt>
      <trkpt lat="52.420394" lon="13.071737">
        <ele>33.871857</ele>
        <time>2024-04-24T14:33:17.292Z</time>
      </trkpt>
      <trkpt lat="52.420522" lon="13.071452">
        <ele>34.151374</ele>
        <time>2024-04-24T14:33:24.148Z</time>
      </trkpt>
      <trkpt lat="52.420924" lon="13.070815">
        <ele>34.875281</ele>
        <time>2024-04-24T14:33:41.693Z</time>
      </trkpt>
      <trkpt lat="52.421591" lon="13.069751">
        <ele>35.405801</ele>
        <time>2024-04-24T14:34:09.370Z</time>
      </trkpt>
      <trkpt lat="52.421675" lon="13.069629">
        <ele>35.419243</ele>
        <time>2024-04-24T14:34:12.351Z</time>
      </trkpt>
      <trkpt lat="52.421733" lon="13.069552">
        <ele>35.428182</ele>
        <time>2024-04-24T14:34:14.331Z</time>
      </trkpt>
      <trkpt lat="52.421848" lon="13.069372">
        <ele>35.447225</ele>
        <time>2024-04-24T14:34:18.213Z</time>
      </trkpt>
      <trkpt lat="52.422018" lon="13.069100">
        <ele>35.475677</ele>
        <time>2024-04-24T14:34:24.003Z</time>
      </trkpt>
      <trkpt lat="52.422275" lon="13.069292">
        <ele>35.509507</ele>
        <time>2024-04-24T14:34:29.890Z</time>
      </trkpt>
      <trkpt lat="52.423052" lon="13.068843">
        <ele>35.144608</ele>
        <time>2024-04-24T14:34:46.860Z</time>
      </trkpt>
      <trkpt lat="52.423313" lon="13.068744">
        <ele>34.909568</ele>
        <time>2024-04-24T14:34:52.129Z</time>
      </trkpt>
      <trkpt lat="52.423550" lon="13.068725">
        <ele>34.701383</ele>
        <time>2024-04-24T14:34:56.784Z</time>
      </trkpt>
      <trkpt lat="52.424091" lon="13.068830">
        <ele>34.223411</ele>
        <time>2024-04-24T14:35:07.892Z</time>
      </trkpt>
      <trkpt lat="52.424802" lon="13.069009">
        <ele>33.666058</ele>
        <time>2024-04-24T14:35:22.048Z</time>
      </trkpt>
      <trkpt lat="52.425432" lon="13.069211">
        <ele>33.211570</ele>
        <time>2024-04-24T14:35:34.813Z</time>
      </trkpt>
      <trkpt lat="52.425544" lon="13.069247">
        <ele>33.130764</ele>
        <time>2024-04-24T14:35:37.170Z</time>
      </trkpt>
      <trkpt lat="52.425607" lon="13.069440">
        <ele>33.036252</ele>
        <time>2024-04-24T14:35:41.863Z</time>
      </trkpt>
      <trkpt lat="52.425703" lon="13.069525">
        <ele>32.959010</ele>
        <time>2024-04-24T14:35:45.596Z</time>
      </trkpt>
      <trkpt lat="52.426040" lon="13.069760">
        <ele>32.702247</ele>
        <time>2024-04-24T14:35:58.787Z</time>
      </trkpt>
      <trkpt lat="52.426112" lon="13.069757">
        <ele>32.754529</ele>
        <time>2024-04-24T14:36:01.441Z</time>
      </trkpt>
      <trkpt lat="52.426123" lon="13.069757">
        <ele>32.762513</ele>
        <time>2024-04-24T14:36:01.851Z</time>
      </trkpt>
      <trkpt lat="52.426669" lon="13.068401">
        <ele>33.481785</ele>
        <time>2024-04-24T14:36:41.076Z</time>
      </trkpt>
      <trkpt lat="52.426755" lon="13.068321">
        <ele>33.553557</ele>
        <time>2024-04-24T14:36:43.998Z</time>
      </trkpt>
      <trkpt lat="52.427239" lon="13.066896">
        <ele>34.119420</ele>
        <time>2024-04-24T14:37:28.579Z</time>
      </trkpt>
      <trkpt lat="52.427324" lon="13.066643">
        <ele>34.173049</ele>
        <time>2024-04-24T14:37:35.783Z</time>
      </trkpt>
      <trkpt lat="52.427509" lon="13.066120">
        <ele>34.285302</ele>
        <time>2024-04-24T14:37:50.416Z</time>
      </trkpt>
      <trkpt lat="52.427692" lon="13.065639">
        <ele>34.390558</ele>
        <time>2024-04-24T14:38:03.666Z</time>
      </trkpt>
      <trkpt lat="52.427796" lon="13.065425">
        <ele>34.441363</ele>
        <time>2024-04-24T14:38:07.671Z</time>
      </trkpt>
      <trkpt lat="52.427877" lon="13.065321">
        <ele>34.472684</ele>
        <time>2024-04-24T14:38:10.122Z</time>
      </trkpt>
      <trkpt lat="52.428054" lon="13.065180">
        <ele>34.532596</ele>
        <time>2024-04-24T14:38:14.552Z</time>
      </trkpt>
      <trkpt lat="52.428359" lon="13.065041">
        <ele>34.502288</ele>
        <time>2024-04-24T14:38:21.448Z</time>
      </trkpt>
      <trkpt lat="52.428633" lon="13.064968">
        <ele>34.443525</ele>
        <time>2024-04-24T14:38:27.290Z</time>
      </trkpt>
      <trkpt lat="52.429916" lon="13.065025">
        <ele>34.183686</ele>
        <time>2024-04-24T14:38:58.798Z</time>
      </trkpt>
      <trkpt lat="52.430110" lon="13.064944">
        <ele>34.443078</ele>
        <time>2024-04-24T14:39:05.213Z</time>
      </trkpt>
      <trkpt lat="52.430199" lon="13.064841">
        <ele>34.584219</ele>
        <time>2024-04-24T14:39:08.844Z</time>
      </trkpt>
      <trkpt lat="52.430275" lon="13.064685">
        <ele>34.741977</ele>
        <time>2024-04-24T14:39:12.953Z</time>
      </trkpt>
      <trkpt lat="52.430551" lon="13.063887">
        <ele>35.466802</ele>
        <time>2024-04-24T14:39:31.236Z</time>
      </trkpt>
      <trkpt lat="52.430638" lon="13.063530">
        <ele>35.770541</ele>
        <time>2024-04-24T14:39:39.127Z</time>
      </trkpt>
      <trkpt lat="52.430835" lon="13.063009">
        <ele>36.254878</ele>
        <time>2024-04-24T14:39:53.281Z</time>
      </trkpt>
      <trkpt lat="52.430910" lon="13.062732">
        <ele>36.494326</ele>
        <time>2024-04-24T14:39:59.992Z</time>
      </trkpt>
      <trkpt lat="52.431108" lon="13.062421">
        <ele>36.509989</ele>
        <time>2024-04-24T14:40:09.696Z</time>
      </trkpt>
      <trkpt lat="52.431440" lon="13.061990">
        <ele>36.519387</ele>
        <time>2024-04-24T14:40:21.912Z</time>
      </trkpt>
      <trkpt lat="52.431557" lon="13.061673">
        <ele>36.524401</ele>
        <time>2024-04-24T14:40:28.316Z</time>
      </trkpt>
      <trkpt lat="52.431711" lon="13.061406">
        <ele>36.529375</ele>
        <time>2024-04-24T14:40:34.672Z</time>
      </trkpt>
      <trkpt lat="52.432213" lon="13.060993">
        <ele>36.541840</ele>
        <time>2024-04-24T14:40:50.153Z</time>
      </trkpt>
      <trkpt lat="52.432433" lon="13.060682">
        <ele>36.549443</ele>
        <time>2024-04-24T14:40:58.198Z</time>
      </trkpt>
      <trkpt lat="52.432480" lon="13.060576">
        <ele>36.551695</ele>
        <time>2024-04-24T14:41:00.368Z</time>
      </trkpt>
      <trkpt lat="52.432550" lon="13.060200">
        <ele>36.558448</ele>
        <time>2024-04-24T14:41:07.511Z</time>
      </trkpt>
      <trkpt lat="52.432683" lon="13.059994">
        <ele>36.563602</ele>
        <time>2024-04-24T14:41:13.022Z</time>
      </trkpt>
      <trkpt lat="52.432744" lon="13.059922">
        <ele>36.565719</ele>
        <time>2024-04-24T14:41:15.155Z</time>
      </trkpt>
      <trkpt lat="52.432721" lon="13.059814">
        <ele>36.567685</ele>
        <time>2024-04-24T14:41:17.355Z</time>
      </trkpt>
      <trkpt lat="52.432808" lon="13.059720">
        <ele>36.570620</ele>
        <time>2024-04-24T14:41:19.774Z</time>
      </trkpt>
      <trkpt lat="52.432901" lon="13.059733">
        <ele>36.573250</ele>
        <time>2024-04-24T14:41:21.963Z</time>
      </trkpt>
      <trkpt lat="52.432941" lon="13.059709">
        <ele>36.574450</ele>
        <time>2024-04-24T14:41:22.921Z</time>
      </trkpt>
      <trkpt lat="52.433191" lon="13.059521">
        <ele>36.582198</ele>
        <time>2024-04-24T14:41:30.035Z</time>
      </trkpt>
      <trkpt lat="52.433318" lon="13.059357">
        <ele>36.586752</ele>
        <time>2024-04-24T14:41:34.231Z</time>
      </trkpt>
      <trkpt lat="52.433563" lon="13.058500">
        <ele>36.608411</ele>
        <time>2024-04-24T14:41:49.589Z</time>
      </trkpt>
      <trkpt lat="52.433758" lon="13.058142">
        <ele>36.621993</ele>
        <time>2024-04-24T14:41:57.477Z</time>
      </trkpt>
      <trkpt lat="52.433960" lon="13.057894">
        <ele>36.633702</ele>
        <time>2024-04-24T14:42:03.532Z</time>
      </trkpt>
      <trkpt lat="52.434547" lon="13.057472">
        <ele>36.663444</ele>
        <time>2024-04-24T14:42:19.586Z</time>
      </trkpt>
      <trkpt lat="52.434705" lon="13.057227">
        <ele>36.673534</ele>
        <time>2024-04-24T14:42:24.908Z</time>
      </trkpt>
      <trkpt lat="52.434803" lon="13.056944">
        <ele>36.681583</ele>
        <time>2024-04-24T14:42:29.606Z</time>
      </trkpt>
      <trkpt lat="52.434880" lon="13.056721">
        <ele>36.687008</ele>
        <time>2024-04-24T14:42:33.276Z</time>
      </trkpt>
      <trkpt lat="52.435058" lon="13.056148">
        <ele>36.700622</ele>
        <time>2024-04-24T14:42:42.524Z</time>
      </trkpt>
      <trkpt lat="52.435244" lon="13.055855">
        <ele>36.709576</ele>
        <time>2024-04-24T14:42:48.733Z</time>
      </trkpt>
      <trkpt lat="52.435275" lon="13.055714">
        <ele>36.712749</ele>
        <time>2024-04-24T14:42:50.830Z</time>
      </trkpt>
      <trkpt lat="52.435282" lon="13.055527">
        <ele>36.716715</ele>
        <time>2024-04-24T14:42:53.498Z</time>
      </trkpt>
      <trkpt lat="52.435344" lon="13.055279">
        <ele>36.722390</ele>
        <time>2024-04-24T14:42:57.316Z</time>
      </trkpt>
      <trkpt lat="52.435643" lon="13.054716">
        <ele>36.738196</ele>
        <time>2024-04-24T14:43:08.872Z</time>
      </trkpt>
      <trkpt lat="52.435869" lon="13.054131">
        <ele>36.464316</ele>
        <time>2024-04-24T14:43:19.199Z</time>
      </trkpt>
      <trkpt lat="52.435867" lon="13.053738">
        <ele>36.276930</ele>
        <time>2024-04-24T14:43:24.630Z</time>
      </trkpt>
      <trkpt lat="52.436017" lon="13.051891">
        <ele>35.388518</ele>
        <time>2024-04-24T14:43:46.534Z</time>
      </trkpt>
      <trkpt lat="52.436346" lon="13.051560">
        <ele>35.014012</ele>
        <time>2024-04-24T14:43:56.403Z</time>
      </trkpt>
      <trkpt lat="52.436642" lon="13.051300">
        <ele>34.674245</ele>
        <time>2024-04-24T14:44:05.274Z</time>
      </trkpt>
      <trkpt lat="52.436755" lon="13.051229">
        <ele>34.551797</ele>
        <time>2024-04-24T14:44:08.253Z</time>
      </trkpt>
      <trkpt lat="52.437487" lon="13.050820">
        <ele>33.769285</ele>
        <time>2024-04-24T14:44:29.295Z</time>
      </trkpt>
      <trkpt lat="52.437766" lon="13.050679">
        <ele>33.524681</ele>
        <time>2024-04-24T14:44:37.177Z</time>
      </trkpt>
      <trkpt lat="52.438053" lon="13.050599">
        <ele>33.604507</ele>
        <time>2024-04-24T14:44:45.374Z</time>
      </trkpt>
      <trkpt lat="52.438269" lon="13.050548">
        <ele>33.664347</ele>
        <time>2024-04-24T14:44:51.949Z</time>
      </trkpt>
      <trkpt lat="52.438570" lon="13.050332">
        <ele>33.754436</ele>
        <time>2024-04-24T14:45:02.718Z</time>
      </trkpt>
      <trkpt lat="52.438622" lon="13.050344">
        <ele>33.768835</ele>
        <time>2024-04-24T14:45:06.368Z</time>
      </trkpt>
      <trkpt lat="52.438771" lon="13.050240">
        <ele>33.813237</ele>
        <time>2024-04-24T14:45:17.636Z</time>
      </trkpt>
      <trkpt lat="52.438932" lon="13.050127">
        <ele>33.861256</ele>
        <time>2024-04-24T14:45:29.813Z</time>
      </trkpt>
      <trkpt lat="52.438940" lon="13.050093">
        <ele>33.867348</ele>
        <time>2024-04-24T14:45:31.349Z</time>
      </trkpt>
      <trkpt lat="52.439246" lon="13.049887">
        <ele>33.958046</ele>
        <time>2024-04-24T14:45:42.426Z</time>
      </trkpt>
      <trkpt lat="52.439692" lon="13.049595">
        <ele>33.932246</ele>
        <time>2024-04-24T14:45:57.266Z</time>
      </trkpt>
      <trkpt lat="52.439736" lon="13.049560">
        <ele>33.920113</ele>
        <time>2024-04-24T14:45:58.680Z</time>
      </trkpt>
      <trkpt lat="52.441117" lon="13.048637">
        <ele>33.594080</ele>
        <time>2024-04-24T14:46:39.830Z</time>
      </trkpt>
      <trkpt lat="52.441136" lon="13.048624">
        <ele>33.610028</ele>
        <time>2024-04-24T14:46:40.419Z</time>
      </trkpt>
      <trkpt lat="52.441729" lon="13.048197">
        <ele>34.111724</ele>
        <time>2024-04-24T14:47:00.871Z</time>
      </trkpt>
      <trkpt lat="52.441742" lon="13.048187">
        <ele>34.122847</ele>
        <time>2024-04-24T14:47:01.389Z</time>
      </trkpt>
      <trkpt lat="52.442836" lon="13.047418">
        <ele>35.139187</ele>
        <time>2024-04-24T14:47:42.861Z</time>
      </trkpt>
      <trkpt lat="52.443226" lon="13.047133">
        <ele>35.813839</ele>
        <time>2024-04-24T14:47:59.073Z</time>
      </trkpt>
      <trkpt lat="52.443205" lon="13.047053">
        <ele>35.897737</ele>
        <time>2024-04-24T14:48:00.853Z</time>
      </trkpt>
      <trkpt lat="52.443310" lon="13.046974">
        <ele>36.080274</ele>
        <time>2024-04-24T14:48:04.532Z</time>
      </trkpt>
      <trkpt lat="52.443401" lon="13.046905">
        <ele>36.238688</ele>
        <time>2024-04-24T14:48:07.644Z</time>
      </trkpt>
      <trkpt lat="52.443591" lon="13.046764">
        <ele>36.568214</ele>
        <time>2024-04-24T14:48:14.107Z</time>
      </trkpt>
      <trkpt lat="52.444011" lon="13.046468">
        <ele>37.290543</ele>
        <time>2024-04-24T14:48:28.121Z</time>
      </trkpt>
      <trkpt lat="52.444426" lon="13.046200">
        <ele>37.933189</ele>
        <time>2024-04-24T14:48:41.417Z</time>
      </trkpt>
      <trkpt lat="52.444923" lon="13.046063">
        <ele>38.480883</ele>
        <time>2024-04-24T14:48:55.913Z</time>
      </trkpt>
      <trkpt lat="52.445570" lon="13.046053">
        <ele>39.184053</ele>
        <time>2024-04-24T14:49:14.293Z</time>
      </trkpt>
      <trkpt lat="52.445583" lon="13.046053">
        <ele>39.198181</ele>
        <time>2024-04-24T14:49:14.671Z</time>
      </trkpt>
      <trkpt lat="52.447787" lon="13.046069">
        <ele>40.487135</ele>
        <time>2024-04-24T14:50:09.856Z</time>
      </trkpt>
      <trkpt lat="52.447885" lon="13.046191">
        <ele>40.528410</ele>
        <time>2024-04-24T14:50:13.414Z</time>
      </trkpt>
      <trkpt lat="52.447967" lon="13.046198">
        <ele>40.513281</ele>
        <time>2024-04-24T14:50:15.661Z</time>
      </trkpt>
      <trkpt lat="52.448382" lon="13.046196">
        <ele>40.436817</ele>
        <time>2024-04-24T14:50:27.403Z</time>
      </trkpt>
      <trkpt lat="52.449008" lon="13.046284">
        <ele>40.321054</ele>
        <time>2024-04-24T14:50:45.395Z</time>
      </trkpt>
      <trkpt lat="52.449385" lon="13.046332">
        <ele>40.251383</ele>
        <time>2024-04-24T14:50:56.031Z</time>
      </trkpt>
      <trkpt lat="52.450087" lon="13.046420">
        <ele>40.058802</ele>
        <time>2024-04-24T14:51:16.104Z</time>
      </trkpt>
      <trkpt lat="52.450208" lon="13.046397">
        <ele>40.018492</ele>
        <time>2024-04-24T14:51:19.757Z</time>
      </trkpt>
      <trkpt lat="52.450364" lon="13.046425">
        <ele>39.966560</ele>
        <time>2024-04-24T14:51:23.350Z</time>
      </trkpt>
      <trkpt lat="52.453001" lon="13.046818">
        <ele>38.675619</ele>
        <time>2024-04-24T14:52:19.116Z</time>
      </trkpt>
      <trkpt lat="52.453690" lon="13.046954">
        <ele>37.987241</ele>
        <time>2024-04-24T14:52:32.683Z</time>
      </trkpt>
      <trkpt lat="52.454943" lon="13.047305">
        <ele>36.457572</ele>
        <time>2024-04-24T14:52:57.309Z</time>
      </trkpt>
      <trkpt lat="52.455924" lon="13.047602">
        <ele>35.262158</ele>
        <time>2024-04-24T14:53:16.525Z</time>
      </trkpt>
      <trkpt lat="52.456453" lon="13.047783">
        <ele>34.614826</ele>
        <time>2024-04-24T14:53:27.093Z</time>
      </trkpt>
      <trkpt lat="52.456704" lon="13.047939">
        <ele>34.293305</ele>
        <time>2024-04-24T14:53:32.346Z</time>
      </trkpt>
      <trkpt lat="52.457574" lon="13.048840">
        <ele>33.514588</ele>
        <time>2024-04-24T14:53:53.220Z</time>
      </trkpt>
      <trkpt lat="52.457969" lon="13.049278">
        <ele>33.168615</ele>
        <time>2024-04-24T14:54:03.067Z</time>
      </trkpt>
      <trkpt lat="52.458234" lon="13.049739">
        <ele>32.906147</ele>
        <time>2024-04-24T14:54:11.004Z</time>
      </trkpt>
      <trkpt lat="52.458500" lon="13.050541">
        <ele>32.898273</ele>
        <time>2024-04-24T14:54:22.842Z</time>
      </trkpt>
      <trkpt lat="52.458605" lon="13.050777">
        <ele>32.895753</ele>
        <time>2024-04-24T14:54:26.725Z</time>
      </trkpt>
      <trkpt lat="52.458753" lon="13.051445">
        <ele>32.889623</ele>
        <time>2024-04-24T14:54:36.440Z</time>
      </trkpt>
      <trkpt lat="52.458940" lon="13.051974">
        <ele>32.884350</ele>
        <time>2024-04-24T14:54:45.150Z</time>
      </trkpt>
      <trkpt lat="52.459063" lon="13.052212">
        <ele>32.881658</ele>
        <time>2024-04-24T14:54:49.796Z</time>
      </trkpt>
      <trkpt lat="52.459650" lon="13.054147">
        <ele>34.085740</ele>
        <time>2024-04-24T14:55:23.118Z</time>
      </trkpt>
      <trkpt lat="52.459568" lon="13.054230">
        <ele>34.176854</ele>
        <time>2024-04-24T14:55:26.196Z</time>
      </trkpt>
      <trkpt lat="52.459231" lon="13.054363">
        <ele>34.504652</ele>
        <time>2024-04-24T14:55:37.010Z</time>
      </trkpt>
      <trkpt lat="52.459136" lon="13.054430">
        <ele>34.611887</ele>
        <time>2024-04-24T14:55:40.333Z</time>
      </trkpt>
      <trkpt lat="52.458957" lon="13.054670">
        <ele>34.931918</ele>
        <time>2024-04-24T14:55:47.463Z</time>
      </trkpt>
      <trkpt lat="52.458799" lon="13.054960">
        <ele>35.260118</ele>
        <time>2024-04-24T14:55:55.010Z</time>
      </trkpt>
      <trkpt lat="52.458560" lon="13.055648">
        <ele>35.928257</ele>
        <time>2024-04-24T14:56:09.538Z</time>
      </trkpt>
      <trkpt lat="52.458494" lon="13.055898">
        <ele>36.158118</ele>
        <time>2024-04-24T14:56:14.701Z</time>
      </trkpt>
      <trkpt lat="52.458410" lon="13.056217">
        <ele>36.451302</ele>
        <time>2024-04-24T14:56:20.653Z</time>
      </trkpt>
      <trkpt lat="52.458339" lon="13.056486">
        <ele>36.698624</ele>
        <time>2024-04-24T14:56:25.922Z</time>
      </trkpt>
      <trkpt lat="52.458326" lon="13.056537">
        <ele>36.745264</ele>
        <time>2024-04-24T14:56:26.905Z</time>
      </trkpt>
      <trkpt lat="52.458230" lon="13.056986">
        <ele>37.065954</ele>
        <time>2024-04-24T14:56:35.196Z</time>
      </trkpt>
      <trkpt lat="52.457895" lon="13.058582">
        <ele>36.942011</ele>
        <time>2024-04-24T14:56:57.958Z</time>
      </trkpt>
      <trkpt lat="52.457765" lon="13.058899">
        <ele>36.913955</ele>
        <time>2024-04-24T14:57:02.724Z</time>
      </trkpt>
      <trkpt lat="52.457528" lon="13.059315">
        <ele>36.872140</ele>
        <time>2024-04-24T14:57:09.697Z</time>
      </trkpt>
      <trkpt lat="52.457503" lon="13.059437">
        <ele>36.862689</ele>
        <time>2024-04-24T14:57:11.299Z</time>
      </trkpt>
      <trkpt lat="52.457379" lon="13.059475">
        <ele>36.894633</ele>
        <time>2024-04-24T14:57:13.729Z</time>
      </trkpt>
      <trkpt lat="52.457166" lon="13.059557">
        <ele>37.019859</ele>
        <time>2024-04-24T14:57:18.424Z</time>
      </trkpt>
      <trkpt lat="52.457047" lon="13.059525">
        <ele>37.088881</ele>
        <time>2024-04-24T14:57:20.808Z</time>
      </trkpt>
      <trkpt lat="52.456867" lon="13.059506">
        <ele>37.192122</ele>
        <time>2024-04-24T14:57:24.788Z</time>
      </trkpt>
      <trkpt lat="52.456700" lon="13.059560">
        <ele>37.289548</ele>
        <time>2024-04-24T14:57:28.359Z</time>
      </trkpt>
      <trkpt lat="52.455492" lon="13.060551">
        <ele>38.884993</ele>
        <time>2024-04-24T14:58:06.673Z</time>
      </trkpt>
      <trkpt lat="52.455317" lon="13.060807">
        <ele>39.641378</ele>
        <time>2024-04-24T14:58:15.631Z</time>
      </trkpt>
      <trkpt lat="52.454984" lon="13.061841">
        <ele>41.940756</ele>
        <time>2024-04-24T14:58:43.055Z</time>
      </trkpt>
      <trkpt lat="52.454900" lon="13.062184">
        <ele>42.667549</ele>
        <time>2024-04-24T14:58:53.013Z</time>
      </trkpt>
      <trkpt lat="52.454740" lon="13.062834">
        <ele>44.155441</ele>
        <time>2024-04-24T14:59:12.223Z</time>
      </trkpt>
      <trkpt lat="52.454751" lon="13.063019">
        <ele>44.632921</ele>
        <time>2024-04-24T14:59:19.065Z</time>
      </trkpt>
      <trkpt lat="52.454729" lon="13.063262">
        <ele>45.263984</ele>
        <time>2024-04-24T14:59:28.971Z</time>
      </trkpt>
      <trkpt lat="52.454751" lon="13.063019">
        <ele>45.895046</ele>
        <time>2024-04-24T14:59:37.993Z</time>
      </trkpt>
      <trkpt lat="52.454740" lon="13.062834">
        <ele>46.372526</ele>
        <time>2024-04-24T14:59:45.247Z</time>
      </trkpt>
      <trkpt lat="52.454610" lon="13.063044">
        <ele>47.141483</ele>
        <time>2024-04-24T14:59:54.205Z</time>
      </trkpt>
      <trkpt lat="52.454412" lon="13.063145">
        <ele>48.015514</ele>
        <time>2024-04-24T15:00:04.387Z</time>
      </trkpt>
      <trkpt lat="52.453894" lon="13.063068">
        <ele>50.207996</ele>
        <time>2024-04-24T15:00:26.927Z</time>
      </trkpt>
      <trkpt lat="52.453587" lon="13.063052">
        <ele>51.206439</ele>
        <time>2024-04-24T15:00:38.108Z</time>
      </trkpt>
      <trkpt lat="52.453081" lon="13.063103">
        <ele>50.620968</ele>
        <time>2024-04-24T15:00:53.147Z</time>
      </trkpt>
      <trkpt lat="52.452967" lon="13.063151">
        <ele>50.485047</ele>
        <time>2024-04-24T15:00:56.199Z</time>
      </trkpt>
      <trkpt lat="52.452727" lon="13.063376">
        <ele>50.165828</ele>
        <time>2024-04-24T15:01:02.003Z</time>
      </trkpt>
      <trkpt lat="52.452282" lon="13.063969">
        <ele>49.503784</ele>
        <time>2024-04-24T15:01:12.096Z</time>
      </trkpt>
      <trkpt lat="52.452000" lon="13.064212">
        <ele>48.891949</ele>
        <time>2024-04-24T15:01:17.196Z</time>
      </trkpt>
      <trkpt lat="52.451438" lon="13.064477">
        <ele>45.326671</ele>
        <time>2024-04-24T15:01:26.037Z</time>
      </trkpt>
      <trkpt lat="52.451037" lon="13.064694">
        <ele>42.752180</ele>
        <time>2024-04-24T15:01:32.305Z</time>
      </trkpt>
      <trkpt lat="52.450506" lon="13.065060">
        <ele>39.240539</ele>
        <time>2024-04-24T15:01:41.036Z</time>
      </trkpt>
      <trkpt lat="52.450310" lon="13.065253">
        <ele>38.034815</ele>
        <time>2024-04-24T15:01:44.594Z</time>
      </trkpt>
      <trkpt lat="52.450217" lon="13.065346">
        <ele>37.699714</ele>
        <time>2024-04-24T15:01:46.303Z</time>
      </trkpt>
      <trkpt lat="52.449967" lon="13.065745">
        <ele>36.626635</ele>
        <time>2024-04-24T15:01:51.907Z</time>
      </trkpt>
      <trkpt lat="52.449456" lon="13.066644">
        <ele>34.321419</ele>
        <time>2024-04-24T15:02:04.804Z</time>
      </trkpt>
      <trkpt lat="52.449177" lon="13.066912">
        <ele>33.326687</ele>
        <time>2024-04-24T15:02:10.927Z</time>
      </trkpt>
      <trkpt lat="52.448621" lon="13.067610">
        <ele>32.772277</ele>
        <time>2024-04-24T15:02:25.907Z</time>
      </trkpt>
      <trkpt lat="52.447957" lon="13.068278">
        <ele>32.898620</ele>
        <time>2024-04-24T15:02:44.243Z</time>
      </trkpt>
      <trkpt lat="52.447745" lon="13.068397">
        <ele>32.934966</ele>
        <time>2024-04-24T15:02:50.193Z</time>
      </trkpt>
      <trkpt lat="52.447215" lon="13.068693">
        <ele>33.236389</ele>
        <time>2024-04-24T15:03:05.229Z</time>
      </trkpt>
      <trkpt lat="52.446817" lon="13.068837">
        <ele>33.635174</ele>
        <time>2024-04-24T15:03:16.505Z</time>
      </trkpt>
      <trkpt lat="52.446635" lon="13.068903">
        <ele>33.817553</ele>
        <time>2024-04-24T15:03:22.278Z</time>
      </trkpt>
      <trkpt lat="52.446243" lon="13.068967">
        <ele>34.203005</ele>
        <time>2024-04-24T15:03:34.072Z</time>
      </trkpt>
      <trkpt lat="52.445908" lon="13.068975">
        <ele>34.530826</ele>
        <time>2024-04-24T15:03:44.013Z</time>
      </trkpt>
      <trkpt lat="52.445244" lon="13.068889">
        <ele>35.139840</ele>
        <time>2024-04-24T15:04:03.599Z</time>
      </trkpt>
      <trkpt lat="52.444710" lon="13.068640">
        <ele>35.630154</ele>
        <time>2024-04-24T15:04:18.711Z</time>
      </trkpt>
      <trkpt lat="52.443936" lon="13.068151">
        <ele>36.390505</ele>
        <time>2024-04-24T15:04:43.612Z</time>
      </trkpt>
      <trkpt lat="52.443711" lon="13.067962">
        <ele>36.818823</ele>
        <time>2024-04-24T15:04:50.364Z</time>
      </trkpt>
      <trkpt lat="52.442879" lon="13.067190">
        <ele>38.438466</ele>
        <time>2024-04-24T15:05:20.961Z</time>
      </trkpt>
      <trkpt lat="52.442534" lon="13.066709">
        <ele>39.205636</ele>
        <time>2024-04-24T15:05:37.306Z</time>
      </trkpt>
      <trkpt lat="52.442220" lon="13.065868">
        <ele>40.445855</ele>
        <time>2024-04-24T15:06:01.458Z</time>
      </trkpt>
      <trkpt lat="52.442043" lon="13.064922">
        <ele>41.736234</ele>
        <time>2024-04-24T15:06:23.549Z</time>
      </trkpt>
      <trkpt lat="52.441886" lon="13.064756">
        <ele>42.135806</ele>
        <time>2024-04-24T15:06:30.318Z</time>
      </trkpt>
      <trkpt lat="52.441464" lon="13.064434">
        <ele>43.131431</ele>
        <time>2024-04-24T15:06:47.289Z</time>
      </trkpt>
      <trkpt lat="52.440650" lon="13.063053">
        <ele>42.533557</ele>
        <time>2024-04-24T15:07:16.207Z</time>
      </trkpt>
      <trkpt lat="52.440509" lon="13.062675">
        <ele>42.366988</ele>
        <time>2024-04-24T15:07:21.824Z</time>
      </trkpt>
      <trkpt lat="52.440294" lon="13.061722">
        <ele>41.582179</ele>
        <time>2024-04-24T15:07:34.318Z</time>
      </trkpt>
      <trkpt lat="52.440106" lon="13.061190">
        <ele>40.654790</ele>
        <time>2024-04-24T15:07:41.767Z</time>
      </trkpt>
      <trkpt lat="52.439829" lon="13.060889">
        <ele>39.832778</ele>
        <time>2024-04-24T15:07:48.264Z</time>
      </trkpt>
      <trkpt lat="52.439593" lon="13.060829">
        <ele>39.241942</ele>
        <time>2024-04-24T15:07:52.949Z</time>
      </trkpt>
      <trkpt lat="52.439321" lon="13.060856">
        <ele>38.567783</ele>
        <time>2024-04-24T15:07:58.360Z</time>
      </trkpt>
      <trkpt lat="52.439117" lon="13.060958">
        <ele>38.040162</ele>
        <time>2024-04-24T15:08:02.648Z</time>
      </trkpt>
      <trkpt lat="52.437976" lon="13.062469">
        <ele>35.362398</ele>
        <time>2024-04-24T15:08:33.603Z</time>
      </trkpt>
      <trkpt lat="52.437720" lon="13.062649">
        <ele>34.874360</ele>
        <time>2024-04-24T15:08:39.505Z</time>
      </trkpt>
      <trkpt lat="52.437264" lon="13.062850">
        <ele>34.169323</ele>
        <time>2024-04-24T15:08:49.526Z</time>
      </trkpt>
      <trkpt lat="52.437168" lon="13.062933">
        <ele>34.028628</ele>
        <time>2024-04-24T15:08:51.806Z</time>
      </trkpt>
      <trkpt lat="52.437092" lon="13.062994">
        <ele>33.918930</ele>
        <time>2024-04-24T15:08:53.561Z</time>
      </trkpt>
      <trkpt lat="52.435789" lon="13.064406">
        <ele>32.117900</ele>
        <time>2024-04-24T15:09:27.647Z</time>
      </trkpt>
      <trkpt lat="52.435403" lon="13.065150">
        <ele>31.938961</ele>
        <time>2024-04-24T15:09:41.882Z</time>
      </trkpt>
      <trkpt lat="52.434103" lon="13.068010">
        <ele>31.623334</ele>
        <time>2024-04-24T15:10:36.318Z</time>
      </trkpt>
      <trkpt lat="52.433905" lon="13.068248">
        <ele>31.618891</ele>
        <time>2024-04-24T15:10:42.374Z</time>
      </trkpt>
      <trkpt lat="52.433651" lon="13.068513">
        <ele>31.613443</ele>
        <time>2024-04-24T15:10:49.623Z</time>
      </trkpt>
      <trkpt lat="52.432916" lon="13.069310">
        <ele>31.473081</ele>
        <time>2024-04-24T15:11:10.642Z</time>
      </trkpt>
      <trkpt lat="52.432341" lon="13.070040">
        <ele>31.350318</ele>
        <time>2024-04-24T15:11:27.930Z</time>
      </trkpt>
      <trkpt lat="52.431571" lon="13.070872">
        <ele>31.581361</ele>
        <time>2024-04-24T15:11:52.746Z</time>
      </trkpt>
      <trkpt lat="52.431118" lon="13.071370">
        <ele>31.801281</ele>
        <time>2024-04-24T15:12:07.510Z</time>
      </trkpt>
      <trkpt lat="52.430760" lon="13.072108">
        <ele>32.033162</ele>
        <time>2024-04-24T15:12:22.487Z</time>
      </trkpt>
      <trkpt lat="52.430624" lon="13.072503">
        <ele>32.183310</ele>
        <time>2024-04-24T15:12:30.158Z</time>
      </trkpt>
      <trkpt lat="52.429781" lon="13.072181">
        <ele>32.654210</ele>
        <time>2024-04-24T15:12:54.671Z</time>
      </trkpt>
      <trkpt lat="52.429418" lon="13.072140">
        <ele>32.852164</ele>
        <time>2024-04-24T15:13:04.968Z</time>
      </trkpt>
      <trkpt lat="52.429070" lon="13.072189">
        <ele>33.020005</ele>
        <time>2024-04-24T15:13:14.304Z</time>
      </trkpt>
      <trkpt lat="52.428676" lon="13.072371">
        <ele>33.075571</ele>
        <time>2024-04-24T15:13:24.532Z</time>
      </trkpt>
      <trkpt lat="52.428418" lon="13.072486">
        <ele>33.111865</ele>
        <time>2024-04-24T15:13:31.236Z</time>
      </trkpt>
      <trkpt lat="52.428072" lon="13.072829">
        <ele>33.166748</ele>
        <time>2024-04-24T15:13:41.630Z</time>
      </trkpt>
      <trkpt lat="52.427710" lon="13.073004">
        <ele>33.217979</ele>
        <time>2024-04-24T15:13:51.460Z</time>
      </trkpt>
      <trkpt lat="52.427308" lon="13.073198">
        <ele>33.190192</ele>
        <time>2024-04-24T15:14:01.677Z</time>
      </trkpt>
      <trkpt lat="52.427118" lon="13.073421">
        <ele>33.073294</ele>
        <time>2024-04-24T15:14:07.269Z</time>
      </trkpt>
      <trkpt lat="52.427045" lon="13.073507">
        <ele>33.028323</ele>
        <time>2024-04-24T15:14:09.331Z</time>
      </trkpt>
      <trkpt lat="52.426401" lon="13.074262">
        <ele>32.632250</ele>
        <time>2024-04-24T15:14:27.489Z</time>
      </trkpt>
      <trkpt lat="52.425987" lon="13.074794">
        <ele>32.369100</ele>
        <time>2024-04-24T15:14:39.544Z</time>
      </trkpt>
      <trkpt lat="52.425668" lon="13.075413">
        <ele>32.216749</ele>
        <time>2024-04-24T15:14:51.112Z</time>
      </trkpt>
      <trkpt lat="52.425343" lon="13.076254">
        <ele>32.035638</ele>
        <time>2024-04-24T15:15:05.396Z</time>
      </trkpt>
      <trkpt lat="52.425036" lon="13.077159">
        <ele>31.847258</ele>
        <time>2024-04-24T15:15:20.716Z</time>
      </trkpt>
      <trkpt lat="52.424573" lon="13.078472">
        <ele>32.170456</ele>
        <time>2024-04-24T15:15:45.195Z</time>
      </trkpt>
      <trkpt lat="52.424119" lon="13.079652">
        <ele>32.527314</ele>
        <time>2024-04-24T15:16:08.849Z</time>
      </trkpt>
      <trkpt lat="52.424030" lon="13.080030">
        <ele>32.583172</ele>
        <time>2024-04-24T15:16:15.624Z</time>
      </trkpt>
      <trkpt lat="52.424030" lon="13.080391">
        <ele>32.597004</ele>
        <time>2024-04-24T15:16:21.872Z</time>
      </trkpt>
      <trkpt lat="52.424218" lon="13.080820">
        <ele>32.617244</ele>
        <time>2024-04-24T15:16:30.817Z</time>
      </trkpt>
      <trkpt lat="52.425121" lon="13.082193">
        <ele>32.629032</ele>
        <time>2024-04-24T15:17:00.518Z</time>
      </trkpt>
      <trkpt lat="52.425518" lon="13.083043">
        <ele>32.277480</ele>
        <time>2024-04-24T15:17:15.299Z</time>
      </trkpt>
      <trkpt lat="52.425659" lon="13.083488">
        <ele>32.112820</ele>
        <time>2024-04-24T15:17:22.165Z</time>
      </trkpt>
      <trkpt lat="52.425728" lon="13.083704">
        <ele>32.032755</ele>
        <time>2024-04-24T15:17:25.548Z</time>
      </trkpt>
      <trkpt lat="52.426052" lon="13.085137">
        <ele>31.792842</ele>
        <time>2024-04-24T15:17:47.795Z</time>
      </trkpt>
      <trkpt lat="52.426167" lon="13.085995">
        <ele>31.905507</ele>
        <time>2024-04-24T15:18:01.373Z</time>
      </trkpt>
      <trkpt lat="52.426231" lon="13.086163">
        <ele>31.930911</ele>
        <time>2024-04-24T15:18:04.583Z</time>
      </trkpt>
      <trkpt lat="52.426248" lon="13.086412">
        <ele>31.963045</ele>
        <time>2024-04-24T15:18:08.315Z</time>
      </trkpt>
      <trkpt lat="52.426365" lon="13.086620">
        <ele>31.999337</ele>
        <time>2024-04-24T15:18:12.730Z</time>
      </trkpt>
      <trkpt lat="52.426466" lon="13.087089">
        <ele>32.063126</ele>
        <time>2024-04-24T15:18:21.086Z</time>
      </trkpt>
      <trkpt lat="52.426452" lon="13.087457">
        <ele>32.150698</ele>
        <time>2024-04-24T15:18:27.304Z</time>
      </trkpt>
      <trkpt lat="52.426451" lon="13.087484">
        <ele>32.165045</ele>
        <time>2024-04-24T15:18:27.775Z</time>
      </trkpt>
      <trkpt lat="52.426452" lon="13.087457">
        <ele>32.179392</ele>
        <time>2024-04-24T15:18:28.261Z</time>
      </trkpt>
      <trkpt lat="52.426466" lon="13.087089">
        <ele>32.374961</ele>
        <time>2024-04-24T15:18:35.081Z</time>
      </trkpt>
      <trkpt lat="52.426365" lon="13.086620">
        <ele>32.638780</ele>
        <time>2024-04-24T15:18:44.274Z</time>
      </trkpt>
      <trkpt lat="52.426248" lon="13.086412">
        <ele>32.788876</ele>
        <time>2024-04-24T15:18:49.521Z</time>
      </trkpt>
      <trkpt lat="52.426231" lon="13.086163">
        <ele>32.921773</ele>
        <time>2024-04-24T15:18:54.195Z</time>
      </trkpt>
      <trkpt lat="52.426440" lon="13.086292">
        <ele>33.116018</ele>
        <time>2024-04-24T15:19:00.889Z</time>
      </trkpt>
      <trkpt lat="52.426520" lon="13.086384">
        <ele>33.201009</ele>
        <time>2024-04-24T15:19:03.823Z</time>
      </trkpt>
      <trkpt lat="52.426686" lon="13.086635">
        <ele>33.397410</ele>
        <time>2024-04-24T15:19:10.349Z</time>
      </trkpt>
      <trkpt lat="52.427016" lon="13.086627">
        <ele>33.665739</ele>
        <time>2024-04-24T15:19:23.892Z</time>
      </trkpt>
      <trkpt lat="52.427812" lon="13.086481">
        <ele>33.779333</ele>
        <time>2024-04-24T15:19:55.197Z</time>
      </trkpt>
      <trkpt lat="52.427969" lon="13.086524">
        <ele>33.801908</ele>
        <time>2024-04-24T15:20:01.263Z</time>
      </trkpt>
      <trkpt lat="52.428075" lon="13.086605">
        <ele>33.818493</ele>
        <time>2024-04-24T15:20:05.703Z</time>
      </trkpt>
      <trkpt lat="52.428243" lon="13.087068">
        <ele>33.865084</ele>
        <time>2024-04-24T15:20:17.835Z</time>
      </trkpt>
      <trkpt lat="52.428369" lon="13.087566">
        <ele>33.911710</ele>
        <time>2024-04-24T15:20:29.668Z</time>
      </trkpt>
      <trkpt lat="52.428691" lon="13.088294">
        <ele>33.715839</ele>
        <time>2024-04-24T15:20:49.209Z</time>
      </trkpt>
      <trkpt lat="52.428619" lon="13.088469">
        <ele>33.665007</ele>
        <time>2024-04-24T15:20:51.853Z</time>
      </trkpt>
      <trkpt lat="52.428579" lon="13.088557">
        <ele>33.638579</ele>
        <time>2024-04-24T15:20:53.272Z</time>
      </trkpt>
      <trkpt lat="52.428227" lon="13.090463">
        <ele>33.220845</ele>
        <time>2024-04-24T15:21:18.733Z</time>
      </trkpt>
      <trkpt lat="52.428234" lon="13.090528">
        <ele>33.225470</ele>
        <time>2024-04-24T15:21:19.630Z</time>
      </trkpt>
      <trkpt lat="52.428257" lon="13.090763">
        <ele>33.242147</ele>
        <time>2024-04-24T15:21:22.944Z</time>
      </trkpt>
      <trkpt lat="52.428577" lon="13.091833">
        <ele>33.325652</ele>
        <time>2024-04-24T15:21:40.425Z</time>
      </trkpt>
      <trkpt lat="52.428598" lon="13.092219">
        <ele>33.352805</ele>
        <time>2024-04-24T15:21:46.066Z</time>
      </trkpt>
      <trkpt lat="52.428562" lon="13.093347">
        <ele>33.397277</ele>
        <time>2024-04-24T15:22:01.730Z</time>
      </trkpt>
      <trkpt lat="52.428547" lon="13.093971">
        <ele>33.358334</ele>
        <time>2024-04-24T15:22:10.052Z</time>
      </trkpt>
      <trkpt lat="52.428542" lon="13.094375">
        <ele>33.333136</ele>
        <time>2024-04-24T15:22:15.422Z</time>
      </trkpt>
      <trkpt lat="52.428524" lon="13.095156">
        <ele>33.284398</ele>
        <time>2024-04-24T15:22:25.789Z</time>
      </trkpt>
      <trkpt lat="52.428538" lon="13.096510">
        <ele>33.171789</ele>
        <time>2024-04-24T15:22:43.883Z</time>
      </trkpt>
      <trkpt lat="52.427086" lon="13.096620">
        <ele>32.882203</ele>
        <time>2024-04-24T15:23:15.241Z</time>
      </trkpt>
      <trkpt lat="52.428538" lon="13.096510">
        <ele>32.546666</ele>
        <time>2024-04-24T15:23:46.675Z</time>
      </trkpt>
      <trkpt lat="52.428723" lon="13.097585">
        <ele>32.539283</ele>
        <time>2024-04-24T15:24:01.271Z</time>
      </trkpt>
      <trkpt lat="52.429076" lon="13.099165">
        <ele>32.850674</ele>
        <time>2024-04-24T15:24:25.783Z</time>
      </trkpt>
      <trkpt lat="52.429150" lon="13.099294">
        <ele>32.883449</ele>
        <time>2024-04-24T15:24:28.419Z</time>
      </trkpt>
      <trkpt lat="52.429364" lon="13.099377">
        <ele>32.950188</ele>
        <time>2024-04-24T15:24:33.848Z</time>
      </trkpt>
      <trkpt lat="52.429501" lon="13.099405">
        <ele>32.992088</ele>
        <time>2024-04-24T15:24:37.358Z</time>
      </trkpt>
      <trkpt lat="52.429610" lon="13.099428">
        <ele>33.047362</ele>
        <time>2024-04-24T15:24:40.252Z</time>
      </trkpt>
      <trkpt lat="52.430097" lon="13.099498">
        <ele>33.322415</ele>
        <time>2024-04-24T15:24:52.910Z</time>
      </trkpt>
      <trkpt lat="52.430627" lon="13.099574">
        <ele>33.621749</ele>
        <time>2024-04-24T15:25:06.709Z</time>
      </trkpt>
      <trkpt lat="52.431096" lon="13.099658">
        <ele>33.887192</ele>
        <time>2024-04-24T15:25:18.579Z</time>
      </trkpt>
      <trkpt lat="52.431267" lon="13.099811">
        <ele>33.996788</ele>
        <time>2024-04-24T15:25:23.091Z</time>
      </trkpt>
      <trkpt lat="52.432788" lon="13.101535">
        <ele>34.247508</ele>
        <time>2024-04-24T15:26:04.995Z</time>
      </trkpt>
      <trkpt lat="52.432974" lon="13.101764">
        <ele>34.385734</ele>
        <time>2024-04-24T15:26:10.196Z</time>
      </trkpt>
      <trkpt lat="52.433026" lon="13.101830">
        <ele>34.424812</ele>
        <time>2024-04-24T15:26:11.644Z</time>
      </trkpt>
      <trkpt lat="52.433194" lon="13.102037">
        <ele>34.549696</ele>
        <time>2024-04-24T15:26:16.598Z</time>
      </trkpt>
      <trkpt lat="52.433887" lon="13.103071">
        <ele>35.106492</ele>
        <time>2024-04-24T15:26:40.190Z</time>
      </trkpt>
      <trkpt lat="52.434267" lon="13.103631">
        <ele>35.506052</ele>
        <time>2024-04-24T15:26:54.702Z</time>
      </trkpt>
      <trkpt lat="52.435629" lon="13.105654">
        <ele>37.432067</ele>
        <time>2024-04-24T15:27:46.523Z</time>
      </trkpt>
      <trkpt lat="52.437512" lon="13.108337">
        <ele>38.767050</ele>
        <time>2024-04-24T15:28:46.354Z</time>
      </trkpt>
      <trkpt lat="52.438666" lon="13.110265">
        <ele>40.344304</ele>
        <time>2024-04-24T15:29:30.125Z</time>
      </trkpt>
      <trkpt lat="52.439365" lon="13.112165">
        <ele>42.461420</ele>
        <time>2024-04-24T15:30:11.621Z</time>
      </trkpt>
      <trkpt lat="52.439995" lon="13.113935">
        <ele>45.263670</ele>
        <time>2024-04-24T15:30:53.803Z</time>
      </trkpt>
      <trkpt lat="52.441039" lon="13.114496">
        <ele>48.075530</ele>
        <time>2024-04-24T15:31:33.149Z</time>
      </trkpt>
      <trkpt lat="52.441516" lon="13.114906">
        <ele>49.499276</ele>
        <time>2024-04-24T15:31:53.158Z</time>
      </trkpt>
      <trkpt lat="52.441979" lon="13.115305">
        <ele>50.581131</ele>
        <time>2024-04-24T15:32:11.841Z</time>
      </trkpt>
      <trkpt lat="52.442188" lon="13.115914">
        <ele>50.724824</ele>
        <time>2024-04-24T15:32:25.343Z</time>
      </trkpt>
      <trkpt lat="52.442649" lon="13.117472">
        <ele>51.080896</ele>
        <time>2024-04-24T15:32:48.769Z</time>
      </trkpt>
      <trkpt lat="52.442847" lon="13.118464">
        <ele>50.140824</ele>
        <time>2024-04-24T15:33:00.229Z</time>
      </trkpt>
      <trkpt lat="52.442895" lon="13.118851">
        <ele>49.603974</ele>
        <time>2024-04-24T15:33:04.472Z</time>
      </trkpt>
      <trkpt lat="52.442907" lon="13.119054">
        <ele>49.326730</ele>
        <time>2024-04-24T15:33:06.637Z</time>
      </trkpt>
      <trkpt lat="52.442909" lon="13.119377">
        <ele>48.887637</ele>
        <time>2024-04-24T15:33:10.088Z</time>
      </trkpt>
      <trkpt lat="52.442858" lon="13.119692">
        <ele>48.444593</ele>
        <time>2024-04-24T15:33:13.576Z</time>
      </trkpt>
      <trkpt lat="52.442666" lon="13.120404">
        <ele>47.386249</ele>
        <time>2024-04-24T15:33:21.956Z</time>
      </trkpt>
      <trkpt lat="52.442605" lon="13.120762">
        <ele>47.078361</ele>
        <time>2024-04-24T15:33:26.047Z</time>
      </trkpt>
      <trkpt lat="52.442631" lon="13.121096">
        <ele>46.979598</ele>
        <time>2024-04-24T15:33:29.822Z</time>
      </trkpt>
      <trkpt lat="52.442674" lon="13.121299">
        <ele>46.916562</ele>
        <time>2024-04-24T15:33:32.234Z</time>
      </trkpt>
      <trkpt lat="52.442704" lon="13.121406">
        <ele>46.882017</ele>
        <time>2024-04-24T15:33:33.571Z</time>
      </trkpt>
      <trkpt lat="52.443342" lon="13.123448">
        <ele>46.346101</ele>
        <time>2024-04-24T15:34:06.167Z</time>
      </trkpt>
      <trkpt lat="52.443412" lon="13.123642">
        <ele>46.435758</ele>
        <time>2024-04-24T15:34:09.810Z</time>
      </trkpt>
      <trkpt lat="52.443416" lon="13.123654">
        <ele>46.441198</ele>
        <time>2024-04-24T15:34:10.031Z</time>
      </trkpt>
      <trkpt lat="52.443490" lon="13.123836">
        <ele>46.528203</ele>
        <time>2024-04-24T15:34:13.687Z</time>
      </trkpt>
      <trkpt lat="52.443605" lon="13.124053">
        <ele>46.642559</ele>
        <time>2024-04-24T15:34:18.200Z</time>
      </trkpt>
      <trkpt lat="52.443801" lon="13.124305">
        <ele>46.805030</ele>
        <time>2024-04-24T15:34:24.673Z</time>
      </trkpt>
      <trkpt lat="52.443981" lon="13.124490">
        <ele>46.943612</ele>
        <time>2024-04-24T15:34:30.071Z</time>
      </trkpt>
      <trkpt lat="52.444095" lon="13.124593">
        <ele>47.028524</ele>
        <time>2024-04-24T15:34:33.468Z</time>
      </trkpt>
      <trkpt lat="52.443917" lon="13.125034">
        <ele>47.238871</ele>
        <time>2024-04-24T15:34:41.894Z</time>
      </trkpt>
      <trkpt lat="52.443866" lon="13.125293">
        <ele>47.347114</ele>
        <time>2024-04-24T15:34:46.490Z</time>
      </trkpt>
      <trkpt lat="52.443857" lon="13.126027">
        <ele>47.459524</ele>
        <time>2024-04-24T15:34:58.124Z</time>
      </trkpt>
      <trkpt lat="52.443857" lon="13.126070">
        <ele>47.461147</ele>
        <time>2024-04-24T15:34:58.743Z</time>
      </trkpt>
      <trkpt lat="52.443856" lon="13.126546">
        <ele>47.479113</ele>
        <time>2024-04-24T15:35:05.834Z</time>
      </trkpt>
      <trkpt lat="52.444176" lon="13.127172">
        <ele>47.509949</ele>
        <time>2024-04-24T15:35:16.779Z</time>
      </trkpt>
      <trkpt lat="52.444240" lon="13.127212">
        <ele>47.514190</ele>
        <time>2024-04-24T15:35:18.376Z</time>
      </trkpt>
      <trkpt lat="52.444314" lon="13.127296">
        <ele>47.519762</ele>
        <time>2024-04-24T15:35:20.430Z</time>
      </trkpt>
      <trkpt lat="52.444799" lon="13.128239">
        <ele>47.083525</ele>
        <time>2024-04-24T15:35:36.293Z</time>
      </trkpt>
      <trkpt lat="52.445001" lon="13.128686">
        <ele>46.393475</ele>
        <time>2024-04-24T15:35:43.210Z</time>
      </trkpt>
      <trkpt lat="52.445109" lon="13.129219">
        <ele>45.696944</ele>
        <time>2024-04-24T15:35:49.811Z</time>
      </trkpt>
      <trkpt lat="52.445150" lon="13.129400">
        <ele>45.457490</ele>
        <time>2024-04-24T15:35:51.931Z</time>
      </trkpt>
      <trkpt lat="52.445277" lon="13.129962">
        <ele>44.714209</ele>
        <time>2024-04-24T15:35:58.318Z</time>
      </trkpt>
      <trkpt lat="52.445378" lon="13.130444">
        <ele>44.082157</ele>
        <time>2024-04-24T15:36:03.519Z</time>
      </trkpt>
      <trkpt lat="52.445536" lon="13.131200">
        <ele>42.421256</ele>
        <time>2024-04-24T15:36:11.500Z</time>
      </trkpt>
      <trkpt lat="52.445808" lon="13.131775">
        <ele>40.764471</ele>
        <time>2024-04-24T15:36:18.876Z</time>
      </trkpt>
      <trkpt lat="52.446092" lon="13.132340">
        <ele>39.097467</ele>
        <time>2024-04-24T15:36:26.252Z</time>
      </trkpt>
      <trkpt lat="52.446351" lon="13.132856">
        <ele>37.575919</ele>
        <time>2024-04-24T15:36:32.998Z</time>
      </trkpt>
      <trkpt lat="52.446821" lon="13.133792">
        <ele>35.647958</ele>
        <time>2024-04-24T15:36:45.624Z</time>
      </trkpt>
      <trkpt lat="52.446845" lon="13.133885">
        <ele>35.499165</ele>
        <time>2024-04-24T15:36:46.692Z</time>
      </trkpt>
      <trkpt lat="52.447004" lon="13.134515">
        <ele>34.494555</ele>
        <time>2024-04-24T15:36:54.099Z</time>
      </trkpt>
      <trkpt lat="52.447224" lon="13.135392">
        <ele>33.097314</ele>
        <time>2024-04-24T15:37:05.191Z</time>
      </trkpt>
      <trkpt lat="52.446777" lon="13.135638">
        <ele>32.473058</ele>
        <time>2024-04-24T15:37:20.829Z</time>
      </trkpt>
      <trkpt lat="52.446360" lon="13.137540">
        <ele>31.259011</ele>
        <time>2024-04-24T15:38:03.271Z</time>
      </trkpt>
      <trkpt lat="52.446340" lon="13.138008">
        <ele>31.057057</ele>
        <time>2024-04-24T15:38:13.462Z</time>
      </trkpt>
      <trkpt lat="52.446344" lon="13.141780">
        <ele>31.175609</ele>
        <time>2024-04-24T15:39:40.495Z</time>
      </trkpt>
      <trkpt lat="52.446319" lon="13.142014">
        <ele>31.195944</ele>
        <time>2024-04-24T15:39:45.850Z</time>
      </trkpt>
      <trkpt lat="52.446319" lon="13.142683">
        <ele>31.253207</ele>
        <time>2024-04-24T15:40:01.220Z</time>
      </trkpt>
      <trkpt lat="52.446369" lon="13.143036">
        <ele>31.284227</ele>
        <time>2024-04-24T15:40:09.649Z</time>
      </trkpt>
      <trkpt lat="52.446497" lon="13.143587">
        <ele>31.334700</ele>
        <time>2024-04-24T15:40:23.251Z</time>
      </trkpt>
      <trkpt lat="52.446681" lon="13.144079">
        <ele>31.437573</ele>
        <time>2024-04-24T15:40:36.567Z</time>
      </trkpt>
      <trkpt lat="52.446811" lon="13.144354">
        <ele>31.510042</ele>
        <time>2024-04-24T15:40:44.549Z</time>
      </trkpt>
      <trkpt lat="52.448307" lon="13.145519">
        <ele>32.022947</ele>
        <time>2024-04-24T15:41:49.499Z</time>
      </trkpt>
      <trkpt lat="52.449354" lon="13.146050">
        <ele>32.224534</ele>
        <time>2024-04-24T15:42:32.327Z</time>
      </trkpt>
      <trkpt lat="52.450139" lon="13.146543">
        <ele>32.292159</ele>
        <time>2024-04-24T15:43:02.125Z</time>
      </trkpt>
      <trkpt lat="52.450635" lon="13.146941">
        <ele>32.292159</ele>
        <time>2024-04-24T15:43:21.487Z</time>
      </trkpt>
      <trkpt lat="52.450890" lon="13.147202">
        <ele>32.292159</ele>
        <time>2024-04-24T15:43:31.886Z</time>
      </trkpt>
      <trkpt lat="52.450901" lon="13.147213">
        <ele>32.292159</ele>
        <time>2024-04-24T15:43:32.131Z</time>
      </trkpt>
      <trkpt lat="52.451175" lon="13.147479">
        <ele>32.292159</ele>
        <time>2024-04-24T15:43:38.507Z</time>
      </trkpt>
      <trkpt lat="52.451387" lon="13.147685">
        <ele>32.292159</ele>
        <time>2024-04-24T15:43:43.397Z</time>
      </trkpt>
      <trkpt lat="52.451511" lon="13.147802">
        <ele>32.292159</ele>
        <time>2024-04-24T15:43:46.350Z</time>
      </trkpt>
    </trkseg>
  </trk>
</gpx>